[[[{"header":{"parameterUnit":"kt","parameterCategory":2,"dx":1,"dy":1,"la1":29.285339999999998,"la2":30.599998999999997,"lo1":-89.70041500000002,"lo2":-87.6738589999976,"nx":112,"ny":82,"refTime":"2022-10-21T12:00:00:Z","depth":0,"parameterNumber":1,"parameterNumberName":"U-component_of_WINDS"},"data":[-7.7791,-7.922,0.0,-6.7047,-6.4256,0.0,-4.9691,0.0,0.0,0.0,0.0,0.0,0.0,0.0,0.0,0.0,0.0,0.0,0.0,0.0,0.0,0.0,0.0,0.0,0.0,0.0,0.0,0.0,0.0,0.0,0.0,0.0,-8.0728,-8.0282,-8.2436,-8.2966,-8.187,-8.0051,-7.8254,-7.6319,-7.1859,-6.9406,-6.8726,-6.6061,-6.4959,-6.4959,-6.4959,-6.4959,-6.4959,-6.4959,-6.4959,-6.4959,-6.4959,-6.4959,-6.4959,-6.4959,-6.4959,-6.4959,-6.4959,-6.4959,-6.4959,-6.4959,-6.4959,-6.4959,-6.4959,-6.439,-6.3516,-6.2378,-6.1694,-6.1011,-5.9872,-5.9796,-6.0062,-6.0062,-6.0062,-6.0062,-6.0062,-6.0062,-6.0062,-6.0062,-6.0062,-5.9228,-5.6598,-5.5211,-5.3346,-5.0195,-4.9155,-4.8797,-4.8797,-4.8797,-4.8318,-4.6997,-4.6124,-4.4914,-4.3089,-4.177,-4.1033,-4.1033,-4.1033,-4.1033,-4.1033,-4.1033,-4.1033,-4.1033,-4.1033,-4.1033,-4.1033,-4.1033,-4.1033,-4.1033,-4.1033,-4.1033,0.0,0.0,-7.3094,-6.0278,0.0,0.0,0.0,0.0,0.0,0.0,0.0,0.0,0.0,0.0,0.0,0.0,0.0,0.0,0.0,0.0,0.0,0.0,0.0,0.0,0.0,0.0,0.0,0.0,0.0,0.0,0.0,-7.9697,-8.0233,-8.0233,-8.2436,-8.2748,-8.0876,-7.8997,-7.7188,-7.5329,-7.0955,-6.8846,-6.8726,-6.6061,-6.4959,-6.4959,-6.4959,-6.4959,-6.4959,-6.4959,-6.4959,-6.4959,-6.4959,-6.4959,-6.4959,-6.4959,-6.4959,-6.4959,-6.4959,-6.4959,-6.4959,-6.4959,-6.4959,-6.4921,-6.4617,-6.4162,-6.3516,-6.2415,-6.1694,-6.1087,-6.0251,-6.0062,-6.0062,-6.0062,-6.0062,-6.0062,-6.0062,-6.0062,-6.0062,-6.0062,-6.0062,-5.9228,-5.6598,-5.463,-5.2408,-4.9275,-4.8797,-4.8797,-4.8797,-4.8438,-4.7598,-4.6365,-4.5035,-4.3698,-4.2356,-4.1524,-4.1033,-4.1033,-4.1033,-4.1033,-4.1033,-4.1033,-4.1033,-4.1033,-4.1033,-4.1033,-4.1033,-4.1033,-4.1033,-4.1033,-4.1033,-4.1033,0.0,0.0,0.0,-5.1615,0.0,0.0,0.0,0.0,-4.4162,0.0,0.0,0.0,0.0,0.0,0.0,0.0,0.0,0.0,0.0,0.0,0.0,0.0,0.0,0.0,0.0,0.0,0.0,0.0,0.0,0.0,-7.8141,-7.9697,-8.0282,-8.0282,-8.2436,-8.2638,-8.0765,-7.8884,-7.7074,-7.5213,-7.0836,-6.8726,-6.8606,-6.6061,-6.4959,-6.4959,-6.4959,-6.4959,-6.4959,-6.4959,-6.4959,-6.4959,-6.4959,-6.4959,-6.4959,-6.4959,-6.4959,-6.4959,-6.4959,-6.4959,-6.4959,-6.4959,-6.4959,-6.4807,-6.401,-6.3782,-6.3403,-6.177,-6.1277,-6.1087,-6.0251,-6.0062,-6.0062,-6.0062,-6.0062,-6.0062,-6.0062,-6.0062,-6.0062,-6.0062,-6.0024,-5.8735,-5.5094,-5.276,-5.0907,-4.9036,-4.8797,-4.8797,-4.8677,-4.7598,-4.6365,-4.5035,-4.3698,-4.2505,-4.1156,-4.1033,-4.1033,-4.1033,-4.1033,-4.1033,-4.1033,-4.1033,-4.1033,-4.1033,-4.1033,-4.1033,-4.1033,-4.1033,-4.1033,-4.1033,-4.1033,-4.091,-5.721,0.0,0.0,0.0,0.0,0.0,0.0,0.0,0.0,0.0,0.0,0.0,0.0,0.0,0.0,0.0,0.0,0.0,0.0,0.0,0.0,0.0,0.0,0.0,0.0,0.0,0.0,0.0,0.0,0.0,-7.8336,-7.9697,-8.0728,-8.146,-8.1588,-8.0718,-7.8884,-7.7119,-7.4822,-7.1943,-6.9805,-6.8365,-6.7398,-6.5694,-6.4959,-6.4959,-6.4959,-6.4959,-6.4959,-6.4959,-6.4959,-6.4959,-6.4959,-6.4959,-6.4959,-6.4959,-6.4959,-6.4959,-6.4959,-6.4959,-6.4959,-6.4959,-6.4959,-6.4921,-6.4693,-6.42,-6.3516,-6.2491,-6.1732,-6.1087,-6.0251,-6.0062,-6.0062,-6.0062,-6.0062,-6.0062,-6.0062,-6.0062,-6.0062,-6.0062,-5.8849,-5.7209,-5.4862,-5.276,-5.0907,-4.9036,-4.8797,-4.8438,-4.7478,-4.7088,-4.6003,-4.3698,-4.3211,-4.2505,-4.1156,-4.1033,-4.1033,-4.1033,-4.1033,-4.1033,-4.1033,-4.1033,-4.1033,-4.1033,-4.1033,-4.1033,-4.1033,-4.1033,-4.1033,-4.1033,-4.0022,-3.9652,0.0,0.0,0.0,0.0,0.0,0.0,-4.2971,0.0,-4.1194,0.0,0.0,0.0,0.0,0.0,0.0,0.0,0.0,0.0,0.0,0.0,0.0,0.0,0.0,0.0,0.0,0.0,0.0,0.0,0.0,-7.1849,-7.8434,-7.9697,-8.0874,-8.2006,-8.1344,-7.9939,-7.8208,-7.6319,-7.382,-7.08,-6.9446,-6.8124,-6.6791,-6.5572,-6.4959,-6.4959,-6.4959,-6.4959,-6.4959,-6.4959,-6.4959,-6.4959,-6.4959,-6.4959,-6.4959,-6.4959,-6.4959,-6.4959,-6.4959,-6.4959,-6.4959,-6.4959,-6.4959,-6.4883,-6.4542,-6.3896,-6.3061,-6.2226,-6.139,-6.0631,-6.0176,-6.0062,-6.0062,-6.0062,-6.0062,-6.0062,-6.0062,-6.0062,-6.0062,-6.0062,-5.8506,-5.6252,-5.3697,-5.1616,-4.9989,-4.8916,-4.8318,-4.7718,-4.6997,-4.5882,-4.4671,-4.3089,-4.2478,-4.1892,-4.1033,-4.1033,-4.1033,-4.1033,-4.1033,-4.1033,-4.1033,-4.1033,-4.1033,-4.1033,-4.1033,-4.1033,-4.1033,-4.1033,-4.1033,-4.1033,-3.9652,-3.9034,0.0,0.0,0.0,0.0,-4.9393,0.0,0.0,0.0,0.0,0.0,0.0,0.0,0.0,0.0,0.0,0.0,0.0,0.0,0.0,0.0,0.0,0.0,0.0,0.0,0.0,0.0,0.0,-7.8483,-7.3214,-7.2531,-7.8629,-7.9745,-8.0874,-8.2201,-8.1173,-7.9827,-7.8208,-7.609,-7.3587,-7.0562,-6.9326,-6.8003,-6.667,-6.5449,-6.4959,-6.4959,-6.4959,-6.4959,-6.4959,-6.4959,-6.4959,-6.4959,-6.4959,-6.4959,-6.4959,-6.4959,-6.4959,-6.4959,-6.4959,-6.4959,-6.4959,-6.4959,-6.4959,-6.4845,-6.4124,-6.3327,-6.2491,-6.1656,-6.0821,-6.0176,-6.0062,-6.0062,-6.0062,-6.0062,-6.0062,-6.0062,-6.0062,-6.0062,-6.0062,-5.9797,-5.8163,-5.5674,-5.197,-4.972,-4.8558,-4.8558,-4.7478,-4.6636,-4.6636,-4.4428,-4.2845,-4.2722,-4.1647,-4.1033,-4.1033,-4.1033,-4.1033,-4.1033,-4.1033,-4.1033,-4.1033,-4.1033,-4.1033,-4.1033,-4.1033,-4.1033,-4.1033,-4.1033,-4.1033,-4.1033,-3.9528,-3.891,0.0,0.0,0.0,0.0,0.0,-4.5879,0.0,0.0,0.0,0.0,0.0,0.0,0.0,0.0,0.0,0.0,0.0,0.0,0.0,0.0,0.0,0.0,0.0,0.0,0.0,0.0,-7.8776,-7.8776,-7.6774,-7.6921,-7.9794,-8.0135,-8.1265,-8.3168,-8.0244,-7.8434,-7.8095,-7.4822,-7.1825,-6.9206,-6.8966,-6.764,-6.5327,-6.5082,-6.4959,-6.4959,-6.4959,-6.4959,-6.4959,-6.4959,-6.4959,-6.4959,-6.4959,-6.4959,-6.4959,-6.4959,-6.4959,-6.4959,-6.4959,-6.4959,-6.4959,-6.4959,-6.4959,-6.4921,-6.4769,-6.4162,-6.3327,-6.2529,-6.1694,-6.0897,-6.0213,-6.0062,-6.0062,-6.0062,-6.0062,-6.0062,-6.0062,-6.0062,-5.9569,-5.8012,-5.6252,-5.3931,-5.0638,-4.8527,-4.7238,-4.7238,-4.6124,-4.5277,-4.5277,-4.3942,-4.26,-4.1524,-4.1156,-4.1033,-4.1033,-4.1033,-4.1033,-4.1033,-4.1033,-4.1033,-4.1033,-4.1033,-4.1033,-4.1033,-4.1033,-4.1033,-4.1033,-4.1033,-4.1033,-4.091,-3.8564,-3.7446,0.0,0.0,0.0,-4.5147,0.0,0.0,0.0,0.0,0.0,0.0,0.0,0.0,0.0,0.0,0.0,0.0,0.0,0.0,0.0,0.0,0.0,0.0,0.0,0.0,0.0,0.0,-7.9312,-7.8824,-7.7751,-7.8092,-8.0135,-8.0233,-8.1314,-8.3461,-8.0051,-7.8095,-7.8095,-7.3893,-7.0759,-6.8846,-6.8124,-6.6791,-6.4959,-6.4959,-6.4959,-6.4959,-6.4959,-6.4959,-6.4959,-6.4959,-6.4959,-6.4959,-6.4959,-6.4959,-6.4959,-6.4959,-6.4959,-6.4959,-6.4959,-6.4959,-6.4959,-6.4959,-6.4959,-6.4959,-6.4959,-6.4693,-6.4086,-6.2871,-6.1618,-6.0555,-6.0138,-6.0062,-6.0062,-6.0062,-6.0062,-6.0062,-6.0062,-6.0062,-5.9456,-5.7554,-5.5674,-5.3112,-4.8974,-4.7448,-4.6636,-4.6003,-4.4792,-4.3942,-4.3942,-4.2722,-4.177,-4.1033,-4.1033,-4.1033,-4.1033,-4.1033,-4.1033,-4.1033,-4.1033,-4.1033,-4.1033,-4.1033,-4.1033,-4.1033,-4.1033,-4.1033,-4.1033,-4.1033,-4.0663,-4.0022,-3.8067,-3.67,0.0,0.0,0.0,0.0,0.0,0.0,0.0,-4.7099,0.0,0.0,0.0,0.0,0.0,0.0,0.0,0.0,0.0,0.0,0.0,0.0,0.0,0.0,0.0,0.0,0.0,0.0,-7.8434,-7.8434,-7.7653,-7.8092,-8.0135,-8.0233,-8.1314,-8.3461,-8.0051,-7.8095,-7.8095,-7.3193,-7.0085,-6.8846,-6.7519,-6.6183,-6.4959,-6.4959,-6.4959,-6.4959,-6.4959,-6.4959,-6.4959,-6.4959,-6.4959,-6.4959,-6.4959,-6.4959,-6.4959,-6.4959,-6.4959,-6.4959,-6.4959,-6.4959,-6.4959,-6.4959,-6.4959,-6.4959,-6.4959,-6.4845,-6.4428,-6.2947,-6.1314,-6.0062,-6.0062,-6.0062,-6.0062,-6.0062,-6.0062,-6.0062,-6.0062,-6.0062,-5.9342,-5.7094,-5.5176,-5.2375,-4.7328,-4.6485,-4.6003,-4.4671,-4.3577,-4.2967,-4.2967,-4.177,-4.1033,-4.1033,-4.1033,-4.1033,-4.1033,-4.1033,-4.1033,-4.1033,-4.1033,-4.1033,-4.1033,-4.1033,-4.1033,-4.1033,-4.1033,-4.1033,-4.1033,-4.1033,-4.0392,-3.9034,-3.7446,-3.6076,0.0,0.0,0.0,0.0,0.0,0.0,-5.6373,-5.6959,0.0,0.0,0.0,0.0,0.0,0.0,0.0,0.0,0.0,0.0,0.0,0.0,0.0,0.0,0.0,0.0,0.0,0.0,-7.736,-7.736,-7.7214,-7.8092,-8.0135,-8.0233,-8.1314,-8.3461,-8.0051,-7.8095,-7.8095,-7.3193,-7.0085,-6.8846,-6.7519,-6.6183,-6.4959,-6.4959,-6.4959,-6.4959,-6.4959,-6.4959,-6.4959,-6.4959,-6.4959,-6.4959,-6.4959,-6.4959,-6.4959,-6.4959,-6.4959,-6.4959,-6.4959,-6.4959,-6.4959,-6.4959,-6.4959,-6.4959,-6.4959,-6.4466,-6.3706,-6.2795,-6.1314,-6.0062,-6.0062,-6.0062,-6.0062,-6.0062,-6.0062,-6.0062,-6.0062,-6.0062,-5.9,-5.5442,-5.3663,-5.1046,-4.5974,-4.5156,-4.4671,-4.3333,-4.3089,-4.2967,-4.2967,-4.177,-4.1033,-4.1033,-4.1033,-4.1033,-4.1033,-4.1033,-4.1033,-4.1033,-4.1033,-4.1033,-4.1033,-4.1033,-4.1033,-4.1033,-4.1033,-4.1033,-4.1033,-4.1033,-4.0392,-3.9034,-3.6427,-3.5179,0.0,0.0,0.0,0.0,0.0,0.0,0.0,-5.6275,0.0,0.0,0.0,0.0,0.0,0.0,0.0,0.0,0.0,0.0,0.0,0.0,0.0,0.0,0.0,0.0,0.0,0.0,0.0,-7.7165,-7.7165,-7.7799,-7.9258,-8.0581,-8.1997,-8.351,-8.0051,-7.7756,-7.7074,-7.2137,-6.8966,-6.764,-6.6305,-6.5449,-6.4959,-6.4959,-6.4959,-6.4959,-6.4959,-6.4959,-6.4959,-6.4959,-6.4693,-6.4314,-6.4769,-6.4693,-6.4314,-6.4769,-6.4959,-6.4959,-6.4959,-6.4959,-6.4959,-6.4959,-6.4959,-6.4883,-6.439,-6.401,-6.3479,-6.215,-6.1314,-6.0631,-6.0176,-6.0062,-6.0062,-6.0062,-6.0062,-6.0062,-6.0062,-6.0062,-5.8963,-5.5211,-5.2492,-4.9657,-4.564,-4.4307,-4.3333,-4.2015,-4.1892,-4.1892,-4.1892,-4.1401,-4.1033,-4.1033,-4.1033,-4.1033,-4.1033,-4.1033,-4.1033,-4.1033,-4.1033,-4.1033,-4.1033,-4.1033,-4.1033,-4.1033,-4.1033,-4.1033,-4.1033,-4.0294,-3.9652,-3.9034,-3.6303,-3.4553,-3.8607,0.0,0.0,0.0,0.0,0.0,0.0,0.0,0.0,0.0,0.0,0.0,0.0,0.0,0.0,0.0,0.0,0.0,0.0,0.0,0.0,0.0,0.0,0.0,0.0,0.0,0.0,0.0,-7.7165,-7.7507,-7.8288,-8.0337,-8.2143,-8.351,-8.0051,-7.7756,-7.6687,-7.1505,-6.8365,-6.7398,-6.5694,-6.4959,-6.4959,-6.4959,-6.4959,-6.4959,-6.4959,-6.4959,-6.4959,-6.4959,-6.4504,-6.382,-6.4655,-6.4466,-6.3858,-6.4655,-6.4959,-6.4959,-6.4959,-6.4959,-6.4959,-6.4959,-6.4959,-6.4845,-6.4276,-6.3782,-6.3175,-6.196,-6.1277,-6.0783,-6.0213,-6.0062,-6.0062,-6.0062,-6.0062,-6.0062,-6.0062,-5.9683,-5.8163,-5.4595,-5.1315,-4.8137,-4.4914,-4.3577,-4.2478,-4.1156,-4.1278,-4.1401,-4.1033,-4.1033,-4.1033,-4.1033,-4.1033,-4.1033,-4.1033,-4.1033,-4.1033,-4.1033,-4.1033,-4.1033,-4.1033,-4.1033,-4.1033,-4.1033,-4.1033,-4.1033,-4.1033,-3.9652,-3.8663,-3.7919,-3.5928,-3.4303,0.0,0.0,0.0,0.0,0.0,0.0,0.0,0.0,0.0,0.0,0.0,0.0,0.0,0.0,0.0,0.0,0.0,0.0,0.0,0.0,0.0,0.0,0.0,0.0,0.0,0.0,0.0,0.0,0.0,-7.7165,-7.7214,-7.9215,-8.1362,-8.3461,-8.0051,-7.8095,-7.8095,-7.1977,-6.8726,-6.8726,-6.6183,-6.4959,-6.4959,-6.4959,-6.4959,-6.4959,-6.4959,-6.4959,-6.4959,-6.4959,-6.4504,-6.382,-6.4655,-6.4466,-6.3858,-6.4655,-6.4959,-6.4959,-6.4959,-6.4959,-6.4959,-6.4959,-6.4959,-6.4959,-6.4921,-6.382,-6.2567,-6.2609,-6.1314,-6.0062,-6.0062,-6.0062,-6.0062,-6.0062,-6.0062,-6.0062,-6.0062,-5.8621,-5.6367,-5.3162,-4.9981,-4.6817,-4.3577,-4.2967,-4.2478,-4.1156,-4.2137,-4.2505,-4.1156,-4.1033,-4.1033,-4.1033,-4.1033,-4.1033,-4.1033,-4.1033,-4.1033,-4.1033,-4.1033,-4.1033,-4.1033,-4.1033,-4.1033,-4.1033,-4.1033,-4.1033,-4.1033,-3.9652,-3.7671,-3.5054,-3.5054,-3.4303,-4.2365,0.0,0.0,0.0,0.0,-6.0717,-6.5793,0.0,0.0,0.0,0.0,0.0,0.0,0.0,0.0,0.0,0.0,0.0,0.0,0.0,0.0,0.0,0.0,0.0,0.0,0.0,0.0,0.0,0.0,0.0,-7.819,-7.9453,-8.1021,-8.2543,-8.2034,-7.9734,-7.5613,-7.1032,-6.7882,-6.6183,-6.5327,-6.4959,-6.4959,-6.4959,-6.4959,-6.4959,-6.4959,-6.4959,-6.4921,-6.439,-6.3668,-6.2947,-6.3251,-6.3175,-6.3023,-6.3858,-6.4504,-6.4959,-6.4959,-6.4959,-6.4883,-6.4352,-6.4504,-6.4655,-6.2985,-6.2529,-6.2302,-6.1201,-6.0479,-6.0062,-6.0062,-6.0062,-6.0062,-6.0062,-6.0062,-6.0062,-6.0062,-5.7554,-5.463,-5.229,-4.8616,-4.5519,-4.4428,-4.2845,-4.1524,-4.1033,-4.1401,-4.1524,-4.1033,-4.1033,-4.1033,-4.1033,-4.1033,-4.1033,-4.1033,-4.1033,-4.1033,-4.1033,-4.1033,-4.1033,-4.1033,-4.1033,-4.1033,-4.1033,-4.1033,-4.054,-3.9652,-3.844,-3.6801,-3.4929,-3.4052,-3.3425,0.0,0.0,0.0,-5.6836,-6.1156,-6.4475,-6.7013,0.0,0.0,0.0,0.0,0.0,0.0,0.0,0.0,0.0,0.0,0.0,0.0,0.0,0.0,0.0,0.0,0.0,0.0,0.0,0.0,0.0,0.0,0.0,-7.8141,-7.9453,-8.0679,-8.1362,-8.2778,-8.1003,-7.5727,-7.115,-6.8003,-6.6305,-6.5327,-6.4959,-6.4959,-6.4959,-6.4959,-6.4959,-6.4959,-6.4807,-6.4504,-6.4276,-6.3365,-6.215,-6.3061,-6.3061,-6.28,-6.3782,-6.4504,-6.4959,-6.4959,-6.4959,-6.4883,-6.4352,-6.4352,-6.4238,-6.2643,-6.2112,-6.1846,-6.0783,-6.0251,-6.0062,-6.0062,-6.0062,-6.0062,-6.0062,-6.0062,-5.9797,-5.9191,-5.6634,-5.3697,-5.1229,-4.7658,-4.4792,-4.4307,-4.2505,-4.1033,-4.1033,-4.1033,-4.1033,-4.1033,-4.1033,-4.1033,-4.1033,-4.1033,-4.1033,-4.1033,-4.1033,-4.1033,-4.1033,-4.1033,-4.1033,-4.1033,-4.1033,-4.1033,-4.1033,-4.1033,-3.9899,-3.7671,-3.6801,-3.5679,-3.4303,-3.3425,-3.267,0.0,-4.9393,0.0,-6.0766,-6.4426,-6.6818,0.0,0.0,0.0,0.0,0.0,0.0,0.0,0.0,0.0,0.0,0.0,0.0,0.0,0.0,0.0,0.0,0.0,0.0,0.0,0.0,0.0,0.0,0.0,-7.7165,-7.7165,-7.9215,-8.0233,-8.0184,-8.2387,-8.1823,-7.823,-7.217,-6.9086,-6.8726,-6.6183,-6.4959,-6.4959,-6.4959,-6.4959,-6.4959,-6.4921,-6.4466,-6.382,-6.4504,-6.3403,-6.1504,-6.382,-6.382,-6.2719,-6.4276,-6.4883,-6.4959,-6.4921,-6.4883,-6.4883,-6.4807,-6.4276,-6.3668,-6.3592,-6.2491,-6.1239,-6.1201,-6.0631,-6.0062,-6.0062,-6.0062,-6.0062,-6.0062,-6.0062,-5.9569,-5.7668,-5.579,-5.3429,-5.0164,-4.7058,-4.455,-4.3333,-4.2015,-4.1156,-4.1033,-4.1033,-4.1033,-4.1033,-4.1033,-4.1033,-4.1033,-4.1033,-4.1033,-4.1033,-4.1033,-4.1033,-4.1033,-4.1033,-4.1033,-4.1033,-4.1033,-4.1033,-4.091,-4.091,-3.891,-3.4929,-3.4929,-3.4303,-3.3048,-3.3048,-3.1915,-5.0809,0.0,-5.852,-6.4719,-6.6671,-6.7696,0.0,0.0,0.0,0.0,0.0,0.0,0.0,0.0,0.0,0.0,0.0,0.0,0.0,0.0,0.0,0.0,0.0,0.0,0.0,0.0,0.0,0.0,0.0,-7.7165,-7.7165,-7.9215,-7.9892,-7.9215,-8.1997,-8.2143,-7.9037,-7.5873,-7.1935,-6.7398,-6.5694,-6.4959,-6.4959,-6.4959,-6.4959,-6.4921,-6.4314,-6.3934,-6.3668,-6.2643,-6.1846,-6.1277,-6.1277,-6.1808,-6.2567,-6.2985,-6.3934,-6.4883,-6.4276,-6.4048,-6.3858,-6.2605,-6.2491,-6.2605,-6.1352,-6.1125,-6.1125,-6.0517,-6.0213,-6.0062,-6.0062,-6.0062,-6.0062,-6.0062,-6.0062,-5.991,-5.9456,-5.6749,-5.3346,-4.972,-4.7598,-4.5882,-4.4671,-4.3333,-4.2137,-4.1156,-4.1033,-4.1033,-4.1033,-4.1033,-4.1033,-4.1033,-4.1033,-4.1033,-4.1033,-4.1033,-4.1033,-4.1033,-4.1033,-4.1033,-4.1033,-4.1033,-4.054,-3.9528,-3.9528,-3.8043,-3.4929,-3.4929,-3.4303,-3.3048,-3.3048,-3.1915,-4.9198,-5.4518,-6.018,0.0,-6.7413,-6.8038,-7.0277,0.0,0.0,0.0,0.0,0.0,0.0,0.0,0.0,0.0,0.0,0.0,0.0,0.0,0.0,0.0,0.0,0.0,0.0,0.0,0.0,0.0,0.0,-7.7165,-7.7165,-7.8727,-7.9605,-7.9356,-8.1655,-8.2022,-7.9978,-7.8046,-7.4344,-6.8886,-6.6144,-6.4959,-6.4959,-6.4959,-6.458,-6.3896,-6.3782,-6.3327,-6.2605,-6.2036,-6.139,-6.0745,-6.1049,-6.1694,-6.2567,-6.2947,-6.363,-6.4352,-6.3896,-6.3516,-6.3061,-6.2112,-6.1884,-6.1808,-6.0859,-6.0669,-6.0631,-6.0176,-6.0062,-6.0062,-6.0062,-6.0062,-6.0062,-6.0062,-6.0062,-6.0062,-6.0062,-5.7094,-5.3814,-5.1702,-4.8407,-4.5761,-4.5035,-4.3333,-4.1892,-4.1156,-4.1033,-4.1033,-4.1033,-4.1033,-4.1033,-4.1033,-4.1033,-4.1033,-4.1033,-4.1033,-4.1033,-4.1033,-4.1033,-4.1033,-4.1033,-4.1033,-4.0392,-3.9158,-3.7919,-3.6303,-3.4178,-3.4178,-3.3801,-3.3048,-3.2167,-3.0652,-4.6648,-5.2371,-5.9789,0.0,-6.7403,-6.8038,0.0,0.0,-7.0765,0.0,0.0,0.0,0.0,0.0,0.0,0.0,0.0,0.0,0.0,0.0,0.0,0.0,0.0,0.0,0.0,0.0,0.0,0.0,0.0,0.0,-7.7165,-7.8336,-7.9161,-7.9794,-8.1362,-8.1791,-8.0781,-7.924,-7.6255,-7.1916,-6.7964,-6.5739,-6.5052,-6.4938,-6.4099,-6.2804,-6.3294,-6.2605,-6.1314,-6.1922,-6.1352,-6.0213,-6.1656,-6.2264,-6.2453,-6.3175,-6.3479,-6.3554,-6.3441,-6.2947,-6.234,-6.2226,-6.1694,-6.1087,-6.1087,-6.0631,-6.0062,-6.0062,-6.0062,-6.0062,-6.0062,-6.0062,-6.0062,-6.0062,-6.0062,-5.9948,-5.9683,-5.6864,-5.4397,-5.4047,-4.9419,-4.5398,-4.5156,-4.2967,-4.1156,-4.1033,-4.1033,-4.1033,-4.1033,-4.1033,-4.1033,-4.1033,-4.1033,-4.1033,-4.1033,-4.1033,-4.1033,-4.1033,-4.1033,-4.091,-4.0787,-4.0787,-3.9971,-3.8319,-3.604,-3.4216,-3.2964,-3.2964,-3.2859,-3.2544,-3.0759,-2.8715,-5.4274,-5.8032,-6.14,-6.5207,-6.6818,0.0,-6.8973,-7.0039,-7.0765,0.0,0.0,0.0,0.0,0.0,0.0,0.0,0.0,0.0,0.0,0.0,0.0,0.0,0.0,0.0,0.0,0.0,0.0,0.0,0.0,0.0,-7.7165,-7.902,-7.9361,-7.7751,-8.1314,-8.2378,-8.0396,-8.0463,-7.8357,-7.419,-7.2722,-6.9671,-6.5498,-6.4759,-6.4292,-6.3981,-6.2389,-6.1542,-6.1239,-6.0707,-6.0327,-6.0062,-6.0365,-6.0897,-6.1504,-6.1656,-6.215,-6.2643,-6.1922,-6.1618,-6.139,-6.0707,-6.0365,-6.0251,-6.0251,-6.0176,-6.0062,-6.0062,-6.0062,-6.0062,-6.0062,-6.0062,-6.0062,-6.0062,-6.0062,-5.9569,-5.8012,-5.5905,-5.3931,-5.2323,-4.9839,-4.7838,-4.6726,-4.4307,-4.2233,-4.1156,-4.1033,-4.1033,-4.1033,-4.1033,-4.1033,-4.1033,-4.1033,-4.1033,-4.1033,-4.1033,-4.1033,-4.1033,-4.1033,-4.054,-3.9405,-3.9405,-3.7855,-3.47,-3.4499,-3.3861,-3.2503,-3.2503,-3.182,-3.0506,-3.0127,-2.7812,-5.1346,-5.5641,-5.9887,-6.2035,0.0,-6.7111,-6.8632,-6.9412,-7.0185,-7.1259,0.0,0.0,0.0,0.0,0.0,0.0,0.0,0.0,0.0,0.0,0.0,0.0,0.0,0.0,0.0,0.0,0.0,0.0,0.0,0.0,0.0,-7.8141,-7.8483,-7.7995,-8.0533,-8.1411,-8.0282,-8.0183,-7.8034,-7.3999,-7.2576,-6.9831,-6.5976,-6.7543,-6.6729,-6.4289,-6.2812,-6.1586,-6.0593,-6.0213,-6.0062,-6.0062,-6.0062,-6.0555,-6.1277,-6.1277,-6.1504,-6.1808,-6.139,-6.0973,-6.0555,-6.0176,-6.0062,-6.0062,-6.0062,-6.0062,-6.0062,-6.0062,-6.0062,-6.0062,-6.0062,-6.0062,-6.0062,-6.0062,-6.0062,-5.9569,-5.7554,-5.5674,-5.3814,-5.1852,-4.9989,-4.8198,-4.6124,-4.4792,-4.3333,-4.1278,-4.1033,-4.1033,-4.1033,-4.1033,-4.1033,-4.1033,-4.1033,-4.1033,-4.1033,-4.1033,-4.1033,-4.1033,-4.1033,-4.0264,-3.8736,-3.7101,-3.5049,-3.265,-3.2888,-3.2652,-3.2043,-3.2043,-3.1148,-2.9354,-2.8362,-2.6163,-4.9101,-5.3737,-5.8911,-6.0229,-6.2718,-6.5598,-6.8339,-6.8827,-6.9217,-7.121,-7.1113,0.0,0.0,0.0,0.0,0.0,0.0,0.0,0.0,0.0,0.0,0.0,0.0,0.0,0.0,0.0,0.0,0.0,0.0,0.0,0.0,0.0,0.0,-7.8385,-7.9599,-8.0135,-7.994,-7.9643,-7.7663,0.0,-7.2689,-7.0223,-6.71,-7.0338,-6.9227,-6.4668,-6.3021,-6.1507,-6.0062,-6.0062,-6.0062,-6.0062,-6.0062,-6.0441,-6.1011,-6.1011,-6.1011,-6.1011,-6.1011,-6.0593,-6.0062,-6.0062,-6.0062,-6.0062,-6.0062,-6.0062,-6.0062,-6.0062,-6.0062,-6.0062,-6.0062,-6.0062,-6.0062,-6.0062,-6.0062,-5.9456,-5.7094,-5.5442,-5.3697,-5.138,-4.9513,-4.7598,-4.5277,-4.4671,-4.3698,-4.1401,-4.1033,-4.1033,-4.1033,-4.1033,-4.1033,-4.1033,-4.0929,-4.0851,-4.0851,-4.0747,-4.0669,-4.0669,-4.0425,-3.949,-3.7829,-3.5352,-3.338,-3.1774,-3.1619,-3.1562,-3.1562,-3.1562,-3.0399,-2.8279,-2.6575,-2.4588,-5.608,-5.8764,-6.1205,-6.3352,-6.2669,-6.2815,-6.7852,-6.8242,-6.7901,-6.9071,0.0,0.0,0.0,0.0,0.0,0.0,0.0,0.0,0.0,0.0,0.0,0.0,0.0,0.0,0.0,0.0,0.0,0.0,0.0,0.0,0.0,0.0,0.0,-7.736,-7.9312,-7.9794,-7.8922,-7.9739,-7.875,0.0,-7.6599,-7.4502,-6.9969,-7.1407,-6.9792,-6.5722,-6.1941,-6.0213,-6.0062,-6.0062,-6.0062,-6.0062,-6.0062,-6.01,-6.0138,-6.0138,-6.0138,-6.0138,-6.0138,-6.01,-6.0062,-6.0062,-6.0062,-6.0062,-6.0062,-6.0062,-6.0062,-6.0062,-6.0062,-6.0062,-6.0062,-6.0062,-6.0062,-6.0062,-6.0062,-5.9114,-5.5442,-5.4513,-5.3346,-4.9751,-4.7958,-4.6636,-4.5156,-4.3942,-4.26,-4.1278,-4.1033,-4.1033,-4.1033,-4.1033,-4.1033,-4.1033,-4.0565,-4.0279,-4.0279,-3.9786,-3.9356,-3.9356,-3.8408,-3.7194,-3.593,-3.5525,-3.4348,-3.2071,-3.1436,-3.1177,-3.1177,-3.1177,-2.948,-2.6087,-2.5965,-2.359,-4.8954,-5.2127,-5.5664,-5.7228,-6.0277,-6.3548,-6.5695,0.0,0.0,0.0,0.0,-7.1259,0.0,0.0,0.0,0.0,0.0,0.0,0.0,0.0,0.0,0.0,0.0,0.0,0.0,0.0,0.0,0.0,0.0,0.0,0.0,0.0,0.0,0.0,-7.8629,-7.8873,-7.7799,-7.8873,-7.8002,-7.5251,-7.5677,-7.529,-7.4487,-7.3871,-7.1855,-6.8488,-6.5176,-6.2717,-6.1041,-6.0364,-6.0062,-6.0062,-6.0062,-6.0062,-6.0062,-6.0062,-6.0062,-6.0062,-6.0062,-6.0062,-6.0062,-6.0062,-6.0062,-6.0062,-6.0062,-6.0062,-6.0062,-6.0062,-6.0062,-6.0062,-6.0062,-6.0062,-6.0062,-6.0062,-5.9228,-5.7554,-5.4978,-5.3463,-5.197,-4.9275,-4.7718,-4.6394,-4.5156,-4.382,-4.2478,-4.1156,-4.1033,-4.1033,-4.1033,-4.0747,-4.0539,-4.0539,-4.002,-3.9682,-3.9682,-3.9448,-3.9201,-3.9201,-3.8847,-3.7366,-3.4726,-3.319,-3.1964,-3.1018,-3.0726,-3.0599,-3.0599,-3.0599,-2.9376,-2.6821,-2.5653,-2.3667,-4.544,-4.8334,-5.1901,-5.3542,-5.8228,0.0,0.0,-6.4475,0.0,0.0,-6.9844,-7.0869,-6.9265,0.0,0.0,0.0,0.0,0.0,0.0,0.0,0.0,0.0,0.0,0.0,0.0,0.0,0.0,0.0,0.0,0.0,0.0,0.0,0.0,0.0,-7.7897,-7.7946,-7.7165,-7.7897,-7.7288,-7.5399,-7.5399,-7.6008,-7.7165,-7.5399,-7.3045,-7.0233,-6.7673,-6.4778,-6.179,-6.0929,-6.0364,-6.0062,-6.0062,-6.0062,-6.0062,-6.0062,-6.0062,-6.0062,-6.0062,-6.0062,-6.0062,-6.0062,-6.0062,-6.0062,-6.0062,-6.0062,-6.0062,-6.0062,-6.0062,-6.0062,-6.0062,-6.0062,-6.0062,-6.0062,-5.8621,-5.6598,-5.4862,-5.2878,-5.0907,-4.8677,-4.7117,-4.5882,-4.455,-4.3211,-4.2137,-4.1156,-4.1033,-4.1033,-4.1033,-4.0539,-4.0124,-3.9942,-3.9422,-3.9085,-3.9085,-3.8929,-3.8825,-3.8825,-3.8126,-3.6612,-3.4137,-3.1916,-3.0882,-3.0882,-3.0557,-3.0327,-3.0327,-3.0327,-2.9382,-2.751,-2.5649,-2.3664,-4.9686,-5.063,-5.2243,-5.5397,-5.7105,0.0,-6.057,-6.1058,-6.1986,-6.5256,-6.7559,-6.9022,-6.9022,0.0,0.0,0.0,0.0,0.0,0.0,0.0,0.0,0.0,0.0,0.0,0.0,0.0,0.0,0.0,0.0,0.0,0.0,0.0,0.0,0.0,-7.7165,-7.7165,-7.7165,-7.7165,-7.7165,-7.7165,-7.7165,-7.7165,-7.7165,-7.5399,-7.3045,-7.0233,-6.8575,-6.5587,-6.179,-6.179,-6.1154,-6.0062,-6.0062,-6.0062,-6.0062,-6.0062,-6.0062,-6.0062,-6.0062,-6.0062,-6.0062,-6.0062,-6.0062,-6.0062,-6.0062,-6.0062,-6.0062,-6.0062,-6.0062,-6.0062,-6.0062,-6.0062,-6.0062,-6.0062,-5.8621,-5.6598,-5.4862,-5.2878,-5.0551,-4.7448,-4.5761,-4.455,-4.3211,-4.1892,-4.1033,-4.1033,-4.1033,-4.1033,-4.1033,-4.0539,-3.9968,-3.9397,-3.8825,-3.8488,-3.8488,-3.7994,-3.7769,-3.7769,-3.5366,-3.4114,-3.3976,-3.2719,-3.2031,-3.2031,-3.0882,-3.0327,-3.0327,-3.0327,-2.9382,-2.751,-2.5649,-2.3664,-4.5196,-4.7295,-5.0028,-5.3249,-5.5982,-5.8472,-6.057,-6.2181,-6.3987,-6.6476,-6.6378,-6.6281,-6.7657,0.0,0.0,0.0,0.0,0.0,0.0,0.0,0.0,0.0,0.0,0.0,0.0,0.0,0.0,0.0,0.0,0.0,0.0,0.0,0.0,0.0,-7.7165,-7.7165,-7.7165,-7.7165,-7.7165,-7.7165,-7.7165,-7.7165,-7.7065,-7.4227,-7.1959,-7.0233,-6.7327,-6.442,-6.179,-6.179,-6.1154,-6.0062,-6.0062,-6.0062,-6.0062,-6.0062,-6.0062,-6.0062,-6.0062,-6.0062,-6.0062,-6.0062,-6.0062,-6.0062,-6.0062,-6.0062,-6.0062,-6.0062,-6.0062,-6.0062,-6.0062,-6.0062,-6.0062,-6.0062,-5.7554,-5.5094,-5.4513,-5.1937,-4.9155,-4.7238,-4.5761,-4.4428,-4.3211,-4.1892,-4.1033,-4.1033,-4.1033,-4.0903,-4.0513,-4.0305,-3.9812,-3.8851,-3.8254,-3.7916,-3.7916,-3.776,-3.7292,-3.6387,-3.4887,-3.3634,-3.2719,-3.1572,-3.0903,-3.0903,-3.0557,-3.0327,-3.0327,-2.9036,-2.8205,-2.751,-2.4365,-2.2492,-4.5049,-4.7002,-4.9134,-5.3249,-5.5153,-5.6715,0.0,-6.0277,-6.1254,-6.3401,-6.3157,0.0,0.0,0.0,-7.0765,-7.0765,0.0,0.0,0.0,0.0,0.0,0.0,0.0,0.0,0.0,0.0,0.0,0.0,0.0,0.0,0.0,0.0,0.0,-7.7165,-7.7165,-7.7165,-7.7165,-7.7165,-7.7165,-7.7165,-7.6561,-7.621,-7.6109,-7.2734,-7.07,-6.996,-6.7153,-6.4681,-6.2462,-6.2462,-6.1565,-6.0062,-6.0062,-6.0062,-6.0062,-6.0062,-6.0062,-6.0062,-6.0062,-6.0062,-6.0062,-6.0062,-6.0062,-6.0062,-6.0062,-6.0062,-6.0062,-6.0062,-6.0062,-6.0062,-6.0062,-6.0062,-5.991,-5.9077,-5.6634,-5.428,-5.3463,-5.0519,-4.7718,-4.6365,-4.5035,-4.3698,-4.2505,-4.1524,-4.1033,-4.1033,-4.0851,-4.0591,-4.0228,-3.9812,-3.9267,-3.8565,-3.7994,-3.7769,-3.7769,-3.7769,-3.7179,-3.5796,-3.4204,-3.2719,-3.1457,-3.0652,-3.0327,-3.0327,-3.0327,-3.0327,-3.0327,-2.8437,-2.7626,-2.751,-2.3781,-2.1905,-4.7783,-4.8661,-4.9329,-5.4545,-5.4616,-5.4247,-5.7203,-5.6226,0.0,-5.7251,0.0,0.0,0.0,-6.6671,-7.0423,-7.0716,0.0,0.0,0.0,0.0,0.0,0.0,0.0,0.0,0.0,0.0,0.0,0.0,0.0,0.0,0.0,0.0,0.0,-7.7165,-7.7165,-7.7165,-7.7165,-7.7165,-7.7165,-7.6964,-7.5399,-7.4581,-7.4329,-7.1061,-6.958,-6.9517,-6.7737,-6.567,-6.3535,-6.3424,-6.2126,-6.0062,-6.0062,-6.0062,-6.0062,-6.0062,-6.0062,-6.0062,-6.0062,-6.0062,-6.0062,-6.0062,-6.0062,-6.0062,-6.0062,-6.0062,-6.0062,-6.0062,-6.0062,-6.0062,-6.0062,-6.0062,-5.9569,-5.7668,-5.579,-5.3931,-5.197,-4.9005,-4.6485,-4.5156,-4.382,-4.2505,-4.1278,-4.1033,-4.1007,-4.0981,-4.0539,-4.015,-4.0072,-3.9137,-3.8462,-3.8436,-3.7968,-3.7769,-3.7769,-3.7769,-3.7066,-3.5569,-3.3291,-3.1572,-3.0327,-3.0327,-3.0327,-3.0327,-3.0327,-3.0327,-3.0096,-2.8321,-2.7278,-2.7162,-2.343,-2.1788,-4.2853,-4.5294,-4.7929,-5.1706,-5.4736,-5.6959,-5.7739,0.0,0.0,0.0,0.0,0.0,0.0,-6.3255,0.0,-7.0228,-7.1694,0.0,0.0,0.0,0.0,0.0,0.0,0.0,0.0,0.0,0.0,0.0,0.0,0.0,0.0,0.0,-7.7165,-7.7165,-7.7165,-7.7165,-7.7165,-7.7165,-7.6513,-7.5195,-7.4889,-7.3918,-7.263,-7.0534,-6.958,-6.9473,-6.687,-6.4901,-6.3535,-6.2534,-6.1341,-6.0062,-6.0062,-6.0062,-6.0062,-6.0062,-6.0062,-6.0062,-6.0062,-6.0062,-6.0062,-6.0062,-6.0062,-6.0062,-6.0062,-6.0062,-6.0062,-6.0062,-6.0062,-6.0062,-6.0062,-6.0062,-5.9569,-5.7668,-5.579,-5.3931,-5.197,-4.9005,-4.6485,-4.5156,-4.382,-4.2505,-4.1278,-4.1033,-4.0877,-4.0461,-4.0279,-3.9864,-3.9007,-3.8643,-3.8332,-3.789,-3.7848,-3.7769,-3.7769,-3.7769,-3.6387,-3.3177,-3.2375,-3.1572,-3.0327,-3.0327,-3.0327,-3.0327,-3.0327,-2.9614,-2.8205,-2.6348,-2.4599,-2.3195,-2.0847,-1.9683,-4.3146,-4.6367,-4.8969,-4.9262,-5.1736,-5.4177,-5.4177,0.0,0.0,0.0,0.0,0.0,0.0,0.0,-6.2913,-6.7696,0.0,-7.1015,0.0,0.0,0.0,0.0,0.0,0.0,0.0,0.0,0.0,0.0,0.0,0.0,0.0,0.0,-7.7165,-7.7165,-7.7165,-7.7165,-7.7165,-7.6412,-7.5602,-7.4684,-7.3091,-7.1796,-7.0956,-6.9197,-6.8125,-6.7478,0.0,-6.435,-6.2645,-6.2126,-6.1154,-6.0062,-6.0062,-6.0062,-6.0062,-6.0062,-6.0062,-6.0062,-6.0062,-6.0062,-6.0062,-6.0062,-6.0062,-6.0062,-6.0062,-6.0062,-6.0062,-6.0062,-6.0062,-6.0062,-6.0062,-6.0062,-5.9342,-5.6598,-5.5094,-5.3697,-5.0907,-4.8048,-4.5761,-4.5035,-4.3333,-4.1892,-4.1156,-4.0825,-4.0539,-4.0228,-3.9734,-3.9189,-3.8565,-3.8254,-3.7994,-3.7795,-3.7769,-3.7769,-3.7769,-3.7179,-3.5934,-3.3862,-3.2719,-3.1572,-3.0327,-3.0327,-2.996,-2.9036,-2.9036,-2.809,-2.6232,-2.4365,-2.2961,-2.1905,-1.9919,-1.9092,-4.5049,-4.9018,-5.1315,-4.8564,-4.9101,-5.0272,-5.0272,0.0,0.0,0.0,0.0,0.0,0.0,-5.7349,-5.9204,0.0,0.0,-6.8583,0.0,0.0,0.0,0.0,0.0,0.0,0.0,0.0,0.0,0.0,0.0,0.0,0.0,-7.7165,-7.7165,-7.7165,-7.7165,-7.6915,-7.6412,-7.4943,-7.4124,-7.3815,-7.0956,-6.9473,-6.9197,-6.752,-6.6259,-6.5273,0.0,-6.3686,-6.179,-6.1565,-6.0929,-6.0062,-6.0062,-6.0062,-6.0062,-6.0062,-6.0062,-6.0062,-6.0062,-6.0062,-6.0062,-6.0062,-6.0062,-6.0062,-6.0062,-6.0062,-6.0062,-6.0062,-6.0062,-6.0062,-6.0062,-5.9797,-5.8735,-5.5211,-5.4164,-5.2995,-4.9275,-4.6606,-4.4792,-4.4671,-4.2546,-4.0903,-4.0903,-4.0435,-4.002,-3.9942,-3.9111,-3.8462,-3.8358,-3.7942,-3.7769,-3.7769,-3.7769,-3.7657,-3.7405,-3.6387,-3.5569,-3.5228,-3.3062,-3.1342,-3.0327,-3.0327,-2.9498,-2.7626,-2.7626,-2.6464,-2.4265,-2.2727,-2.1803,-2.1435,-1.9801,-1.9092,-4.3195,-4.8905,-5.403,-5.3542,-5.2956,-5.2517,-5.2517,0.0,0.0,0.0,0.0,0.0,0.0,-5.4665,0.0,0.0,0.0,0.0,-7.1162,-7.4432,-7.653,0.0,0.0,0.0,0.0,0.0,0.0,0.0,0.0,0.0,0.0,-7.7165,-7.7165,-7.7165,-7.7165,-7.5805,-7.2941,-7.263,-7.1796,-7.0322,-6.9836,-6.8876,-6.7412,-6.6107,-6.5492,0.0,0.0,0.0,-6.1678,-6.0703,-6.025,-6.0062,-6.0062,-6.0062,-6.0062,-6.0062,-6.0062,-6.0062,-6.0062,-6.0062,-6.0062,-6.0062,-6.0062,-6.0062,-6.0062,-6.0062,-6.0062,-6.0062,-6.0062,-6.0062,-6.0062,-5.8849,-5.7094,-5.4978,-5.3112,-5.1025,-4.7808,-4.6003,-4.455,-4.3455,-4.1737,-4.0305,-4.0305,-3.9838,-3.9293,-3.8825,-3.8591,-3.8306,-3.7838,-3.7821,-3.7769,-3.7769,-3.7769,-3.7292,-3.6161,-3.5909,-3.4887,-3.2719,-3.1342,-3.0557,-3.0327,-3.0327,-2.9498,-2.7626,-2.7626,-2.5882,-2.2375,-2.2155,-2.1082,-1.9447,-1.921,-1.9092,-4.5586,-4.9784,-5.364,-5.3123,-5.2585,-5.2243,-5.2243,0.0,0.0,0.0,-4.9442,-4.9784,-5.2615,-5.3396,-5.5153,0.0,-6.1595,0.0,0.0,0.0,-7.409,-7.5261,0.0,0.0,0.0,0.0,0.0,0.0,0.0,0.0,0.0,-7.7165,-7.6763,-7.5805,-7.5805,-7.4637,-7.2168,-7.1166,-7.0322,-6.958,-6.8017,-6.6828,-6.6066,-6.4901,-6.4018,0.0,0.0,0.0,-6.0816,-6.025,-6.0062,-6.0062,-6.0062,-6.0062,-6.0062,-6.0062,-6.0062,-6.0062,-6.0062,-6.0062,-6.0062,-6.0062,-6.0062,-6.0062,-6.0062,-6.0062,-6.0062,-6.0062,-6.0062,-6.0062,-6.0062,-5.8621,-5.6713,-5.4862,-5.2878,-5.0574,-4.7116,-4.5388,-4.3957,-4.2308,-4.0726,-3.9734,-3.9734,-3.9241,-3.8799,-3.854,-3.8228,-3.7942,-3.7795,-3.7769,-3.7769,-3.7769,-3.7066,-3.6387,-3.5796,-3.4546,-3.3062,-3.1227,-3.0673,-3.0327,-3.0327,-2.9382,-2.8437,-2.7626,-2.5649,-2.3195,-2.0376,-2.0376,-1.9919,-1.9092,-1.8383,-1.8028,-4.993,0.0,-5.4051,-5.3221,-5.3025,-5.2879,0.0,-5.0711,-4.9686,0.0,-4.9735,-4.9589,-5.2908,-5.2634,-5.3905,-6.0082,-6.0863,-6.2523,-6.7901,0.0,0.0,-7.3553,0.0,0.0,0.0,0.0,0.0,0.0,0.0,0.0,0.0,-7.6561,-7.5805,-7.4124,-7.3402,-7.2109,-7.0172,-6.8833,-6.8189,-6.8189,-6.5956,-6.4901,-6.486,-6.3646,0.0,0.0,0.0,0.0,-6.0062,-6.0062,-6.0062,-6.0062,-6.0062,-6.0062,-6.0062,-6.0062,-6.0062,-6.0062,-6.0062,-6.0062,-6.0062,-6.0062,-6.0062,-6.0062,-6.0062,-6.0062,-6.0062,-6.0062,-6.0062,-6.0062,-6.0062,-5.8278,-5.6136,-5.4746,-5.2275,-4.9342,-4.6253,-4.4481,-4.2926,-4.1045,-3.9802,-3.9137,-3.9137,-3.8669,-3.828,-3.828,-3.7916,-3.7769,-3.7769,-3.7405,-3.7292,-3.7292,-3.6161,-3.5228,-3.4887,-3.2948,-3.1227,-3.0442,-3.0327,-3.0096,-2.9729,-2.8321,-2.7394,-2.6929,-2.3664,-2.1215,-1.9683,-1.9329,-1.8856,-1.862,-1.7555,-1.6974,0.0,-5.7398,-5.7544,-5.7447,-5.7447,-5.691,-5.486,-5.3542,0.0,-5.0272,-4.9735,-4.9735,-5.0028,-5.1639,-5.3737,-5.6202,-5.8325,0.0,0.0,-6.7608,0.0,0.0,0.0,0.0,0.0,0.0,0.0,0.0,0.0,0.0,0.0,-7.4786,-7.4021,-7.2318,-6.9748,-6.7002,-6.4199,-6.4089,-6.3978,-6.3978,-6.3757,-6.3646,-6.3646,-6.2462,0.0,0.0,0.0,0.0,0.0,-6.0062,-6.0062,-6.0062,-6.0062,-6.0062,-6.0062,-6.0062,-6.0062,-6.0062,-6.0062,-6.0062,-6.0062,-6.0062,-6.0062,-6.0062,-6.0062,-6.0062,-6.0062,-6.0062,-6.0062,-6.0062,-6.0062,-5.7324,-5.463,-5.4513,-5.0359,-4.6075,-4.4597,-4.2724,-4.1018,-3.9698,-3.8903,-3.854,-3.854,-3.8072,-3.7821,-3.7821,-3.7682,-3.7769,-3.7769,-3.6614,-3.5909,-3.5909,-3.4887,-3.3634,-3.249,-3.1227,-3.0442,-3.0327,-3.0327,-2.9614,-2.7858,-2.7742,-2.6697,-2.4949,-2.2961,-2.1905,-2.1788,-1.9919,-1.8383,-1.7212,-1.7093,-1.6489,-5.8325,-5.8911,-5.8764,-5.8081,-5.8423,-5.813,-5.5299,-5.3786,-5.2419,-5.0223,-4.9247,-4.9003,-4.9637,-5.107,-5.366,-5.8423,-5.9887,0.0,0.0,0.0,0.0,-7.0777,0.0,0.0,0.0,0.0,0.0,0.0,0.0,0.0,0.0,-7.4124,-7.2526,-6.7974,-6.6828,-6.5409,-6.3535,-6.3535,-6.3535,-6.3535,-6.2757,-6.2462,-6.2462,-6.1228,0.0,0.0,0.0,0.0,0.0,-6.0062,-6.0062,-6.0062,-6.0062,-6.0062,-6.0062,-6.0062,-6.0062,-6.0062,-6.0062,-6.0062,-6.0062,-6.0062,-6.0062,-6.0062,-6.0062,-6.0062,-6.0062,-6.0062,-6.0062,-5.991,-5.934,-5.739,-5.4941,-5.3314,-4.99,-4.6283,-4.3472,-4.1716,-4.0199,-3.8588,-3.8098,-3.7968,-3.7968,-3.79,-3.7769,-3.7769,-3.7769,-3.7431,-3.6614,-3.6022,-3.5455,-3.4773,-3.3519,-3.226,-3.1112,-3.0557,-3.0327,-3.0327,-2.9267,-2.8321,-2.7626,-2.5299,-2.3781,-2.2961,-2.1082,-2.0154,-2.0154,-1.862,-1.72,-1.6014,-1.5183,-1.4579,-5.9301,-5.9253,-5.8813,-5.8081,-5.8716,-5.8667,-5.5397,-5.3786,-5.2322,-4.9784,-4.8759,-4.8403,-4.9149,-5.0826,-5.3807,-5.9155,0.0,0.0,0.0,0.0,0.0,0.0,0.0,0.0,0.0,0.0,0.0,0.0,0.0,0.0,0.0,-7.2422,-7.0322,-6.435,-6.424,-6.3686,-6.2462,-6.2462,-6.2462,-6.2462,-6.1678,-6.1267,-6.1267,-6.0477,0.0,0.0,0.0,0.0,0.0,-5.9606,-5.9796,-6.0062,-6.0062,-6.0062,-6.0062,-6.0062,-6.0062,-6.0062,-6.0062,-6.0062,-6.0062,-6.0062,-6.0062,-6.0062,-6.0062,-5.9682,-5.9302,-5.953,-5.9416,-5.9112,-5.8467,-5.6507,-5.4352,-5.256,-4.9197,-4.5666,-4.2752,-4.1048,-3.9692,-3.8047,-3.7769,-3.7769,-3.7769,-3.7769,-3.7769,-3.7769,-3.7769,-3.7292,-3.5909,-3.5455,-3.4773,-3.3519,-3.226,-3.1227,-3.0442,-3.0327,-3.0096,-2.9498,-2.8321,-2.7045,-2.5882,-2.3312,-2.167,-2.1082,-1.9683,-1.8856,-1.8383,-1.7567,-1.6489,-1.5302,-1.3985,-1.3152,-5.8911,-5.8716,-5.7935,-5.7935,-5.8716,-5.8667,0.0,0.0,-5.2127,-4.8842,-4.8208,-4.8208,-4.8208,-5.0906,-5.4128,0.0,0.0,0.0,-6.8193,-6.8973,0.0,0.0,0.0,0.0,0.0,0.0,0.0,0.0,0.0,0.0,0.0,-6.9473,-6.7068,-6.2014,-6.179,-6.1228,-6.0062,-6.0062,-6.0062,-6.0062,-6.0062,-6.0062,-6.0024,-6.0024,-5.953,0.0,0.0,0.0,0.0,-5.8695,-5.9226,-6.0024,-6.0024,-6.0024,-6.0024,-6.0024,-6.0024,-6.0024,-6.0024,-6.0024,-6.0024,-6.0024,-6.0024,-6.0024,-6.0024,-5.8847,-5.7632,-5.8467,-5.8087,-5.7589,-5.7589,-5.4782,-5.2087,-5.2087,-4.7942,-4.3541,-4.2438,-4.0714,-3.9066,-3.7995,-3.7769,-3.7769,-3.7769,-3.7769,-3.7769,-3.7769,-3.7657,-3.7179,-3.5934,-3.466,-3.3519,-3.2146,-3.0997,-3.0327,-3.0327,-3.0327,-2.9498,-2.7742,-2.7626,-2.5864,-2.214,-2.1905,-2.0965,-1.9092,-1.8974,-1.8383,-1.7093,-1.7093,-1.6489,-1.5302,-1.3985,-1.2685,-5.8228,-5.813,-5.7935,-5.7935,-5.8716,-5.8667,0.0,0.0,-5.2322,-4.9833,-4.8695,-4.871,-5.0288,-5.2517,-5.525,0.0,0.0,-6.2376,-6.6281,-6.8047,-6.8855,0.0,0.0,0.0,0.0,0.0,0.0,0.0,0.0,0.0,0.0,-6.3942,-6.268,-6.0962,-6.089,-6.0647,-6.0024,-6.0062,-6.0062,-6.0062,-6.0062,-5.972,-5.9112,-5.9112,-5.8619,-5.786,0.0,0.0,0.0,-5.786,-5.8011,-5.8239,-5.8239,-5.8239,-5.8315,-5.8885,-5.8733,-5.8315,-5.8885,-5.8733,-5.8239,-5.8239,-5.8239,-5.8239,-5.8239,-5.7898,-5.7518,-5.7784,-5.767,-5.7589,-5.7589,-5.5401,-5.2393,-4.9443,-4.6193,-4.342,-4.1891,-3.9763,-3.8081,-3.7743,-3.7769,-3.7769,-3.7769,-3.7769,-3.7769,-3.7769,-3.6953,-3.5909,-3.466,-3.3405,-3.2146,-3.0997,-3.0557,-3.0327,-3.0327,-3.0327,-2.9498,-2.7742,-2.6348,-2.4482,-2.2022,-2.0626,-1.921,-1.7673,-1.7673,-1.7081,-1.5895,-1.4945,-1.4341,-1.3985,-1.2685,-1.1859,-5.7105,-5.7593,-5.7935,-5.7935,-5.8374,-5.8228,-5.5836,0.0,-5.2517,-5.076,-4.993,-5.0028,-5.1803,-5.3835,-5.6324,0.0,0.0,0.0,-6.55,0.0,-6.7846,0.0,0.0,0.0,0.0,0.0,0.0,0.0,0.0,0.0,-6.009,-5.9717,-5.9551,-5.9297,-5.9336,-5.9239,-5.9037,-5.9037,-5.9037,-5.9037,-5.934,-5.9037,-5.8239,-5.8923,-5.8429,-5.6986,-5.7328,0.0,0.0,-5.6986,-5.7176,-5.7589,-5.7589,-5.7589,-5.7627,-5.8049,-5.7898,-5.7556,-5.8049,-5.7898,-5.7589,-5.7589,-5.7132,-5.6569,-5.6873,-5.6759,-5.6569,-5.6873,-5.6759,-5.6386,-5.5744,-5.4372,-5.2152,-4.8124,-4.5314,-4.3041,-4.1492,-3.9738,-3.8306,-3.7769,-3.7769,-3.7769,-3.7769,-3.7769,-3.7544,-3.6953,-3.6274,-3.5115,-3.3405,-3.2604,-3.1572,-3.0442,-3.0327,-3.0075,-2.9267,-2.9267,-2.809,-2.5533,-2.4249,-2.2492,-2.0154,-1.8856,-1.7673,-1.6489,-1.637,-1.5777,-1.4579,-1.3747,-1.3152,-1.2566,-1.1859,-1.1501,-5.5861,-5.7056,-5.7935,-5.7935,-5.7935,-5.7593,-5.6397,0.0,0.0,-5.1852,-5.1657,-5.195,-5.2927,-5.4957,0.0,0.0,0.0,-6.3499,0.0,-6.6319,-6.6607,0.0,0.0,0.0,0.0,0.0,0.0,0.0,0.0,0.0,-5.6219,-5.6835,-5.7398,-5.7366,-5.7474,-5.7512,-5.7589,-5.7589,-5.7589,-5.748,-5.8239,-5.8163,-5.7404,-5.8999,-5.8391,-5.6151,-5.691,0.0,0.0,-5.6113,-5.6569,-5.7252,-5.7252,-5.7252,-5.7252,-5.7328,-5.7328,-5.736,-5.7328,-5.7328,-5.7252,-5.7252,-5.6227,-5.5126,-5.5885,-5.5582,-5.5164,-5.5885,-5.5582,-5.4558,-5.2884,-5.2357,-5.137,-4.7916,-4.4799,-4.2297,-4.127,-4.0185,-3.8981,-3.7969,-3.7769,-3.7769,-3.7769,-3.7657,-3.7066,-3.5909,-3.5569,-3.466,-3.2375,-3.2031,-3.1457,-3.0211,-3.0096,-2.9382,-2.751,-2.7278,-2.5766,-2.2022,-2.1788,-2.0376,-1.7093,-1.6974,-1.637,-1.5183,-1.5162,-1.4559,-1.3244,-1.3244,-1.265,-1.1453,-1.1469,-1.135,-5.5715,-5.7056,-5.7935,-5.7935,-5.7935,-5.7593,-5.6397,-5.525,0.0,0.0,-5.2781,-5.283,-5.3074,0.0,-5.898,0.0,-6.2132,-6.4377,0.0,0.0,0.0,0.0,0.0,0.0,0.0,0.0,0.0,0.0,0.0,0.0,-5.5344,-5.543,-5.5809,-5.6455,-5.6493,-5.6797,-5.7589,-5.7589,-5.7589,-5.7589,-5.767,-5.729,-5.6493,-5.6873,-5.6379,-5.5278,-5.543,0.0,0.0,-5.5278,-5.5354,-5.5544,-5.5544,-5.5544,-5.562,-5.6227,-5.6075,-5.562,-5.6265,-5.6075,-5.5544,-5.5544,-5.5278,-5.505,-5.5202,-5.5126,-5.505,-5.5202,-5.5126,-5.4558,-5.2884,-5.1512,-4.9702,-4.6619,-4.2901,-4.0185,-3.985,-3.8868,-3.7969,-3.7769,-3.7769,-3.7769,-3.7769,-3.684,-3.6161,-3.5796,-3.409,-3.2719,-3.2146,-3.1227,-3.0075,-2.8321,-2.8205,-2.7394,-2.5533,-2.5299,-2.3898,-2.0597,-2.048,-1.9066,-1.5895,-1.5777,-1.5183,-1.3866,-1.3712,-1.3051,-1.1763,-1.1763,-1.1456,-1.0973,-1.1231,-1.0516,-5.4311,-5.5878,-5.7357,-5.7811,-5.7935,-5.7739,-5.7154,0.0,0.0,0.0,-5.5006,-5.5397,-5.5397,-5.8032,0.0,-6.0912,0.0,0.0,0.0,0.0,0.0,0.0,0.0,0.0,0.0,0.0,0.0,0.0,0.0,-5.5596,-5.4974,-5.5012,-5.5202,-5.562,-5.562,-5.5847,-5.6265,-5.6303,-5.6303,-5.6303,-5.6683,-5.6455,-5.5658,-5.6455,-5.6151,-5.5012,-5.5392,0.0,-5.5012,-5.5012,-5.5012,-5.5012,-5.5012,-5.5012,-5.505,-5.5468,-5.5354,-5.505,-5.5468,-5.5354,-5.5012,-5.5012,-5.5012,-5.5012,-5.5012,-5.5012,-5.4804,-5.4037,-5.3828,-5.3199,-5.0627,-4.8918,-4.7193,-4.4799,-4.2268,-4.0185,-3.9626,-3.8531,-3.7769,-3.7769,-3.7769,-3.7518,-3.684,-3.6274,-3.5342,-3.4204,-3.2948,-3.1916,-3.1342,-2.996,-2.8669,-2.7742,-2.6813,-2.5183,-2.2711,-2.2476,-2.1068,-1.8004,-1.7644,-1.6635,-1.4428,-1.421,-1.3569,-1.2171,-1.2077,-1.1803,-1.1112,-1.1112,-1.0605,-0.9716,-0.98,-0.8874,-5.1978,-5.3844,-5.5929,-5.7034,-5.7082,-5.7006,-5.7735,-5.766,0.0,0.0,-5.7398,-5.813,-5.7935,-5.9789,-6.1693,-6.2962,0.0,0.0,0.0,0.0,-6.1103,0.0,0.0,0.0,0.0,0.0,0.0,0.0,0.0,-5.5012,-5.5012,-5.5012,-5.5012,-5.5012,-5.5012,-5.5012,-5.5012,-5.5012,-5.5012,-5.5012,-5.5696,-5.5658,-5.505,-5.6417,-5.6303,-5.505,-5.5696,0.0,-5.5012,-5.5012,-5.5012,-5.5012,-5.5012,-5.5012,-5.5012,-5.5012,-5.5012,-5.5012,-5.5012,-5.5012,-5.5012,-5.5012,-5.5012,-5.5012,-5.5012,-5.5012,-5.4662,-5.3304,-5.2674,-5.1688,-4.8239,-4.6402,-4.4986,-4.285,-4.1632,-4.0603,-3.9402,-3.8419,-3.7769,-3.7769,-3.7544,-3.7066,-3.5909,-3.5455,-3.4432,-3.2375,-3.1916,-3.1457,-3.0442,-2.8457,-2.6929,-2.6697,-2.4949,-2.2711,-1.9773,-1.9288,-1.7979,-1.512,-1.4825,-1.412,-1.2816,-1.2652,-1.1993,-1.0855,-1.0824,-1.0695,-1.0468,-1.0468,-0.9546,-0.7822,-0.7845,-0.6937,-4.9138,-5.0536,-5.2533,-5.456,-5.37,-5.3307,-5.7082,-5.6425,-5.5564,-5.7315,0.0,-5.9008,-5.8081,-6.0375,-6.306,-6.5109,0.0,-6.7624,-6.5356,-6.4704,-6.2216,-5.6119,-5.5499,-5.5214,-5.4318,-5.4698,-5.5012,-5.5012,-5.5012,-5.5012,-5.5012,-5.5012,-5.5012,-5.5012,-5.5012,-5.5012,-5.5012,-5.5012,-5.5012,-5.5012,-5.5088,-5.5088,-5.5012,-5.524,-5.5202,-5.5012,-5.5126,0.0,-5.5012,-5.5012,-5.5012,-5.5012,-5.5012,-5.5012,-5.5012,-5.5012,-5.5012,-5.5012,-5.5012,-5.5012,-5.5012,-5.5012,-5.5012,-5.5012,-5.5012,-5.5012,-5.5012,-5.4804,-5.3618,-5.1794,-4.8743,-4.6695,-4.4549,-4.0854,-3.985,-3.9402,-3.8194,-3.7856,-3.7769,-3.7769,-3.684,-3.5909,-3.582,-3.3976,-3.249,-3.2146,-3.1227,-3.0557,-3.0327,-2.7297,-2.4482,-2.2844,-2.1538,-1.9773,-1.7673,-1.6607,-1.5217,-1.3617,-1.3471,-1.2789,-1.1245,-1.1213,-1.1083,-1.0855,-1.0818,-0.9958,-0.8507,-0.8507,-0.7557,-0.5699,-0.5786,-0.4781,-4.6741,-4.8451,-5.0329,-5.1772,-5.1836,-5.2039,-5.3857,-5.403,-5.4177,-5.5705,-5.7873,0.0,0.0,0.0,0.0,0.0,0.0,0.0,-5.9882,-5.9449,-5.7958,0.0,-5.3808,0.0,-5.3886,-5.4203,-5.4519,0.0,-5.4557,-5.4519,-5.4974,-5.5012,-5.5012,-5.5012,-5.5012,-5.5012,-5.5012,-5.5012,-5.5012,-5.5012,-5.5012,-5.5012,-5.5012,-5.5012,-5.5012,-5.5012,0.0,-5.5012,-5.5012,-5.5012,-5.5012,-5.5012,-5.5012,-5.5012,-5.5012,-5.5012,-5.5012,-5.5012,-5.5012,-5.5012,-5.5012,-5.5012,-5.5012,-5.5012,-5.5012,-5.5012,-5.4558,-5.2674,-5.1618,-5.0095,-4.6185,-4.4111,-4.246,-4.0073,-3.8954,-3.8306,-3.7856,-3.7769,-3.7769,-3.7769,-3.6614,-3.5342,-3.3976,-3.2833,-3.1802,-3.1227,-2.9729,-2.8437,-2.7297,-2.4232,-2.1773,-2.095,-1.883,-1.6774,-1.5122,-1.4408,-1.349,-1.2025,-1.1791,-1.1471,-1.0826,-1.0731,-1.0683,-1.0683,-0.9606,-0.8685,-0.7918,-0.7045,-0.5594,-0.3705,-0.3733,-0.2524,-4.4363,-4.6064,-4.7902,-4.9016,-4.9546,-5.0188,-5.1238,-5.1677,-5.2312,-5.3917,-5.6262,-5.8491,0.0,0.0,0.0,-6.0917,-5.9493,0.0,-5.6075,-5.5797,0.0,-5.2253,0.0,-5.2527,-5.3138,-5.3342,0.0,0.0,-5.3797,-5.3797,-5.4633,-5.4671,-5.4784,-5.4974,-5.5012,-5.5012,-5.5012,-5.5012,-5.5012,-5.5012,-5.5012,-5.5012,-5.5012,-5.5012,-5.5012,-5.5012,-5.5012,-5.5012,-5.5012,-5.5012,-5.5012,-5.5012,-5.5012,-5.5012,-5.5012,-5.5012,-5.5012,-5.4936,-5.4519,-5.4367,-5.4367,-5.4367,-5.4367,-5.4367,-5.4367,-5.4058,-5.3196,-5.0697,-4.9224,-4.7493,-4.3653,-4.1588,-4.0267,-3.9073,-3.8201,-3.7717,-3.7449,-3.7553,-3.7605,-3.7449,-3.6513,-3.5115,-3.2948,-3.2031,-3.1227,-2.9844,-2.8437,-2.6623,-2.4113,-2.1052,-1.9075,-1.9075,-1.6518,-1.424,-1.3154,-1.2789,-1.2132,-1.0913,-1.0778,-1.0461,-0.9973,-0.9861,-0.9585,-0.915,-0.784,-0.6856,-0.6422,-0.4896,-0.3158,-0.1417,-0.109,0.0109,-4.1852,-4.2665,-4.4514,-4.6673,-4.6177,-4.6348,-5.0593,-4.9944,-4.9377,-5.2491,-5.3907,-5.487,0.0,0.0,-5.8326,-6.1416,-6.1857,-6.0905,-5.8494,-5.8104,-5.6174,0.0,0.0,0.0,0.0,0.0,0.0,-5.262,0.0,-5.2962,-5.3899,-5.3937,-5.4317,-5.4974,-5.5012,-5.5012,-5.5012,-5.5012,-5.5012,-5.5012,-5.5012,-5.5012,-5.5012,-5.5012,-5.5012,-5.5012,-5.5012,-5.5012,-5.5012,-5.5012,-5.5012,-5.5012,-5.5012,-5.5012,-5.5012,-5.5012,-5.5012,-5.4784,-5.319,-5.2658,-5.2658,-5.2658,-5.2658,-5.2658,-5.2658,-5.1623,-5.0382,-5.018,-4.7198,-4.3652,-4.2189,-4.0223,-3.8339,-3.7156,-3.7353,-3.7501,-3.6955,-3.7267,-3.7475,-3.6929,-3.6235,-3.5342,-3.409,-3.1916,-2.9844,-2.7974,-2.7626,-2.6075,-2.1734,-1.86,-1.6678,-1.6678,-1.4409,-1.293,-1.2807,-1.1669,-1.0905,-1.0731,-1.0707,-0.9855,-0.7955,-0.7943,-0.7182,-0.5552,-0.5443,-0.4573,-0.2834,-0.1632,-0.0109,0.1526,0.2725,0.3272,-4.1042,-4.1311,-4.1814,-4.368,-4.4121,-4.4724,-4.6815,-4.6683,-4.6846,-4.9419,-5.1297,-5.3245,-5.5616,-5.5427,-5.5579,-5.731,-5.5782,-5.3941,-5.3082,-5.2891,-5.2196,-5.0209,-5.0209,-5.0684,0.0,0.0,0.0,-5.1709,-5.1709,-5.2089,-5.2924,-5.2962,-5.3114,-5.338,-5.3418,-5.3645,-5.4215,-5.4215,-5.4481,-5.4974,-5.4481,-5.3911,-5.3418,-5.3418,-5.3418,-5.3418,-5.3418,-5.3418,-5.3418,-5.3418,-5.3418,-5.3418,-5.3418,-5.3418,-5.3418,-5.3418,-5.3418,-5.3304,-5.2734,-5.2506,-5.2506,-5.2506,-5.2506,-5.2209,-5.0537,-4.9597,-4.8552,-4.5663,-4.3806,-4.2067,-3.9783,-3.8599,-3.7717,-3.6554,-3.641,-3.6488,-3.628,-3.5838,-3.5342,-3.514,-3.3731,-3.2413,-3.1969,-2.963,-2.7274,-2.5452,-2.3511,-2.1277,-1.8461,-1.585,-1.4151,-1.4151,-1.2561,-1.1488,-1.1483,-1.1026,-1.0166,-0.8898,-0.8782,-0.7991,-0.6204,-0.5439,-0.4787,-0.4135,-0.2285,-0.1088,-0.0435,0.1198,0.2289,0.2834,0.3272,0.3926,-4.0092,-4.0395,-4.1004,-4.1193,-4.2294,-4.3547,-4.4298,-4.4487,-4.4946,-4.6772,-4.8512,-5.0283,-5.2378,-5.2392,-5.2315,-5.2955,-5.1285,-4.9944,-4.9944,-4.9944,-4.9944,-4.9944,-4.9944,0.0,0.0,0.0,0.0,-5.0836,-5.0874,-5.1216,-5.2051,-5.2089,-5.2241,-5.2506,-5.2506,-5.2772,-5.3342,-5.3342,-5.3645,-5.4139,-5.3607,-5.3038,-5.2506,-5.2506,-5.2506,-5.2506,-5.2506,-5.2506,-5.2506,-5.2506,-5.2506,-5.2506,-5.2506,-5.2506,-5.2506,-5.2506,-5.2165,-5.1671,-5.1671,-5.128,-5.0851,-5.0851,-5.0262,-4.9238,-4.7478,-4.6343,-4.5035,-4.2115,-4.0571,-3.9431,-3.7533,-3.6959,-3.659,-3.587,-3.5813,-3.5783,-3.5255,-3.4687,-3.409,-3.3487,-3.1961,-3.0549,-3.0001,-2.7913,-2.5812,-2.4128,-2.1562,-1.8802,-1.6055,-1.3926,-1.2585,-1.2585,-1.1466,-1.0524,-0.9745,-0.973,-0.8918,-0.7079,-0.6526,-0.5548,-0.3808,-0.2612,-0.1741,-0.1197,0.0762,0.1741,0.1741,0.3269,0.4035,0.4144,0.4471,0.5125,0.0,0.0,-4.1838,-3.937,-4.0623,-4.2711,-4.3509,-4.3736,-4.3964,-4.4677,-4.5597,-4.6204,-4.6242,-4.7571,-4.8764,-4.8802,-4.9431,-4.9906,-4.9944,-4.9944,-4.9944,-4.9944,-4.9944,-4.9944,0.0,-4.9944,-4.9944,-4.9944,-4.9944,-5.038,-5.1216,-5.1254,-5.1633,-5.2431,-5.2431,-5.2431,-5.2468,-5.2468,-5.2506,-5.2506,-5.2506,-5.2468,-5.2468,-5.2431,-5.2431,-5.2431,-5.2431,-5.2431,-5.2431,-5.2431,-5.2431,-5.2431,-5.2431,-5.2431,-5.2431,-5.2331,-5.1211,-4.9755,-4.9755,-4.8768,-4.7489,-4.7489,-4.578,-4.3705,-4.3607,-4.1771,-3.9815,-3.9715,-3.7808,-3.5708,-3.5708,-3.5343,-3.4954,-3.4954,-3.5369,-3.5413,-3.3765,-3.3719,-3.3619,-3.1936,-3.1059,-2.9958,-2.8402,-2.7081,-2.5664,-2.3982,-2.1994,-1.9096,-1.4501,-1.2935,-1.2169,-1.2178,-1.1104,-0.9693,-0.7834,-0.7617,-0.6965,-0.5226,-0.4026,-0.2503,-0.0761,0.0435,0.185,0.349,0.3599,0.3599,0.3599,0.4798,0.5347,0.5347,0.6432,0.6976,-3.9331,0.0,0.0,-3.9636,-4.0623,-4.1607,-4.1835,-4.2901,-4.3812,-4.404,-4.4677,-4.5521,-4.6128,-4.6622,-4.7343,-4.8612,-4.8938,-4.9317,-4.983,-4.9944,-4.9944,-4.9944,-4.9944,-4.9944,-4.9944,-4.9944,-4.9944,-4.9944,-4.9944,-5.0058,-5.038,-5.0285,-5.0399,-5.0626,-5.0626,-5.0988,-5.1633,-5.1633,-5.1937,-5.2506,-5.1899,-5.1633,-5.1595,-5.0988,-5.0626,-5.0626,-5.0626,-5.0626,-5.0626,-5.0626,-5.0626,-5.0626,-5.0626,-5.0626,-5.053,-4.9338,-4.7463,-4.549,-4.549,-4.4679,-4.3671,-4.3671,-4.3182,-4.22,-4.0222,-3.9155,-3.8182,-3.6291,-3.5199,-3.4688,-3.4688,-3.4512,-3.4436,-3.4436,-3.3918,-3.3266,-3.278,-3.1626,-3.0436,-2.9985,-2.8154,-2.643,-2.6003,-2.3539,-2.126,-1.9963,-1.7576,-1.5134,-1.3053,-1.2502,-1.1412,-0.9245,-0.8702,-0.7834,-0.6096,-0.5113,-0.3917,-0.2177,-0.087,0.0544,0.2287,0.3487,0.4253,0.4798,0.556,0.5992,0.5992,0.6323,0.654,0.654,0.6867,0.6976,-3.857,0.0,0.0,0.0,-3.8004,-3.9031,-4.0812,-4.138,-4.1952,-4.3015,-4.3888,-4.4525,-4.5103,-4.5787,-4.6546,0.0,-4.7989,-4.8482,-4.9355,-4.9469,-4.9621,-4.9906,-4.9944,-4.9944,-4.9944,-4.9944,-4.9944,-4.9944,-4.9944,-4.9944,-4.9944,-4.9944,-4.9944,-4.9944,-4.9944,-5.0171,-5.076,-5.076,-5.0988,-5.1384,-5.0988,-5.076,-5.076,-5.0171,-4.9944,-4.9944,-4.9944,-4.9944,-4.9944,-4.9944,-4.9944,-4.9944,-4.9944,-4.9528,-4.8672,-4.6263,-4.4388,-4.3117,-4.3117,-4.22,-4.1245,-4.1245,-4.0421,-3.9255,-3.7578,-3.677,-3.6162,-3.4688,-3.4177,-3.4177,-3.4177,-3.4177,-3.4074,-3.333,-3.2842,-3.2096,-3.0982,-2.932,-2.7962,-2.7543,-2.5547,-2.3751,-2.3009,-2.0776,-1.841,-1.605,-1.4328,-1.2827,-1.1637,-1.087,-0.9679,-0.7943,-0.7182,-0.5765,-0.3591,-0.2394,-0.098,0.0871,0.2069,0.3158,0.4144,0.5343,0.5996,0.5996,0.6649,0.7302,0.8064,0.8064,0.8492,0.9143,0.9143,0.9143,-3.6051,0.0,0.0,-3.3865,-3.4207,-3.584,0.0,0.0,-3.9067,-4.1383,-4.2635,-4.3357,-4.3471,-4.4837,-4.6014,-4.6204,-4.685,-4.7609,-4.8574,-4.8764,-4.9014,-4.9679,-4.9793,-4.983,-4.9944,-4.9944,-4.9944,-4.9944,-4.9944,-4.9944,-4.9944,-4.9944,-4.9944,-4.9944,-4.9944,-4.9944,-4.9944,-4.9944,-4.9944,-4.9944,-4.9944,-4.9944,-4.9944,-4.9755,-4.9717,-4.9944,-4.9565,-4.9622,-4.9944,-4.9622,-4.9433,-4.9338,-4.9148,-4.8159,-4.6395,-4.3084,-4.1708,-4.151,-4.151,-4.0451,-3.9215,-3.9215,-3.7606,-3.5606,-3.5606,-3.4995,-3.4177,-3.4177,-3.4177,-3.4177,-3.4177,-3.4074,-3.3664,-3.2096,-3.1889,-3.1397,-2.8798,-2.7313,-2.6158,-2.5038,-2.3327,-2.1521,-1.9922,-1.8639,-1.648,-1.2817,-1.2178,-1.1637,-1.0345,-0.8818,-0.7617,-0.7291,-0.5765,-0.3591,-0.087,0.0544,0.196,0.3599,0.4798,0.5456,0.5456,0.6432,0.7085,0.7302,0.7302,0.8166,0.9802,0.9802,1.0662,1.2286,1.2286,1.2502,0.0,0.0,0.0,0.0,0.0,0.0,0.0,0.0,-3.6795,-3.7288,-3.9181,-4.0927,-4.157,-4.3129,-4.4686,-4.6014,-4.6394,-4.6774,-4.7609,-4.8292,-4.8878,-4.9068,-4.8976,-4.9241,-4.9868,-4.9944,-4.9944,-4.9944,-4.9944,-4.9944,-4.9944,-4.9944,-4.9944,-4.9944,-4.9944,-4.9944,-4.9944,-4.9944,-4.9944,-4.9944,-4.9944,-4.9944,-4.9944,-4.8672,-4.8768,-4.9849,-4.7297,-4.7585,-4.9849,-4.7644,-4.636,-4.5456,-4.4159,-4.2725,-4.1276,-4.0582,-3.8884,-3.7,-3.7,-3.6291,-3.5274,-3.5274,-3.4995,-3.4484,-3.4484,-3.4381,-3.4177,-3.4177,-3.4177,-3.4177,-3.4177,-3.3561,-3.2714,-3.2405,-3.0982,-2.932,-2.7418,-2.6178,-2.4914,-2.3327,-2.0882,-1.8945,-1.8624,-1.648,-1.422,-1.2493,-1.1429,-1.0236,-0.8492,-0.7943,-0.6851,-0.457,-0.2721,-0.1088,0.0326,0.2832,0.458,0.4907,0.5996,0.6649,0.6649,0.6867,0.7623,0.9042,0.9042,0.9903,1.1745,1.1745,1.1853,1.2286,1.2286,1.3691,0.0,0.0,0.0,0.0,0.0,0.0,0.0,0.0,0.0,0.0,0.0,-3.789,0.0,0.0,-4.2939,-4.4192,-4.5065,-4.59,-4.6736,-4.7229,-4.7008,-4.5525,-4.5798,-4.6658,-4.8158,-4.7573,-4.7625,-4.8731,-4.81,-4.7967,-4.8768,-4.8768,-4.9148,-4.9944,-4.8731,-4.8254,-4.8768,-4.7453,-4.7069,-4.7585,-4.7069,-4.6877,-4.678,-4.549,-4.5359,-4.5939,-4.4388,-4.4582,-4.5939,-4.4645,-4.3769,-4.2921,-3.89,-3.683,-3.617,-3.617,-3.5281,-3.417,-3.4463,-3.4266,-3.3914,-3.4099,-3.4177,-3.4177,-3.4177,-3.4177,-3.4074,-3.3125,-3.2919,-3.2714,-3.1889,-3.1476,-3.0855,-2.9171,-2.8359,-2.7208,-2.4684,-2.3221,-2.2053,-2.0653,-1.8517,-1.6707,-1.6265,-1.4015,-1.1745,-1.022,-0.9469,-0.8492,-0.6748,-0.5222,-0.3794,-0.2367,-0.0108,0.172,0.2795,0.4306,0.5406,0.61,0.752,0.8281,0.8281,0.9143,1.0011,1.0879,1.0879,1.1745,1.3465,1.3465,1.3896,1.477,1.5809,1.7049,0.0,0.0,0.0,0.0,0.0,0.0,0.0,0.0,0.0,0.0,0.0,0.0,0.0,0.0,0.0,-4.1162,-4.3135,-4.4819,-4.4943,-4.4757,-4.3659,-4.1498,-4.2185,-4.3493,-4.5286,-4.4422,-4.4606,-4.6377,-4.5213,-4.5089,-4.6567,-4.6613,0.0,-4.8445,-4.6456,-4.5746,-4.6588,-4.4485,-4.3802,-4.4748,0.0,0.0,-4.3411,-4.2299,-4.1905,-4.2168,-4.151,-4.1609,-4.2168,-4.1609,-4.1317,-4.0672,-3.4786,-3.2463,-3.2463,-3.2463,-3.2463,-3.254,-3.3107,-3.3263,-3.3341,-3.3709,-3.3839,-3.3839,-3.3839,-3.3636,0.0,-3.1574,-3.0929,-3.0382,-2.8808,-2.8689,-2.8254,-2.5508,-2.5422,-2.5,-2.1947,-2.0349,-1.9174,-1.7982,-1.617,-1.4662,-1.3799,-1.1646,-0.9245,-0.7258,-0.7166,-0.6521,-0.4332,-0.2172,-0.0541,0.0107,0.2349,0.4166,0.534,0.5612,0.6164,0.74,0.8952,0.9745,0.9715,1.1088,1.2043,1.2361,1.2361,1.3397,1.562,1.562,1.6348,1.79,1.8615,1.9016,0.0,0.0,0.0,0.0,0.0,0.0,0.0,0.0,0.0,0.0,0.0,0.0,0.0,0.0,0.0,0.0,-4.0649,-4.3056,-4.0856,-3.92,-3.8278,-3.8639,-4.002,-4.1025,-4.1076,-4.1701,-4.2232,-4.2393,-4.1961,-4.2132,-4.3217,0.0,0.0,0.0,0.0,-4.2692,-4.279,-4.2496,-4.2365,-4.2496,-4.2397,-4.2397,-4.2299,-4.078,-4.0849,-4.1971,-3.9215,-3.9585,-4.2003,-3.9685,-3.836,-3.7546,-3.3869,-3.2463,-3.2463,-3.2463,-3.2463,-3.2488,-3.254,0.0,0.0,-3.2644,-3.267,-3.267,-3.267,-3.1787,-3.0483,-2.9447,-2.8272,-2.7078,-2.6014,-2.5301,-2.4665,-2.4349,-2.3627,-2.2478,-2.0456,-1.9174,-1.7982,-1.617,-1.4123,-1.261,-1.2502,-1.0004,-0.7144,-0.4586,-0.4959,-0.4221,-0.0426,-0.0431,0.0544,0.4131,0.0,0.0,0.6629,0.75,0.8389,0.9231,1.0216,1.0679,1.0405,1.0593,1.1391,1.2878,1.2976,1.4807,1.8531,1.8531,1.9028,1.9808,1.6092,1.5418,0.0,0.0,0.0,0.0,0.0,0.0,0.0,0.0,0.0,0.0,0.0,0.0,0.0,0.0,0.0,0.0,-3.6006,-3.7265,-3.4205,-3.4659,-3.5163,-3.4724,-3.5508,-3.6628,-3.7824,-3.7802,-3.8204,-3.9516,-3.86,-3.8689,-3.9992,-3.9863,-4.0212,-4.1137,-3.9635,-3.9153,-3.9828,-3.8216,-3.776,-3.844,-3.776,-3.7438,-3.7438,-3.6099,-3.5903,0.0,-3.5144,-3.5341,-3.6462,-3.5341,-3.4711,0.0,0.0,0.0,0.0,0.0,-2.8892,-2.8939,-2.9249,-2.9442,-2.9489,-2.9801,-2.9896,-2.9896,-2.9896,-2.9011,-2.7827,-2.6319,-2.5145,-2.3892,-2.2472,-2.2187,-2.195,-2.1129,-2.0355,-1.9243,-1.7634,-1.6492,-1.5405,-1.3907,-1.2935,0.0,-0.8696,-0.7182,-0.5318,-0.2478,-0.2383,-0.1411,0.1941,0.2602,0.3366,0.4951,0.5695,0.6763,0.8262,0.8733,0.0,0.0,0.0,1.2065,1.2902,1.3005,0.0,0.0,0.0,0.0,0.0,0.0,0.0,0.0,1.707,1.6475,0.0,0.0,0.0,0.0,0.0,0.0,0.0,0.0,0.0,0.0,0.0,0.0,0.0,0.0,0.0,0.0,0.0,-3.2266,-2.8407,-3.0212,-3.1589,-3.0641,-3.1483,-3.2628,-3.368,-3.3807,-3.4489,-3.6103,-3.529,-3.5204,-3.6665,-3.6623,-3.7092,-3.8198,-3.633,-3.569,-3.655,-3.4566,-3.4041,-3.4814,-3.4041,-3.3627,-3.353,-3.2851,-3.2463,-3.2463,-3.2463,-3.2463,-3.2365,-3.1976,-3.1802,-3.1185,-2.735,-2.5591,-2.5195,-2.5195,-2.5195,-2.526,-2.57,-2.5903,-2.5968,-2.6317,-2.6426,-2.6448,-2.6579,-2.5728,-2.4504,-2.3051,-2.1891,-2.068,-1.9205,-1.8948,-1.8968,-1.7884,-1.7096,-1.6212,-1.517,-1.409,-1.3061,-1.1656,-1.0862,-0.9018,-0.4754,-0.4001,-0.2918,0.0324,0.0543,0.0,0.4007,0.4892,0.5535,0.6217,0.7062,0.823,0.9935,1.033,1.1204,1.2797,1.3194,1.3887,1.5299,1.503,1.5791,1.7836,1.6467,1.6101,0.0,0.0,0.0,0.0,0.0,0.0,0.0,0.0,0.0,0.0,0.0,0.0,0.0,0.0,0.0,0.0,0.0,0.0,0.0,0.0,0.0,0.0,0.0,0.0,-2.4768,-2.5579,-2.6673,-2.6593,-2.8997,-2.9785,-2.7828,-2.9936,-3.1402,-3.1491,-3.1684,-3.2226,-3.3143,-3.2824,-3.2657,-3.2754,-3.2657,-3.256,-3.2657,-3.256,-3.2463,-3.256,-3.2463,-3.2463,-3.2463,-3.2463,-3.2463,-3.2463,-3.2463,-3.2463,-3.2365,-3.1024,-3.0022,-2.9011,-2.4307,-2.2488,-2.2488,-2.2488,-2.2488,-2.2488,-2.2508,-2.2508,-2.2508,-2.2528,-2.2528,-2.2608,-2.2868,-2.1882,-2.0584,-1.9836,-1.8766,-1.7562,-1.6484,-1.5679,-1.5155,-1.5052,-1.4245,-1.3549,-1.3447,-1.2691,-1.1459,-0.9753,-0.7327,-0.4475,-0.1484,-0.0957,0.0425,0.4256,0.3992,0.0,0.6391,0.5829,0.6323,0.9143,0.9469,1.022,1.1952,1.285,1.3678,1.4606,1.5548,1.6262,1.6812,1.5751,1.5578,1.6391,1.7303,1.8012,1.8393,0.0,0.0,0.0,0.0,0.0,0.0,0.0,0.0,0.0,0.0,0.0,0.0,0.0,0.0,0.0,0.0,0.0,0.0,0.0,0.0,0.0,0.0,0.0,0.0,0.0,-2.5582,-2.4712,-2.6462,-2.7092,-2.5144,-2.7217,-2.8736,-2.8736,-2.9557,-3.0123,-3.0481,-3.0306,-3.0229,-3.0229,-2.9387,-2.8841,-2.8841,-2.8265,-2.7992,-2.7992,-2.8228,-2.8369,-2.8369,-2.8369,-2.7898,-2.7082,-2.7082,-2.6528,-2.5752,-2.5292,-2.4287,-2.2928,-2.0394,-1.944,-1.944,-1.944,-1.944,-1.944,-1.944,-1.944,-1.944,-1.944,-1.944,-1.9367,-1.9506,-1.8721,-1.7719,-1.7687,-1.6827,-1.5807,-1.4938,-1.456,-1.4175,-1.3749,-1.207,-1.0488,-1.071,-0.9023,-0.7298,-0.6773,-0.3905,-0.1107,0.0,0.1113,0.2467,0.4215,0.4485,0.4965,0.6578,0.7472,0.8389,0.9462,1.0553,1.2015,1.3483,1.3881,1.46,1.5837,1.6202,1.6442,1.6627,1.6975,1.7095,1.7265,1.8884,1.8371,1.5753,0.0,0.0,0.0,0.0,0.0,0.0,0.0,0.0,0.0,0.0,0.0,0.0,0.0,0.0,0.0,0.0,0.0,0.0,0.0,0.0,0.0,0.0,0.0,0.0,0.0,0.0,-2.3853,-2.4686,0.0,-2.3034,-2.4309,-2.5296,-2.5498,-2.6279,-2.6979,-2.7412,-2.7351,-2.744,-2.7725,-2.6761,-2.6321,-2.6321,-2.5757,-2.5466,-2.5466,-2.5323,-2.5384,-2.5292,-2.4995,-2.4365,-2.3616,-2.3616,-2.3159,-2.2229,-2.017,-1.8586,-1.7412,-1.6474,-1.6077,-1.5895,-1.6051,-1.6126,-1.6171,-1.6397,-1.6399,-1.6399,-1.6399,-1.6069,-1.5654,-1.5806,-1.5028,-1.4133,-1.4666,-1.4183,-1.3523,-1.3318,-1.2935,-1.2322,-1.1579,-0.9764,-0.8133,-0.7772,-0.6079,-0.4148,-0.2616,-0.03,0.1471,0.1946,0.2867,0.3794,0.4758,0.5125,0.5857,0.7327,0.8516,0.9715,1.0991,1.2168,1.3484,1.5017,1.5109,1.5556,1.6495,1.6482,1.6442,1.635,1.7346,1.7885,1.7655,1.8616,1.7946,0.0,0.0,0.0,0.0,0.0,0.0,0.0,0.0,0.0,0.0,0.0,0.0,0.0,0.0,0.0,0.0,0.0,0.0,0.0,0.0,0.0,0.0,0.0,0.0,0.0,0.0,0.0,-2.3457,-2.3099,0.0,0.0,0.0,0.0,-2.1758,-2.2089,-2.2777,-2.3865,-2.3664,-2.3974,-2.4773,-2.4708,-2.4752,-2.4731,-2.4665,-2.4687,-2.4687,-2.3823,-2.3378,-2.3378,-2.2557,-2.2071,-2.2051,-2.2051,-2.1962,-2.1509,-1.5919,-1.3379,-1.2881,-1.2842,-1.2501,-1.2157,-1.2645,-1.2855,-1.292,-1.3452,-1.3575,-1.3549,-1.3536,-1.2556,-1.1466,-1.1936,-1.0994,0.0,0.0,-1.0842,-1.0706,-1.1555,-1.0684,-0.9359,-0.8413,-0.7313,-0.6213,-0.4771,-0.3811,-0.2038,0.0,0.3071,0.3425,0.4109,0.0,0.4743,0.5906,0.6143,0.6821,0.8763,0.9068,1.0419,1.3619,1.4029,1.4746,1.6367,1.6468,1.6455,1.6442,1.6442,1.6424,1.6159,1.7166,1.7639,1.7528,1.6906,0.0,0.0,0.0,0.0,0.0,0.0,0.0,0.0,0.0,0.0,0.0,0.0,0.0,0.0,0.0,0.0,0.0,0.0,0.0,0.0,0.0,0.0,0.0,0.0,0.0,0.0,-1.7061,-1.8171,-1.787,-1.812,-1.7618,0.0,0.0,0.0,0.0,0.0,0.0,-1.9191,-1.9166,-1.9638,-2.0662,-1.9773,-1.9579,-2.0285,-1.9669,-1.9304,-1.9304,-1.9318,-1.9367,-1.9367,-1.9169,-1.8478,-1.7593,-1.7593,-1.701,-1.5818,-1.3081,-1.1449,-1.066,-1.0357,-1.0073,-0.9847,-1.0239,-1.0381,-1.0357,-1.0739,-1.0808,-1.0714,-1.0527,0.0,-0.9737,-0.9678,0.0,0.0,0.0,0.0,-0.8131,-0.7782,-0.7417,-0.6861,-0.5824,-0.4475,-0.3176,-0.2156,-0.076,0.0845,0.0,0.4222,0.5032,0.4125,0.0,0.0,0.0,0.0,0.8412,0.9543,1.1353,1.2908,1.3905,1.5155,1.5996,1.6205,1.6278,1.6086,1.5862,1.5849,1.6103,1.6799,1.7274,1.7519,1.7328,0.0,0.0,0.0,0.0,0.0,0.0,0.0,0.0,0.0,0.0,0.0,0.0,0.0,0.0,0.0,0.0,0.0,0.0,0.0,0.0,0.0,0.0,0.0,0.0,0.0,0.0,0.0,-1.4209,-1.5678,-1.5795,-1.5335,-1.4622,0.0,0.0,0.0,0.0,0.0,0.0,0.0,0.0,0.0,-1.6338,-1.5792,-1.5788,-1.6474,-1.6319,-1.627,-1.627,-1.6344,-1.6391,-1.6305,-1.5976,-1.5356,-1.4687,-1.4687,-1.3502,-1.1505,-1.0362,-0.9265,-0.8171,0.0,0.0,0.0,0.0,-0.7969,-0.7925,-0.8454,-0.8613,0.0,-0.8335,0.0,0.0,0.0,0.0,0.0,0.0,0.0,0.0,0.0,0.0,-0.4208,-0.3174,-0.1918,-0.0641,0.0369,0.1579,0.2858,0.0,0.5229,0.5615,0.4575,0.0,0.0,0.0,0.0,0.8764,1.0418,1.23,1.3843,1.4591,1.5514,1.6047,1.5888,1.5875,1.5809,1.5541,1.5528,1.5863,1.6603,1.6648,1.6575,0.0,0.0,0.0,0.0,0.0,0.0,0.0,0.0,0.0,0.0,0.0,0.0,0.0,0.0,0.0,0.0,0.0,0.0,0.0,0.0,0.0,0.0,0.0,0.0,0.0,0.0,0.0,0.0,0.0,-1.3535,-1.4661,0.0,0.0,0.0,0.0,0.0,0.0,0.0,0.0,0.0,0.0,0.0,0.0,0.0,-1.2583,-1.2919,-1.3758,-1.4104,-1.4151,-1.371,-1.3518,-1.3518,-1.2671,-1.234,-1.2445,-1.2175,0.0,-0.8217,-0.7791,0.0,0.0,0.0,0.0,0.0,0.0,0.0,0.0,0.0,0.0,0.0,0.0,0.0,0.0,0.0,0.0,0.0,0.0,0.0,0.0,0.0,0.0,-0.1358,-0.052,0.0351,0.1324,0.0,0.3542,0.4364,0.5723,0.5938,0.0,0.0,0.0,0.0,0.0,0.0,0.0,1.1314,1.2673,1.4016,1.5431,1.5528,1.5528,1.5528,1.5528,1.5515,1.5476,1.5387,1.5526,1.5843,1.5805,0.0,0.0,0.0,0.0,0.0,0.0,0.0,0.0,0.0,0.0,0.0,0.0,0.0,0.0,0.0,0.0,0.0,0.0,0.0,0.0,0.0,0.0,0.0,0.0,0.0,0.0,0.0,0.0,0.0,0.0,0.0,0.0,0.0,0.0,0.0,0.0,0.0,0.0,0.0,0.0,0.0,0.0,0.0,0.0,0.0,0.0,0.0,0.0,0.0,0.0,-0.9224,-0.8956,-0.9035,-0.8372,-0.8573,-0.9437,-0.7866,-0.6564,-0.5506,0.0,0.0,0.0,0.0,0.0,0.0,0.0,0.0,0.0,0.0,0.0,0.0,0.0,0.0,0.0,0.0,0.0,0.0,0.0,0.0,0.0,0.0,0.0,0.0,0.0,0.214,0.2577,0.0,0.0,0.0,0.0,0.0,0.0,0.0,0.0,0.0,0.0,0.0,0.0,1.2228,1.3799,1.4968,1.5502,1.5528,1.5528,1.5528,1.5528,1.5423,1.5282,1.4733,1.4724,0.0,0.0,0.0,0.0,0.0,0.0,0.0,0.0,0.0,0.0,0.0,0.0,0.0,0.0,0.0,0.0,0.0,0.0,0.0,0.0,0.0,0.0,0.0,0.0,0.0,0.0,0.0,0.0,0.0,0.0,0.0,0.0,0.0,0.0,0.0,0.0,0.0,0.0,0.0,0.0,0.0,0.0,0.0,0.0,0.0,0.0,0.0,0.0,0.0,0.0,0.0,0.0,0.0,0.0,0.0,0.0,0.0,0.0,0.0,-0.3393,0.0,0.0,0.0,0.0,0.0,0.0,0.0,0.0,0.0,0.0,0.0,0.0,0.0,0.0,0.0,0.0,0.0,0.0,0.0,0.0,0.0,0.0,0.0,0.0,0.0,0.0,0.0,0.0,0.0,0.0,0.0,0.0,0.0,0.0,0.0,0.0,0.0,0.0,0.0,0.0,1.3155,1.5155,1.6224,1.5899,1.6302,1.6395,1.5913,1.6302,1.6314,1.5749,1.5036,0.0,0.0,0.0,0.0,0.0,0.0,0.0,0.0,0.0,0.0,0.0,0.0,0.0,0.0,0.0,0.0,0.0,0.0,0.0,0.0,0.0,0.0,0.0,0.0,0.0,0.0,0.0,0.0,0.0,0.0,0.0,0.0,0.0,0.0,0.0,0.0,0.0,0.0,0.0,0.0,0.0,0.0,0.0,0.0,0.0,0.0,0.0,0.0,0.0,0.0,0.0,0.0,0.0,0.0,0.0,0.0,0.0,0.0,0.0,-0.1858,0.0,0.0,0.0,0.0,0.0,0.0,0.0,0.0,0.0,0.0,0.0,0.0,0.0,0.0,0.0,0.0,0.0,0.0,0.0,0.0,0.0,0.0,0.0,0.0,0.0,0.0,0.0,0.0,0.0,0.0,0.0,0.0,0.0,0.0,0.0,0.0,0.0,0.0,0.0,0.0,0.0,1.379,1.602,1.7135,1.6471,1.7303,1.765,1.6925,1.774,1.7804,1.6569,1.5744,0.0,0.0,0.0,0.0,0.0,0.0,0.0,0.0,0.0,0.0,0.0,0.0,0.0,0.0,0.0,0.0,0.0,0.0,0.0,0.0,0.0,0.0,0.0,0.0,0.0,0.0,0.0,0.0,0.0,0.0,0.0,0.0,0.0,0.0,0.0,0.0,0.0,0.0,0.0,0.0,0.0,0.0,0.0,0.0,0.0,0.0,0.0,0.0,0.0,0.0,0.0,0.0,0.0,0.0,0.0,0.0,0.0,0.0,0.0,0.0,0.0,0.0,0.0,0.0,0.0,0.0,0.0,0.0,0.0,0.0,0.0,0.0,0.0,0.0,0.0,0.0,0.0,0.0,0.0,0.0,0.0,0.0,0.0,0.0,0.0,0.0,0.0,0.0,0.0,0.0,0.0,0.0,0.0,0.0,0.0,0.0,0.0,0.0,0.0,0.0,0.0,1.3758,1.58,1.7229,1.7362,1.8538,1.9242,1.9187,2.0411,2.0152,1.773,0.0,0.0,0.0,0.0,0.0,0.0,0.0,0.0,0.0,0.0,0.0,0.0,0.0,0.0,0.0,0.0,0.0,0.0,0.0,0.0,0.0,0.0,0.0,0.0,0.0,0.0,0.0,0.0,0.0,0.0,0.0,0.0,0.0,0.0,0.0,0.0,0.0,0.0,0.0,0.0,0.0,0.0,0.0,0.0,0.0,0.0,0.0,0.0,0.0,0.0,0.0,0.0,0.0,0.0,0.0,0.0,0.0,0.0,0.0,0.0,0.0,0.0,0.0,0.0,0.0,0.0,0.0,0.0,0.0,0.0,0.0,0.0,0.0,0.0,0.0,0.0,0.0,0.0,0.0,0.0,0.0,0.0,0.0,0.0,0.0,0.0,0.0,0.0,0.0,0.0,0.0,0.0,0.0,0.0,0.0,0.0,0.0,0.0,0.0,0.0,0.0,0.0,1.4828,1.7046,1.8604,1.9022,1.9975,2.0735,2.0926,2.2026,2.1363,1.8316,0.0,0.0,0.0,0.0,0.0,0.0,0.0,0.0,0.0,0.0,0.0,0.0,0.0,0.0,0.0,0.0,0.0,0.0,0.0,0.0,0.0,0.0,0.0,0.0,0.0,0.0,0.0,0.0,0.0,0.0,0.0,0.0,0.0,0.0,0.0,0.0,0.0,0.0,0.0,0.0,0.0,0.0,0.0,0.0,0.0,0.0,0.0,0.0,0.0,0.0,0.0,0.0,0.0,0.0,0.0,0.0,0.0,0.0,0.0,0.0,0.0,0.0,0.0,0.0,0.0,0.0,0.0,0.0,0.0,0.0,0.0,0.0,0.0,0.0,0.0,0.0,0.0,0.0,0.0,0.0,0.0,0.0,0.0,0.0,0.0,0.0,0.0,0.0,0.0,0.0,0.0,0.0,0.0,0.0,0.0,0.0,0.0,0.0,0.0,0.0,0.0,0.0,1.619,1.8732,2.0537,2.0907,2.1934,2.2687,2.2938,2.3937,2.3001,1.9337,0.0,0.0,0.0,0.0,0.0,0.0,0.0,0.0,0.0,0.0,0.0,0.0,0.0,0.0,0.0,0.0,0.0,0.0,0.0,0.0,0.0,0.0,0.0,0.0,0.0,0.0,0.0,0.0,0.0,0.0,0.0,0.0,0.0,0.0,0.0,0.0,0.0,0.0,0.0,0.0,0.0,0.0,0.0,0.0,0.0,0.0,0.0,0.0,0.0,0.0,0.0,0.0,0.0,0.0,0.0,0.0,0.0,0.0,0.0,0.0,0.0,0.0,0.0,0.0,0.0,0.0,0.0,0.0,0.0,0.0,0.0,0.0,0.0,0.0,0.0,0.0,0.0,0.0,0.0,0.0,0.0,0.0,0.0,0.0,0.0,0.0,0.0,0.0,0.0,0.0,0.0,0.0,0.0,0.0,0.0,0.0,0.0,0.0,0.0,0.0,0.0,0.0,1.779,2.0675,2.274,2.3227,2.4435,2.5181,2.5181,2.6525,2.5425,0.0,0.0,0.0,0.0,0.0,0.0,0.0,0.0,0.0,0.0,0.0,0.0,0.0,0.0,0.0,0.0,0.0,0.0,0.0,0.0,0.0,0.0,0.0,0.0,0.0,0.0,0.0,0.0,0.0,0.0,0.0,0.0,0.0,0.0,0.0,0.0,0.0,0.0,0.0,0.0,0.0,0.0,0.0,0.0,0.0,0.0,0.0,0.0,0.0,0.0,0.0,0.0,0.0,0.0,0.0,0.0,0.0,0.0,0.0,0.0,0.0,0.0,0.0,0.0,0.0,0.0,0.0,0.0,0.0,0.0,0.0,0.0,0.0,0.0,0.0,0.0,0.0,0.0,0.0,0.0,0.0,0.0,0.0,0.0,0.0,0.0,0.0,0.0,0.0,0.0,0.0,0.0,0.0,0.0,0.0,0.0,0.0,0.0,0.0,0.0,0.0,0.0,0.0,1.7219,1.91,2.1015,0.0,2.3969,2.4523,2.5496,2.5968,2.4594,2.0838,0.0,0.0,0.0,0.0,0.0,0.0,0.0,0.0,0.0,0.0,0.0,0.0,0.0,0.0,0.0,0.0,0.0,0.0,0.0,0.0,0.0,0.0,0.0,0.0,0.0,0.0,0.0,0.0,0.0,0.0,0.0,0.0,0.0,0.0,0.0,0.0,0.0,0.0,0.0,0.0,0.0,0.0,0.0,0.0,0.0,0.0,0.0,0.0,0.0,0.0,0.0,0.0,0.0,0.0,0.0,0.0,0.0,0.0,0.0,0.0,0.0,0.0,0.0,0.0,0.0,0.0,0.0,0.0,0.0,0.0,0.0,0.0,0.0,0.0,0.0,0.0,0.0,0.0,0.0,0.0,0.0,0.0,0.0,0.0,0.0,0.0,0.0,0.0,0.0,0.0,0.0,0.0,0.0,0.0,0.0,0.0,0.0,0.0,0.0,0.0,0.0,0.0,0.0,1.995,2.2089,0.0,2.4424,2.4811,2.5607,2.5684,2.4204,2.0812,0.0,0.0,0.0,0.0,0.0,0.0,0.0,0.0,0.0,0.0,0.0,0.0,0.0,0.0,0.0,0.0,0.0,0.0,0.0,0.0,0.0,0.0,0.0,0.0,0.0,0.0,0.0,0.0,0.0,0.0,0.0,0.0,0.0,0.0,0.0,0.0,0.0,0.0,0.0,0.0,0.0,0.0,0.0,0.0,0.0,0.0,0.0,0.0,0.0,0.0,0.0,0.0,0.0,0.0,0.0,0.0,0.0,0.0,0.0,0.0,0.0,0.0,0.0,0.0,0.0,0.0,0.0,0.0,0.0,0.0,0.0,0.0,0.0,0.0,0.0,0.0,0.0,0.0,0.0,0.0,0.0,0.0,0.0,0.0,0.0,0.0,0.0,0.0,0.0,0.0,0.0,0.0,0.0,0.0,0.0,0.0,0.0,0.0,0.0,0.0,0.0,0.0,0.0,2.2636,2.4876,2.5477,2.5554,2.5554,2.5554,2.5554,2.4126,2.0864,1.8906,0.0,0.0,0.0,0.0,0.0,0.0,0.0,0.0,0.0,0.0,0.0,0.0,0.0,0.0,0.0,0.0,0.0,0.0,0.0,0.0,0.0,0.0,0.0,0.0,0.0,0.0,0.0,0.0,0.0,0.0,0.0,0.0,0.0,0.0,0.0,0.0,0.0,0.0,0.0,0.0,0.0,0.0,0.0,0.0,0.0,0.0,0.0,0.0,0.0,0.0,0.0,0.0,0.0,0.0,0.0,0.0,0.0,0.0,0.0,0.0,0.0,0.0,0.0,0.0,0.0,0.0,0.0,0.0,0.0,0.0,0.0,0.0,0.0,0.0,0.0,0.0,0.0,0.0,0.0,0.0,0.0,0.0,0.0,0.0,0.0,0.0,0.0,0.0,0.0,0.0,0.0,0.0,0.0,0.0,0.0,0.0,0.0,0.0,0.0,0.0,0.0,0.0,2.1685,2.2724,2.4178,2.4334,2.4334,2.4334,2.4334,2.3425,2.1295,1.875,0.0,0.0,0.0,0.0,0.0,0.0,0.0,0.0,0.0,0.0,0.0,0.0,0.0,0.0,0.0,0.0,0.0,0.0,0.0,0.0,0.0,0.0,0.0,0.0,0.0,0.0,0.0,0.0,0.0,0.0,0.0,0.0,0.0,0.0,0.0,0.0,0.0,0.0,0.0,0.0,0.0,0.0,0.0,0.0,0.0,0.0,0.0,0.0,0.0,0.0,0.0,0.0,0.0,0.0,0.0,0.0,0.0,0.0,0.0,0.0,0.0,0.0,0.0,0.0,0.0,0.0,0.0,0.0,0.0,0.0,0.0,0.0,0.0,0.0,0.0,0.0,0.0,0.0,0.0,0.0,0.0,0.0,0.0,0.0,0.0,0.0,0.0,0.0,0.0,0.0,0.0,0.0,0.0,0.0,0.0,0.0,0.0,0.0,0.0,0.0,0.0,0.0,1.9322,2.0854,2.3607,2.3918,2.3918,2.3918,2.3918,2.3061,2.1177,1.8543,0.0,0.0,0.0,0.0,0.0,0.0,0.0,0.0,0.0,0.0,0.0,0.0,0.0,0.0,0.0,0.0,0.0,0.0,0.0,0.0,0.0,0.0,0.0,0.0,0.0,0.0,0.0,0.0,0.0,0.0,0.0,0.0,0.0,0.0,0.0,0.0,0.0,0.0,0.0,0.0,0.0,0.0,0.0,0.0,0.0,0.0,0.0,0.0,0.0,0.0,0.0,0.0,0.0,0.0,0.0,0.0,0.0,0.0,0.0,0.0,0.0,0.0,0.0,0.0,0.0,0.0,0.0,0.0,0.0,0.0,0.0,0.0,0.0,0.0,0.0,0.0,0.0,0.0,0.0,0.0,0.0,0.0,0.0,0.0,0.0,0.0,0.0,0.0,0.0,0.0,0.0,0.0,0.0,0.0,0.0,0.0,0.0,0.0,0.0,0.0,0.0,0.0,0.0,1.9497,2.3035,2.3555,2.3685,2.3789,2.3789,2.2854,2.0734,0.0,0.0,0.0,0.0,0.0,0.0,0.0,0.0,0.0,0.0,0.0,0.0,0.0,0.0,0.0,0.0,0.0,0.0,0.0,0.0,0.0,0.0,0.0,0.0,0.0,0.0,0.0,0.0,0.0,0.0,0.0,0.0,0.0,0.0,0.0,0.0,0.0,0.0,0.0,0.0,0.0,0.0,0.0,0.0,0.0,0.0,0.0,0.0,0.0,0.0,0.0,0.0,0.0,0.0,0.0,0.0,0.0,0.0,0.0,0.0,0.0,0.0,0.0,0.0,0.0,0.0,0.0,0.0,0.0,0.0,0.0,0.0,0.0,0.0,0.0,0.0,0.0,0.0,0.0,0.0,0.0,0.0,0.0,0.0,0.0,0.0,0.0,0.0,0.0,0.0,0.0,0.0,0.0,0.0,0.0,0.0,0.0,0.0,0.0,0.0,0.0,0.0,0.0,0.0,0.0,2.0995,2.1893,2.2672,2.3235,2.3287,2.2505,2.0708,0.0,0.0,0.0,0.0,0.0,0.0,0.0,0.0,0.0,0.0,0.0,0.0,0.0,0.0]}],[{"header":{"parameterUnit":"kt","parameterCategory":2,"dx":1,"dy":1,"la1":29.285339999999998,"la2":30.599998999999997,"lo1":-89.70041500000002,"lo2":-87.6738589999976,"nx":112,"ny":82,"refTime":"2022-10-21T12:00:00:Z","depth":0,"parameterNumber":2,"parameterNumberName":"V-component_of_WINDS"},"data":[7.3339,7.4035,0.0,6.793,6.5244,0.0,5.5797,0.0,0.0,0.0,0.0,0.0,0.0,0.0,0.0,0.0,0.0,0.0,0.0,0.0,0.0,0.0,0.0,0.0,0.0,0.0,0.0,0.0,0.0,0.0,0.0,0.0,9.6208,9.5888,9.8244,9.9977,10.0876,10.223,10.3611,10.5045,10.8054,10.9736,11.0252,11.1869,11.2513,11.2513,11.2513,11.2513,11.2513,11.2513,11.2513,11.2513,11.2513,11.2513,11.2513,11.2513,11.2513,11.2513,11.2513,11.2513,11.2513,11.2513,11.2513,11.2513,11.2513,11.1526,11.0014,10.8041,10.6857,10.5674,10.3701,10.3569,10.403,10.403,10.403,10.403,10.403,10.403,10.403,10.403,10.403,10.4419,10.561,10.6341,10.7289,10.8882,10.9439,10.9599,10.9599,10.9599,10.9811,11.0383,11.0669,11.1165,11.1885,11.2465,11.2736,11.2736,11.2736,11.2736,11.2736,11.2736,11.2736,11.2736,11.2736,11.2736,11.2736,11.2736,11.2736,11.2736,11.2736,11.2736,0.0,0.0,7.2301,6.464,0.0,0.0,0.0,0.0,0.0,0.0,0.0,0.0,0.0,0.0,0.0,0.0,0.0,0.0,0.0,0.0,0.0,0.0,0.0,0.0,0.0,0.0,0.0,0.0,0.0,0.0,0.0,9.519,9.583,9.583,9.8244,10.0158,10.1675,10.2951,10.4314,10.5851,10.874,11.0177,11.0252,11.1869,11.2513,11.2513,11.2513,11.2513,11.2513,11.2513,11.2513,11.2513,11.2513,11.2513,11.2513,11.2513,11.2513,11.2513,11.2513,11.2513,11.2513,11.2513,11.2513,11.2447,11.1921,11.1132,11.0014,10.8107,10.6857,10.5805,10.4359,10.403,10.403,10.403,10.403,10.403,10.403,10.403,10.403,10.403,10.403,10.4419,10.561,10.6641,10.775,10.9385,10.9599,10.9599,10.9599,10.9758,11.0125,11.0568,11.1116,11.1648,11.2165,11.2556,11.2736,11.2736,11.2736,11.2736,11.2736,11.2736,11.2736,11.2736,11.2736,11.2736,11.2736,11.2736,11.2736,11.2736,11.2736,11.2736,0.0,0.0,0.0,6.0167,0.0,0.0,0.0,0.0,5.2747,0.0,0.0,0.0,0.0,0.0,0.0,0.0,0.0,0.0,0.0,0.0,0.0,0.0,0.0,0.0,0.0,0.0,0.0,0.0,0.0,0.0,9.3125,9.519,9.5888,9.5888,9.8244,10.0248,10.1763,10.3037,10.4398,10.5933,10.8818,11.0252,11.0327,11.1869,11.2513,11.2513,11.2513,11.2513,11.2513,11.2513,11.2513,11.2513,11.2513,11.2513,11.2513,11.2513,11.2513,11.2513,11.2513,11.2513,11.2513,11.2513,11.2513,11.225,11.0869,11.0474,10.9817,10.6989,10.6134,10.5805,10.4359,10.403,10.403,10.403,10.403,10.403,10.403,10.403,10.403,10.403,10.3964,10.4611,10.6402,10.7578,10.8551,10.9493,10.9599,10.9599,10.9652,11.0125,11.0568,11.1116,11.1648,11.2189,11.2691,11.2736,11.2736,11.2736,11.2736,11.2736,11.2736,11.2736,11.2736,11.2736,11.2736,11.2736,11.2736,11.2736,11.2736,11.2736,11.2736,11.2781,6.5668,0.0,0.0,0.0,0.0,0.0,0.0,0.0,0.0,0.0,0.0,0.0,0.0,0.0,0.0,0.0,0.0,0.0,0.0,0.0,0.0,0.0,0.0,0.0,0.0,0.0,0.0,0.0,0.0,0.0,9.3358,9.519,9.6208,9.708,9.9637,10.1704,10.3037,10.4459,10.6116,10.818,10.9572,11.0476,11.1069,11.2085,11.2513,11.2513,11.2513,11.2513,11.2513,11.2513,11.2513,11.2513,11.2513,11.2513,11.2513,11.2513,11.2513,11.2513,11.2513,11.2513,11.2513,11.2513,11.2513,11.2447,11.2052,11.1197,11.0014,10.8238,10.6923,10.5805,10.4359,10.403,10.403,10.403,10.403,10.403,10.403,10.403,10.403,10.403,10.4546,10.5366,10.6522,10.7578,10.8551,10.9493,10.9599,10.9758,11.0177,11.0262,11.0719,11.1648,11.1838,11.2189,11.2691,11.2736,11.2736,11.2736,11.2736,11.2736,11.2736,11.2736,11.2736,11.2736,11.2736,11.2736,11.2736,11.2736,11.2736,11.2736,11.3018,11.3149,0.0,0.0,0.0,0.0,0.0,0.0,5.0872,0.0,4.9093,0.0,0.0,0.0,0.0,0.0,0.0,0.0,0.0,0.0,0.0,0.0,0.0,0.0,0.0,0.0,0.0,0.0,0.0,0.0,0.0,8.5816,9.3474,9.519,9.6382,9.7514,10.0228,10.2317,10.3551,10.5045,10.6908,10.9022,10.98,11.0625,11.1435,11.2157,11.2513,11.2513,11.2513,11.2513,11.2513,11.2513,11.2513,11.2513,11.2513,11.2513,11.2513,11.2513,11.2513,11.2513,11.2513,11.2513,11.2513,11.2513,11.2513,11.2381,11.1789,11.0671,10.9225,10.7778,10.6331,10.5016,10.4227,10.403,10.403,10.403,10.403,10.403,10.403,10.403,10.403,10.403,10.4738,10.5794,10.7114,10.8216,10.9061,10.9546,10.9811,11.0073,11.0383,11.0769,11.1263,11.1885,11.2118,11.242,11.2736,11.2736,11.2736,11.2736,11.2736,11.2736,11.2736,11.2736,11.2736,11.2736,11.2736,11.2736,11.2736,11.2736,11.2736,11.2736,11.3149,11.3363,0.0,0.0,0.0,0.0,5.8865,0.0,0.0,0.0,0.0,0.0,0.0,0.0,0.0,0.0,0.0,0.0,0.0,0.0,0.0,0.0,0.0,0.0,0.0,0.0,0.0,0.0,0.0,9.3532,8.7446,8.6631,9.3707,9.5248,9.6382,9.7747,10.0464,10.2404,10.3551,10.5211,10.7069,10.9177,10.9876,11.07,11.1507,11.2228,11.2513,11.2513,11.2513,11.2513,11.2513,11.2513,11.2513,11.2513,11.2513,11.2513,11.2513,11.2513,11.2513,11.2513,11.2513,11.2513,11.2513,11.2513,11.2513,11.2315,11.1066,10.9685,10.8238,10.6792,10.5345,10.4227,10.403,10.403,10.403,10.403,10.403,10.403,10.403,10.403,10.403,10.4095,10.4929,10.61,10.8046,10.91,10.9705,10.9705,11.0177,11.0536,11.0536,11.136,11.1979,11.2026,11.2511,11.2736,11.2736,11.2736,11.2736,11.2736,11.2736,11.2736,11.2736,11.2736,11.2736,11.2736,11.2736,11.2736,11.2736,11.2736,11.2736,11.2736,11.3192,11.3406,0.0,0.0,0.0,0.0,0.0,5.4677,0.0,0.0,0.0,0.0,0.0,0.0,0.0,0.0,0.0,0.0,0.0,0.0,0.0,0.0,0.0,0.0,0.0,0.0,0.0,0.0,9.3881,9.3881,9.1496,9.1671,9.5306,9.5714,9.6848,9.9116,10.1789,10.338,10.3636,10.6116,10.8259,10.9951,11.0102,11.0921,11.2299,11.2442,11.2513,11.2513,11.2513,11.2513,11.2513,11.2513,11.2513,11.2513,11.2513,11.2513,11.2513,11.2513,11.2513,11.2513,11.2513,11.2513,11.2513,11.2513,11.2513,11.2447,11.2184,11.1132,10.9685,10.8304,10.6857,10.5476,10.4293,10.403,10.403,10.403,10.403,10.403,10.403,10.403,10.4225,10.4926,10.5794,10.6996,10.8593,10.9636,11.028,11.028,11.0669,11.1018,11.1018,11.1553,11.2072,11.2556,11.2691,11.2736,11.2736,11.2736,11.2736,11.2736,11.2736,11.2736,11.2736,11.2736,11.2736,11.2736,11.2736,11.2736,11.2736,11.2736,11.2736,11.2781,11.3605,11.3978,0.0,0.0,0.0,5.3804,0.0,0.0,0.0,0.0,0.0,0.0,0.0,0.0,0.0,0.0,0.0,0.0,0.0,0.0,0.0,0.0,0.0,0.0,0.0,0.0,0.0,0.0,9.4521,9.3939,9.266,9.3067,9.5714,9.583,9.6906,9.9465,10.223,10.3636,10.3636,10.6765,10.8959,11.0177,11.0625,11.1435,11.2513,11.2513,11.2513,11.2513,11.2513,11.2513,11.2513,11.2513,11.2513,11.2513,11.2513,11.2513,11.2513,11.2513,11.2513,11.2513,11.2513,11.2513,11.2513,11.2513,11.2513,11.2513,11.2513,11.2052,11.1,10.8896,10.6726,10.4885,10.4161,10.403,10.403,10.403,10.403,10.403,10.403,10.403,10.429,10.5178,10.61,10.7405,10.9354,11.0107,11.0536,11.0719,11.1214,11.1553,11.1553,11.2026,11.2465,11.2736,11.2736,11.2736,11.2736,11.2736,11.2736,11.2736,11.2736,11.2736,11.2736,11.2736,11.2736,11.2736,11.2736,11.2736,11.2736,11.2736,11.287,11.3018,11.3772,11.422,0.0,0.0,0.0,0.0,0.0,0.0,0.0,5.6131,0.0,0.0,0.0,0.0,0.0,0.0,0.0,0.0,0.0,0.0,0.0,0.0,0.0,0.0,0.0,0.0,0.0,0.0,9.3474,9.3474,9.2543,9.3067,9.5714,9.583,9.6906,9.9465,10.223,10.3636,10.3636,10.7247,10.9483,11.0177,11.0995,11.1797,11.2513,11.2513,11.2513,11.2513,11.2513,11.2513,11.2513,11.2513,11.2513,11.2513,11.2513,11.2513,11.2513,11.2513,11.2513,11.2513,11.2513,11.2513,11.2513,11.2513,11.2513,11.2513,11.2513,11.2315,11.1592,10.9027,10.62,10.403,10.403,10.403,10.403,10.403,10.403,10.403,10.403,10.403,10.4355,10.5429,10.6274,10.7682,11.0159,11.0517,11.0719,11.1263,11.1696,11.1932,11.1932,11.2465,11.2736,11.2736,11.2736,11.2736,11.2736,11.2736,11.2736,11.2736,11.2736,11.2736,11.2736,11.2736,11.2736,11.2736,11.2736,11.2736,11.2736,11.2736,11.2887,11.3363,11.3978,11.4419,0.0,0.0,0.0,0.0,0.0,0.0,6.7183,6.7881,0.0,0.0,0.0,0.0,0.0,0.0,0.0,0.0,0.0,0.0,0.0,0.0,0.0,0.0,0.0,0.0,0.0,0.0,9.2194,9.2194,9.202,9.3067,9.5714,9.583,9.6906,9.9465,10.223,10.3636,10.3636,10.7247,10.9483,11.0177,11.0995,11.1797,11.2513,11.2513,11.2513,11.2513,11.2513,11.2513,11.2513,11.2513,11.2513,11.2513,11.2513,11.2513,11.2513,11.2513,11.2513,11.2513,11.2513,11.2513,11.2513,11.2513,11.2513,11.2513,11.2513,11.1658,11.0343,10.8764,10.62,10.403,10.403,10.403,10.403,10.403,10.403,10.403,10.403,10.403,10.4548,10.6221,10.7046,10.8234,11.0649,11.1067,11.1263,11.1791,11.1885,11.1932,11.1932,11.2465,11.2736,11.2736,11.2736,11.2736,11.2736,11.2736,11.2736,11.2736,11.2736,11.2736,11.2736,11.2736,11.2736,11.2736,11.2736,11.2736,11.2736,11.2736,11.2887,11.3363,11.4228,11.4618,0.0,0.0,0.0,0.0,0.0,0.0,0.0,6.7066,0.0,0.0,0.0,0.0,0.0,0.0,0.0,0.0,0.0,0.0,0.0,0.0,0.0,0.0,0.0,0.0,0.0,0.0,0.0,9.1962,9.1962,9.2718,9.4666,9.6033,9.772,9.9523,10.223,10.3891,10.4398,10.796,11.0102,11.0921,11.1725,11.2228,11.2513,11.2513,11.2513,11.2513,11.2513,11.2513,11.2513,11.2513,11.2052,11.1395,11.2184,11.2052,11.1395,11.2184,11.2513,11.2513,11.2513,11.2513,11.2513,11.2513,11.2513,11.2381,11.1526,11.0869,10.9948,10.7646,10.62,10.5016,10.4227,10.403,10.403,10.403,10.403,10.403,10.403,10.403,10.4482,10.6341,10.7625,10.8962,11.0869,11.1408,11.1791,11.2374,11.242,11.242,11.242,11.2601,11.2736,11.2736,11.2736,11.2736,11.2736,11.2736,11.2736,11.2736,11.2736,11.2736,11.2736,11.2736,11.2736,11.2736,11.2736,11.2736,11.2736,11.3002,11.3149,11.3363,11.4267,11.4808,4.601,0.0,0.0,0.0,0.0,0.0,0.0,0.0,0.0,0.0,0.0,0.0,0.0,0.0,0.0,0.0,0.0,0.0,0.0,0.0,0.0,0.0,0.0,0.0,0.0,0.0,0.0,0.0,9.1962,9.2369,9.3299,9.5742,9.7895,9.9523,10.223,10.3891,10.4588,10.8289,11.0476,11.1069,11.2085,11.2513,11.2513,11.2513,11.2513,11.2513,11.2513,11.2513,11.2513,11.2513,11.1724,11.054,11.1987,11.1658,11.0606,11.1987,11.2513,11.2513,11.2513,11.2513,11.2513,11.2513,11.2513,11.2315,11.1329,11.0474,10.9422,10.7318,10.6134,10.5279,10.4293,10.403,10.403,10.403,10.403,10.403,10.403,10.416,10.4929,10.6573,10.8191,10.9725,11.1165,11.1696,11.2118,11.2691,11.2646,11.2601,11.2736,11.2736,11.2736,11.2736,11.2736,11.2736,11.2736,11.2736,11.2736,11.2736,11.2736,11.2736,11.2736,11.2736,11.2736,11.2736,11.2736,11.2736,11.2736,11.3149,11.349,11.3741,11.4386,11.4884,0.0,0.0,0.0,0.0,0.0,0.0,0.0,0.0,0.0,0.0,0.0,0.0,0.0,0.0,0.0,0.0,0.0,0.0,0.0,0.0,0.0,0.0,0.0,0.0,0.0,0.0,0.0,0.0,0.0,9.1962,9.202,9.4405,9.6964,9.9465,10.223,10.3636,10.3636,10.7975,11.0252,11.0252,11.1797,11.2513,11.2513,11.2513,11.2513,11.2513,11.2513,11.2513,11.2513,11.2513,11.1724,11.054,11.1987,11.1658,11.0606,11.1987,11.2513,11.2513,11.2513,11.2513,11.2513,11.2513,11.2513,11.2513,11.2447,11.054,10.837,10.817,10.62,10.403,10.403,10.403,10.403,10.403,10.403,10.403,10.403,10.4675,10.5733,10.7211,10.873,11.0294,11.1696,11.1932,11.2118,11.2691,11.2328,11.2189,11.2691,11.2736,11.2736,11.2736,11.2736,11.2736,11.2736,11.2736,11.2736,11.2736,11.2736,11.2736,11.2736,11.2736,11.2736,11.2736,11.2736,11.2736,11.2736,11.3149,11.3824,11.4657,11.4657,11.4884,5.0489,0.0,0.0,0.0,0.0,7.2359,7.8409,0.0,0.0,0.0,0.0,0.0,0.0,0.0,0.0,0.0,0.0,0.0,0.0,0.0,0.0,0.0,0.0,0.0,0.0,0.0,0.0,0.0,0.0,0.0,9.3183,9.4898,9.6557,9.8154,9.9959,10.2285,10.5274,10.8599,11.0774,11.1797,11.2299,11.2513,11.2513,11.2513,11.2513,11.2513,11.2513,11.2513,11.2447,11.1526,11.0277,10.9027,10.9553,10.9422,10.9159,11.0606,11.1724,11.2513,11.2513,11.2513,11.2381,11.146,11.1724,11.1987,10.9093,10.8304,10.791,10.6003,10.4753,10.403,10.403,10.403,10.403,10.403,10.403,10.403,10.403,10.5178,10.6641,10.7807,10.9514,11.0918,11.136,11.1979,11.2556,11.2736,11.2601,11.2556,11.2736,11.2736,11.2736,11.2736,11.2736,11.2736,11.2736,11.2736,11.2736,11.2736,11.2736,11.2736,11.2736,11.2736,11.2736,11.2736,11.2736,11.2914,11.3149,11.3647,11.4108,11.4695,11.4958,11.5142,0.0,0.0,0.0,6.7884,7.2883,7.6838,7.9863,0.0,0.0,0.0,0.0,0.0,0.0,0.0,0.0,0.0,0.0,0.0,0.0,0.0,0.0,0.0,0.0,0.0,0.0,0.0,0.0,0.0,0.0,0.0,9.3125,9.4898,9.615,9.6964,9.8651,10.138,10.5192,10.8522,11.07,11.1725,11.2299,11.2513,11.2513,11.2513,11.2513,11.2513,11.2513,11.225,11.1724,11.1329,10.9751,10.7646,10.9225,10.9225,10.8499,11.0474,11.1724,11.2513,11.2513,11.2513,11.2381,11.146,11.146,11.1263,10.8501,10.7581,10.712,10.5279,10.4359,10.403,10.403,10.403,10.403,10.403,10.403,10.4095,10.4353,10.5677,10.7114,10.8316,10.9934,11.1214,11.1408,11.2189,11.2736,11.2736,11.2736,11.2736,11.2736,11.2736,11.2736,11.2736,11.2736,11.2736,11.2736,11.2736,11.2736,11.2736,11.2736,11.2736,11.2736,11.2736,11.2736,11.2736,11.2736,11.3062,11.3824,11.4108,11.4464,11.4884,11.5142,11.5358,0.0,5.8865,0.0,7.2418,7.678,7.963,0.0,0.0,0.0,0.0,0.0,0.0,0.0,0.0,0.0,0.0,0.0,0.0,0.0,0.0,0.0,0.0,0.0,0.0,0.0,0.0,0.0,0.0,0.0,9.1962,9.1962,9.4405,9.583,9.5772,9.8185,10.0817,10.3344,10.7755,11.0027,11.0252,11.1797,11.2513,11.2513,11.2513,11.2513,11.2513,11.2447,11.1658,11.054,11.1724,10.9817,10.6529,11.054,11.054,10.8633,11.1329,11.2381,11.2513,11.2447,11.2381,11.2381,11.225,11.1329,11.0277,11.0145,10.8238,10.6068,10.6003,10.5016,10.403,10.403,10.403,10.403,10.403,10.403,10.4225,10.5116,10.6039,10.7163,10.8813,11.0192,11.1312,11.1791,11.2374,11.2691,11.2736,11.2736,11.2736,11.2736,11.2736,11.2736,11.2736,11.2736,11.2736,11.2736,11.2736,11.2736,11.2736,11.2736,11.2736,11.2736,11.2736,11.2736,11.2781,11.2781,11.3406,11.4695,11.4695,11.4884,11.5251,11.5251,11.557,6.0552,0.0,6.9742,7.7129,7.9456,8.0677,0.0,0.0,0.0,0.0,0.0,0.0,0.0,0.0,0.0,0.0,0.0,0.0,0.0,0.0,0.0,0.0,0.0,0.0,0.0,0.0,0.0,0.0,0.0,9.1962,9.1962,9.4405,9.5422,9.4405,9.772,9.9869,10.0709,10.443,10.7912,11.1069,11.2085,11.2513,11.2513,11.2513,11.2513,11.2447,11.1395,11.0737,11.0277,10.8501,10.712,10.6134,10.6134,10.7055,10.837,10.9093,11.0737,11.2381,11.1329,11.0934,11.0606,10.8436,10.8238,10.8436,10.6266,10.5871,10.5871,10.4819,10.4293,10.403,10.403,10.403,10.403,10.403,10.403,10.4029,10.429,10.5615,10.7289,10.91,11.0125,11.0769,11.1263,11.1791,11.2328,11.2691,11.2736,11.2736,11.2736,11.2736,11.2736,11.2736,11.2736,11.2736,11.2736,11.2736,11.2736,11.2736,11.2736,11.2736,11.2736,11.2736,11.2914,11.3192,11.3192,11.37,11.4695,11.4695,11.4884,11.5251,11.5251,11.557,5.8632,6.4972,7.172,0.0,8.0518,8.1084,8.3567,0.0,0.0,0.0,0.0,0.0,0.0,0.0,0.0,0.0,0.0,0.0,0.0,0.0,0.0,0.0,0.0,0.0,0.0,0.0,0.0,0.0,0.0,9.1962,9.1962,9.3823,9.487,9.4782,9.7313,9.928,10.0546,10.3102,10.6174,10.9973,11.1732,11.2513,11.2513,11.2513,11.1855,11.0671,11.0474,10.9685,10.8436,10.7449,10.6331,10.5213,10.5739,10.6857,10.837,10.9027,11.0211,11.146,11.0671,11.0014,10.9225,10.7581,10.7186,10.7055,10.5411,10.5082,10.5016,10.4227,10.403,10.403,10.403,10.403,10.403,10.403,10.403,10.403,10.403,10.5429,10.7055,10.8091,10.9689,11.0819,11.1116,11.1791,11.242,11.2691,11.2736,11.2736,11.2736,11.2736,11.2736,11.2736,11.2736,11.2736,11.2736,11.2736,11.2736,11.2736,11.2736,11.2736,11.2736,11.2736,11.2887,11.3321,11.3741,11.4267,11.4921,11.4921,11.5032,11.5251,11.55,11.5911,5.5716,6.2413,7.1254,0.0,8.0328,8.1084,0.0,0.0,8.4148,0.0,0.0,0.0,0.0,0.0,0.0,0.0,0.0,0.0,0.0,0.0,0.0,0.0,0.0,0.0,0.0,0.0,0.0,0.0,0.0,0.0,9.1962,9.3358,9.4549,9.5306,9.6964,9.8781,10.0877,10.2571,10.4716,10.7377,11.0367,11.1882,11.2108,11.1911,11.0466,10.8233,10.9353,10.8436,10.62,10.7252,10.6266,10.4293,10.6792,10.7844,10.8173,10.9422,10.9948,11.008,10.9882,10.9027,10.7975,10.7778,10.6857,10.5805,10.5805,10.5016,10.403,10.403,10.403,10.403,10.403,10.403,10.403,10.403,10.403,10.4095,10.416,10.5553,10.676,10.6937,10.907,11.0968,11.1067,11.1932,11.2691,11.2736,11.2736,11.2736,11.2736,11.2736,11.2736,11.2736,11.2736,11.2736,11.2736,11.2736,11.2736,11.2736,11.2736,11.2781,11.2825,11.2825,11.2875,11.2885,11.3873,11.4593,11.4959,11.4959,11.5068,11.5394,11.5804,11.625,6.4681,6.916,7.3174,7.7711,7.963,0.0,8.2381,8.3469,8.4148,0.0,0.0,0.0,0.0,0.0,0.0,0.0,0.0,0.0,0.0,0.0,0.0,0.0,0.0,0.0,0.0,0.0,0.0,0.0,0.0,0.0,9.1962,9.4172,9.4579,9.266,9.6906,9.8392,9.688,10.0255,10.258,10.3771,10.6557,10.8576,10.9819,10.858,10.7798,10.7276,10.6981,10.6594,10.6068,10.5148,10.449,10.403,10.4556,10.5476,10.6529,10.6792,10.7646,10.8501,10.7252,10.6726,10.6331,10.5148,10.4556,10.4359,10.4359,10.4227,10.403,10.403,10.403,10.403,10.403,10.403,10.403,10.403,10.403,10.4225,10.4926,10.5978,10.6996,10.7876,10.9046,11.0021,11.0415,11.1408,11.2211,11.2691,11.2736,11.2736,11.2736,11.2736,11.2736,11.2736,11.2736,11.2736,11.2736,11.2736,11.2736,11.2736,11.2736,11.2914,11.3235,11.3235,11.2321,11.0474,11.1968,11.2955,11.3353,11.3353,11.4256,11.5871,11.597,11.5844,6.1191,6.631,7.1371,7.393,0.0,7.9979,8.1974,8.2905,8.3644,8.4923,0.0,0.0,0.0,0.0,0.0,0.0,0.0,0.0,0.0,0.0,0.0,0.0,0.0,0.0,0.0,0.0,0.0,0.0,0.0,0.0,0.0,9.3125,9.3532,9.295,9.5975,9.7022,9.5888,9.9018,10.1009,10.185,10.389,10.5754,10.74,10.4256,10.3246,10.389,10.5056,10.5339,10.495,10.4293,10.403,10.403,10.403,10.4885,10.6134,10.6134,10.6529,10.7055,10.6331,10.5608,10.4885,10.4227,10.403,10.403,10.403,10.403,10.403,10.403,10.403,10.403,10.403,10.403,10.403,10.403,10.403,10.4225,10.5178,10.61,10.7055,10.8103,10.9061,10.9864,11.0669,11.1214,11.1791,11.2646,11.2736,11.2736,11.2736,11.2736,11.2736,11.2736,11.2736,11.2736,11.2736,11.2736,11.2736,11.2736,11.2736,11.2529,11.2101,11.1693,11.116,11.0226,11.1027,11.1571,11.1747,11.1747,11.2315,11.3504,11.3755,11.3892,5.8516,6.4042,7.0207,7.1778,7.4744,7.8176,8.1624,8.2207,8.2672,8.4865,8.4749,0.0,0.0,0.0,0.0,0.0,0.0,0.0,0.0,0.0,0.0,0.0,0.0,0.0,0.0,0.0,0.0,0.0,0.0,0.0,0.0,0.0,0.0,9.3416,9.5073,9.5714,9.5481,9.7696,9.9181,0.0,10.1204,10.2654,10.382,9.9988,9.9097,10.078,10.36,10.4418,10.403,10.403,10.403,10.403,10.403,10.4687,10.5674,10.5674,10.5674,10.5674,10.5674,10.495,10.403,10.403,10.403,10.403,10.403,10.403,10.403,10.403,10.403,10.403,10.403,10.403,10.403,10.403,10.403,10.429,10.5429,10.6221,10.7114,10.8328,10.9278,11.0125,11.1018,11.1263,11.1648,11.2601,11.2736,11.2736,11.2736,11.2736,11.2736,11.2736,11.2451,11.2237,11.2237,11.1951,11.1737,11.1737,11.1826,11.1515,11.0646,11.0027,10.961,10.9454,10.9815,11.0069,11.0069,11.0069,11.0553,11.1349,11.1768,11.2066,6.6834,7.0033,7.2941,7.55,7.4686,7.4861,8.1042,8.1508,8.11,8.2498,0.0,0.0,0.0,0.0,0.0,0.0,0.0,0.0,0.0,0.0,0.0,0.0,0.0,0.0,0.0,0.0,0.0,0.0,0.0,0.0,0.0,0.0,0.0,9.2194,9.4521,9.5306,9.4056,9.5451,9.6171,0.0,9.7603,9.7976,9.7642,9.6501,9.7395,10.0005,10.2833,10.403,10.403,10.403,10.403,10.403,10.403,10.4096,10.4161,10.4161,10.4161,10.4161,10.4161,10.4096,10.403,10.403,10.403,10.403,10.403,10.403,10.403,10.403,10.403,10.403,10.403,10.403,10.403,10.403,10.403,10.4484,10.6221,10.6701,10.7289,10.9169,10.9969,11.0536,11.1067,11.1553,11.2072,11.2646,11.2736,11.2736,11.2736,11.2736,11.2736,11.2736,11.1452,11.0667,11.0667,10.9311,10.8498,10.8498,10.8837,10.9178,10.9361,10.9333,10.8116,10.5723,10.7417,10.8283,10.8283,10.8283,10.9544,11.1883,11.1911,11.1582,5.8341,6.2122,6.6191,6.8051,7.1836,7.5733,7.8292,0.0,0.0,0.0,0.0,8.4923,0.0,0.0,0.0,0.0,0.0,0.0,0.0,0.0,0.0,0.0,0.0,0.0,0.0,0.0,0.0,0.0,0.0,0.0,0.0,0.0,0.0,0.0,9.3707,9.3997,9.2718,9.3997,9.4624,9.4604,9.5138,9.4864,9.3853,9.4339,9.5788,9.8039,10.0362,10.2095,10.337,10.3767,10.403,10.403,10.403,10.403,10.403,10.403,10.403,10.403,10.403,10.403,10.403,10.403,10.403,10.403,10.403,10.403,10.403,10.403,10.403,10.403,10.403,10.403,10.403,10.403,10.4419,10.5178,10.6462,10.7231,10.8046,10.9385,11.0073,11.0638,11.1067,11.1601,11.2118,11.2691,11.2736,11.2736,11.2736,11.1951,11.1381,11.1381,10.9953,10.9026,10.9026,10.8384,10.807,10.807,10.8198,10.7754,10.6479,10.6888,10.6627,10.5561,10.6279,10.6711,10.6711,10.6711,10.729,10.8583,10.8943,10.9003,5.4153,5.7474,6.1716,6.3809,6.9393,0.0,0.0,7.6838,0.0,0.0,8.3237,8.4458,8.2731,0.0,0.0,0.0,0.0,0.0,0.0,0.0,0.0,0.0,0.0,0.0,0.0,0.0,0.0,0.0,0.0,0.0,0.0,0.0,0.0,0.0,9.2834,9.2892,9.1962,9.2834,9.3342,9.3318,9.3318,9.2822,9.1962,9.3318,9.498,9.689,9.8695,10.0709,10.2836,10.3436,10.3767,10.403,10.403,10.403,10.403,10.403,10.403,10.403,10.403,10.403,10.403,10.403,10.403,10.403,10.403,10.403,10.403,10.403,10.403,10.403,10.403,10.403,10.403,10.403,10.4675,10.561,10.6522,10.7521,10.8551,10.9652,11.0332,11.0769,11.1312,11.1838,11.2328,11.2691,11.2736,11.2736,11.2736,11.1381,11.0239,10.9739,10.8312,10.7385,10.7385,10.6957,10.6671,10.6671,10.6923,10.6328,10.4674,10.5214,10.5522,10.5522,10.5696,10.5762,10.5762,10.5762,10.595,10.6373,10.6837,10.7294,5.9214,6.0206,6.2123,6.6019,6.8055,0.0,7.2185,7.2767,7.3872,7.7769,8.0693,8.2439,8.2439,0.0,0.0,0.0,0.0,0.0,0.0,0.0,0.0,0.0,0.0,0.0,0.0,0.0,0.0,0.0,0.0,0.0,0.0,0.0,0.0,0.0,9.1962,9.1962,9.1962,9.1962,9.1962,9.1962,9.1962,9.1962,9.1962,9.3318,9.498,9.689,9.8163,10.0275,10.2836,10.2836,10.3303,10.403,10.403,10.403,10.403,10.403,10.403,10.403,10.403,10.403,10.403,10.403,10.403,10.403,10.403,10.403,10.403,10.403,10.403,10.403,10.403,10.403,10.403,10.403,10.4675,10.561,10.6522,10.7521,10.8717,11.0107,11.0819,11.1312,11.1838,11.242,11.2736,11.2736,11.2736,11.2736,11.2736,11.1381,10.9811,10.8241,10.6671,10.5744,10.5744,10.4388,10.3419,10.3419,10.4185,10.4602,10.4567,10.4967,10.5179,10.5179,10.5522,10.5762,10.5762,10.5762,10.595,10.6373,10.6837,10.7294,5.3862,5.6364,5.9621,6.346,6.6717,6.9684,7.2185,7.4104,7.6257,7.9223,7.9107,7.899,8.0809,0.0,0.0,0.0,0.0,0.0,0.0,0.0,0.0,0.0,0.0,0.0,0.0,0.0,0.0,0.0,0.0,0.0,0.0,0.0,0.0,0.0,9.1962,9.1962,9.1962,9.1962,9.1962,9.1962,9.1962,9.1962,9.2046,9.4156,9.571,9.689,9.9115,10.1119,10.2836,10.2836,10.3303,10.403,10.403,10.403,10.403,10.403,10.403,10.403,10.403,10.403,10.403,10.403,10.403,10.403,10.403,10.403,10.403,10.403,10.403,10.403,10.403,10.403,10.403,10.403,10.5178,10.6402,10.6701,10.7978,10.9439,11.028,11.0819,11.136,11.1838,11.242,11.2736,11.2736,11.2736,11.2379,11.1309,11.0738,10.9383,10.6743,10.5102,10.4174,10.4174,10.3746,10.3512,10.3833,10.4267,10.4678,10.4967,10.5318,10.5595,10.5595,10.5696,10.5762,10.5762,10.6045,10.619,10.6373,10.7137,10.7546,5.3688,5.6015,5.8686,6.346,6.5728,6.759,0.0,7.1836,7.2999,7.5559,7.5268,0.0,0.0,0.0,8.4148,8.4148,0.0,0.0,0.0,0.0,0.0,0.0,0.0,0.0,0.0,0.0,0.0,0.0,0.0,0.0,0.0,0.0,0.0,9.1962,9.1962,9.1962,9.1962,9.1962,9.1962,9.1962,9.2465,9.2656,9.2739,9.5218,9.6644,9.7181,9.9325,10.1042,10.2429,10.2429,10.297,10.403,10.403,10.403,10.403,10.403,10.403,10.403,10.403,10.403,10.403,10.403,10.403,10.403,10.403,10.403,10.403,10.403,10.403,10.403,10.403,10.403,10.4029,10.4418,10.5677,10.6819,10.7231,10.8649,11.0073,11.0568,11.1116,11.1648,11.2189,11.2556,11.2736,11.2736,11.2237,11.1523,11.0524,10.9383,10.7884,10.5958,10.4388,10.3419,10.3419,10.3419,10.3552,10.3958,10.4493,10.4967,10.5352,10.5589,10.5762,10.5762,10.5762,10.5762,10.5762,10.6129,10.6343,10.6373,10.7268,10.7667,5.6945,5.7992,5.8919,6.5148,6.5089,6.4506,6.8171,6.7008,0.0,6.823,0.0,0.0,0.0,7.9456,8.3741,8.409,0.0,0.0,0.0,0.0,0.0,0.0,0.0,0.0,0.0,0.0,0.0,0.0,0.0,0.0,0.0,0.0,0.0,9.1962,9.1962,9.1962,9.1962,9.1962,9.1962,9.213,9.3318,9.3972,9.4075,9.6473,9.7547,9.7685,9.902,10.0402,10.1677,10.1746,10.2633,10.403,10.403,10.403,10.403,10.403,10.403,10.403,10.403,10.403,10.403,10.403,10.403,10.403,10.403,10.403,10.403,10.403,10.403,10.403,10.403,10.403,10.4225,10.5116,10.6039,10.6996,10.8046,10.9423,11.0517,11.1067,11.1601,11.2189,11.2646,11.2736,11.2665,11.2594,11.1381,11.031,11.0096,10.7528,10.5672,10.5601,10.4317,10.3419,10.3419,10.3419,10.3593,10.4036,10.4787,10.5318,10.5762,10.5762,10.5762,10.5762,10.5762,10.5762,10.5828,10.616,10.6433,10.6462,10.7345,10.7691,5.107,5.3979,5.712,6.1484,6.5087,6.7881,6.8811,0.0,0.0,0.0,0.0,0.0,0.0,7.5384,0.0,8.3509,8.5252,0.0,0.0,0.0,0.0,0.0,0.0,0.0,0.0,0.0,0.0,0.0,0.0,0.0,0.0,0.0,9.1962,9.1962,9.1962,9.1962,9.1962,9.1962,9.2406,9.3482,9.3727,9.4398,9.5297,9.6859,9.7547,9.7623,9.9607,10.0901,10.1677,10.2296,10.3104,10.403,10.403,10.403,10.403,10.403,10.403,10.403,10.403,10.403,10.403,10.403,10.403,10.403,10.403,10.403,10.403,10.403,10.403,10.403,10.403,10.403,10.4225,10.5116,10.6039,10.6996,10.8046,10.9423,11.0517,11.1067,11.1601,11.2189,11.2646,11.2736,11.2308,11.1166,11.0667,10.9525,10.7171,10.6172,10.5316,10.4103,10.3633,10.3419,10.3419,10.3419,10.3833,10.4824,10.5074,10.5318,10.5762,10.5762,10.5762,10.5762,10.5762,10.5885,10.619,10.6667,10.7083,10.7396,10.7877,10.8172,5.1419,5.5258,5.823,5.8578,6.1657,6.4565,6.4565,0.0,0.0,0.0,0.0,0.0,0.0,0.0,7.4977,8.0677,0.0,8.4633,0.0,0.0,0.0,0.0,0.0,0.0,0.0,0.0,0.0,0.0,0.0,0.0,0.0,0.0,9.1962,9.1962,9.1962,9.1962,9.1962,9.249,9.3153,9.3891,9.504,9.5928,9.655,9.7912,9.8661,9.9104,0.0,10.1253,10.2228,10.2633,10.3303,10.403,10.403,10.403,10.403,10.403,10.403,10.403,10.403,10.403,10.403,10.403,10.403,10.403,10.403,10.403,10.403,10.403,10.403,10.403,10.403,10.403,10.4355,10.561,10.6402,10.7114,10.8551,10.9847,11.0819,11.1116,11.1791,11.242,11.2691,11.2165,11.1381,11.0524,10.9169,10.767,10.5958,10.5102,10.4388,10.3491,10.3419,10.3419,10.3419,10.3552,10.3991,10.4604,10.4967,10.5318,10.5762,10.5762,10.5788,10.6045,10.6045,10.6221,10.6695,10.7137,10.7447,10.7667,10.8129,10.8278,5.3688,5.8288,6.1019,5.7876,5.8516,5.9912,5.9912,0.0,0.0,0.0,0.0,0.0,0.0,6.8346,7.0556,0.0,0.0,8.1915,0.0,0.0,0.0,0.0,0.0,0.0,0.0,0.0,0.0,0.0,0.0,0.0,0.0,9.1962,9.1962,9.1962,9.1962,9.2071,9.249,9.3586,9.4237,9.4479,9.655,9.7623,9.7912,9.9167,10.0106,10.0751,0.0,10.1672,10.2836,10.297,10.3436,10.403,10.403,10.403,10.403,10.403,10.403,10.403,10.403,10.403,10.403,10.403,10.403,10.403,10.403,10.403,10.403,10.403,10.403,10.403,10.403,10.4095,10.4611,10.6341,10.6878,10.7463,10.9385,11.0466,11.1214,11.1263,11.193,11.2379,11.2379,11.1095,10.9953,10.9739,10.7456,10.5672,10.5387,10.4245,10.3419,10.3419,10.3419,10.346,10.3471,10.3833,10.4036,10.4152,10.486,10.5387,10.5762,10.5762,10.5918,10.6343,10.6343,10.6638,10.7237,10.7496,10.7765,10.7761,10.8151,10.8278,5.1478,5.8283,6.4391,6.3809,6.3111,6.2587,6.2587,0.0,0.0,0.0,0.0,0.0,0.0,6.5147,0.0,0.0,0.0,0.0,8.4807,8.8704,9.1205,0.0,0.0,0.0,0.0,0.0,0.0,0.0,0.0,0.0,0.0,9.1962,9.1962,9.1962,9.1962,9.2988,9.5059,9.5297,9.5928,9.7013,9.7457,9.8138,9.9241,10.0115,10.0609,0.0,0.0,0.0,10.2903,10.3569,10.3833,10.403,10.403,10.403,10.403,10.403,10.403,10.403,10.403,10.403,10.403,10.403,10.403,10.403,10.403,10.403,10.403,10.403,10.403,10.403,10.403,10.4546,10.5429,10.6462,10.7405,10.8496,10.9951,11.0719,11.1312,11.1743,11.1262,11.0738,11.0738,10.9454,10.7956,10.6671,10.6029,10.5244,10.396,10.3562,10.3419,10.3419,10.3419,10.3512,10.3912,10.3919,10.4267,10.4967,10.5387,10.5696,10.5762,10.5762,10.5918,10.6343,10.6343,10.6781,10.757,10.7693,10.7831,10.8215,10.8257,10.8278,5.4328,5.933,6.3925,6.3169,6.253,6.2123,6.2123,0.0,0.0,0.0,5.8923,5.933,6.2704,6.3634,6.5728,0.0,7.3406,0.0,0.0,0.0,8.8297,8.9693,0.0,0.0,0.0,0.0,0.0,0.0,0.0,0.0,0.0,9.1962,9.2297,9.2988,9.2988,9.3831,9.5553,9.6395,9.7013,9.7547,9.8735,9.9544,10.0051,10.0901,10.1463,0.0,0.0,0.0,10.3503,10.3833,10.403,10.403,10.403,10.403,10.403,10.403,10.403,10.403,10.403,10.403,10.403,10.403,10.403,10.403,10.403,10.403,10.403,10.403,10.403,10.403,10.403,10.4675,10.5548,10.6522,10.7521,10.8456,10.901,10.9576,10.9831,10.9501,10.9289,10.9169,10.9169,10.7813,10.66,10.5886,10.503,10.4245,10.3491,10.3419,10.3419,10.3419,10.3593,10.3833,10.3958,10.438,10.486,10.5421,10.5662,10.5762,10.5762,10.595,10.6129,10.6343,10.6837,10.7396,10.7967,10.7967,10.8129,10.8278,10.8401,10.846,5.9505,0.0,6.4273,6.3286,6.3053,6.2879,0.0,6.0435,5.9214,0.0,5.9272,5.9097,6.3053,6.2588,6.4099,7.1603,7.2534,7.4512,8.11,0.0,0.0,8.7657,0.0,0.0,0.0,0.0,0.0,0.0,0.0,0.0,0.0,9.2465,9.2988,9.4237,9.48,9.5692,9.7028,9.8075,9.8524,9.8524,10.0123,10.0901,10.0837,10.1608,0.0,0.0,0.0,0.0,10.403,10.403,10.403,10.403,10.403,10.403,10.403,10.403,10.403,10.403,10.403,10.403,10.403,10.403,10.403,10.403,10.403,10.403,10.403,10.403,10.403,10.403,10.403,10.4866,10.5856,10.6581,10.7477,10.8271,10.8307,10.839,10.828,10.7627,10.7526,10.7528,10.7528,10.6243,10.5173,10.5173,10.4174,10.3419,10.3419,10.3471,10.3512,10.3512,10.3912,10.4152,10.4267,10.4896,10.5421,10.5729,10.5762,10.5828,10.5853,10.616,10.6403,10.6521,10.7294,10.7882,10.8172,10.8236,10.8319,10.836,10.8538,10.8707,0.0,6.8404,6.8579,6.8462,6.8462,6.7822,6.5379,6.3809,0.0,5.9912,5.9272,5.9272,5.9621,6.154,6.4042,6.7128,6.9509,0.0,0.0,8.0751,0.0,0.0,0.0,0.0,0.0,0.0,0.0,0.0,0.0,0.0,0.0,9.3809,9.4318,9.5535,9.7333,9.9335,10.1259,10.1329,10.1399,10.1399,10.1538,10.1608,10.1608,10.2429,0.0,0.0,0.0,0.0,0.0,10.403,10.403,10.403,10.403,10.403,10.403,10.403,10.403,10.403,10.403,10.403,10.403,10.403,10.403,10.403,10.403,10.403,10.403,10.403,10.403,10.403,10.403,10.5304,10.6641,10.6701,10.7383,10.8217,10.8671,10.8115,10.7556,10.7969,10.6885,10.5886,10.5886,10.4602,10.3562,10.3562,10.3532,10.3419,10.3419,10.3754,10.3919,10.3919,10.4267,10.4678,10.5038,10.5421,10.5729,10.5762,10.5762,10.5885,10.6282,10.6313,10.658,10.7002,10.7447,10.7667,10.7691,10.8129,10.8401,10.867,10.8689,10.8705,6.9509,7.0207,7.0033,6.9218,6.9626,6.9277,6.5903,6.41,6.2471,5.9854,5.869,5.8399,5.9156,6.0729,6.3809,6.9626,7.1371,0.0,0.0,0.0,0.0,8.4535,0.0,0.0,0.0,0.0,0.0,0.0,0.0,0.0,0.0,9.4237,9.5377,9.8672,9.9544,10.0481,10.1677,10.1677,10.1677,10.1677,10.2159,10.2429,10.2429,10.3171,0.0,0.0,0.0,0.0,0.0,10.403,10.403,10.403,10.403,10.403,10.403,10.403,10.403,10.403,10.403,10.403,10.403,10.403,10.403,10.403,10.403,10.403,10.403,10.403,10.403,10.3767,10.278,10.3535,10.4426,10.4073,10.4912,10.5812,10.5931,10.5901,10.5755,10.5303,10.4673,10.4317,10.4317,10.3776,10.3419,10.3419,10.3419,10.3542,10.3754,10.388,10.4075,10.4305,10.4714,10.5109,10.5455,10.5696,10.5762,10.5762,10.5982,10.616,10.6343,10.692,10.7268,10.7447,10.7831,10.8085,10.8085,10.836,10.8595,10.8776,10.8895,10.8901,7.0673,7.0614,7.0091,6.9218,6.9975,6.9916,6.6019,6.41,6.2355,5.933,5.8109,5.7812,5.8574,6.0438,6.3983,7.0498,0.0,0.0,0.0,0.0,0.0,0.0,0.0,0.0,0.0,0.0,0.0,0.0,0.0,0.0,0.0,9.5456,9.7013,10.1253,10.1323,10.1672,10.2429,10.2429,10.2429,10.2429,10.2903,10.3236,10.3236,10.3701,0.0,0.0,0.0,0.0,0.0,10.3241,10.3569,10.403,10.403,10.403,10.403,10.403,10.403,10.403,10.403,10.403,10.403,10.403,10.403,10.403,10.403,10.3372,10.2715,10.3109,10.2912,10.2386,10.1268,10.1941,10.2762,10.2326,10.3144,10.4092,10.4175,10.4205,10.4079,10.3479,10.3419,10.3419,10.3419,10.3419,10.3419,10.3419,10.3419,10.3512,10.3919,10.4075,10.4305,10.4714,10.5109,10.5421,10.5729,10.5762,10.5828,10.5918,10.616,10.6492,10.6781,10.7371,10.7714,10.7831,10.8172,10.8319,10.8401,10.8613,10.8705,10.8878,10.8979,10.9082,7.0207,6.9975,6.9044,6.9044,6.9975,6.9916,0.0,0.0,6.2122,5.8336,5.7579,5.7579,5.7579,6.0668,6.4507,0.0,0.0,0.0,8.145,8.2381,0.0,0.0,0.0,0.0,0.0,0.0,0.0,0.0,0.0,0.0,0.0,9.7623,9.9199,10.27,10.2836,10.3171,10.403,10.403,10.403,10.403,10.403,10.403,10.3964,10.3964,10.3109,0.0,0.0,0.0,0.0,10.1662,10.2583,10.3964,10.3964,10.3964,10.3964,10.3964,10.3964,10.3964,10.3964,10.3964,10.3964,10.3964,10.3964,10.3964,10.3964,10.1925,9.9821,10.1268,10.061,9.9495,9.9495,10.0895,10.2227,10.2227,10.2813,10.3518,10.4057,10.3358,10.2774,10.3337,10.3419,10.3419,10.3419,10.3419,10.3419,10.3419,10.346,10.3552,10.3991,10.4343,10.4714,10.5144,10.5489,10.5762,10.5762,10.5762,10.5918,10.6313,10.6343,10.6707,10.7619,10.7667,10.7854,10.8278,10.8299,10.8401,10.8689,10.8689,10.8705,10.8878,10.8979,10.9214,6.9393,6.9277,6.9044,6.9044,6.9975,6.9916,0.0,0.0,6.2355,5.9388,5.8162,5.805,5.9799,6.2587,6.5845,0.0,0.0,7.4337,7.899,8.1275,8.2974,0.0,0.0,0.0,0.0,0.0,0.0,0.0,0.0,0.0,0.0,9.7994,9.8626,10.1207,10.1339,10.2192,10.3964,10.403,10.403,10.403,10.403,10.3438,10.2386,10.2386,10.1531,10.0216,0.0,0.0,0.0,10.0216,10.0479,10.0873,10.0873,10.0873,10.1005,10.1991,10.1728,10.1005,10.1991,10.1728,10.0873,10.0873,10.0873,10.0873,10.0873,10.0282,9.9624,10.0084,9.9887,9.9495,9.9495,9.9689,9.9847,9.9986,10.0777,10.1673,10.2394,10.2914,10.3224,10.3348,10.3419,10.3419,10.3419,10.3419,10.3419,10.3419,10.3633,10.3919,10.4343,10.4751,10.5144,10.5489,10.5696,10.5762,10.5762,10.5762,10.5918,10.6313,10.6667,10.711,10.7643,10.7996,10.8257,10.8519,10.8519,10.8614,10.8793,10.8928,10.8933,10.8979,10.9214,10.9383,6.8055,6.8637,6.9044,6.9044,6.9567,6.9393,6.6543,0.0,6.2587,6.0493,5.9505,5.9621,6.16,6.4158,6.7124,0.0,0.0,0.0,7.806,0.0,8.341,0.0,0.0,0.0,0.0,0.0,0.0,0.0,0.0,0.0,9.8539,9.841,9.8865,10.0167,10.0232,10.0819,10.2254,10.2254,10.2254,10.2254,10.278,10.2254,10.0873,10.2057,10.1202,9.8703,9.9295,0.0,0.0,9.8703,9.9032,9.9495,9.9495,9.9495,9.9561,10.0545,10.0282,9.969,10.0545,10.0282,9.9495,9.9495,9.8707,9.798,9.8506,9.8309,9.798,9.8506,9.8309,9.791,9.8277,9.8089,9.8084,9.8942,10.001,10.1091,10.1737,10.2516,10.3141,10.3419,10.3419,10.3419,10.3419,10.3419,10.3501,10.3633,10.3873,10.419,10.4751,10.5003,10.5318,10.5729,10.5762,10.5755,10.5982,10.5982,10.6221,10.6865,10.7163,10.7546,10.8085,10.8319,10.8519,10.8705,10.8723,10.8811,10.8901,10.9009,10.9082,10.9228,10.9383,10.9422,6.672,6.7997,6.9044,6.9044,6.9044,6.8637,6.736,0.0,0.0,6.1658,6.1426,6.1775,6.2937,6.5496,0.0,0.0,0.0,7.5675,0.0,8.1715,8.4112,0.0,0.0,0.0,0.0,0.0,0.0,0.0,0.0,0.0,9.713,9.844,9.9167,9.9361,9.9298,9.9364,9.9495,9.9495,9.9495,9.9558,10.0873,10.0742,9.9427,10.2189,10.1136,9.7257,9.8572,0.0,0.0,9.7191,9.798,9.9164,9.9164,9.9164,9.9164,9.9295,9.9295,9.9101,9.9295,9.9295,9.9164,9.9164,9.7388,9.5481,9.6796,9.627,9.5547,9.6796,9.627,9.5457,9.6395,9.6682,9.7124,9.8789,10.0325,10.1487,10.1827,10.2342,10.2888,10.3265,10.3419,10.3419,10.3419,10.346,10.3593,10.3919,10.4036,10.4343,10.5074,10.5179,10.5352,10.5795,10.5828,10.595,10.6373,10.6433,10.6809,10.7643,10.7691,10.7967,10.8689,10.8707,10.8723,10.8895,10.8745,10.875,10.8842,10.8842,10.8913,10.8969,10.912,10.9132,6.6842,6.7997,6.9044,6.9044,6.9044,6.8637,6.736,6.5845,0.0,0.0,6.2763,6.2821,6.3111,0.0,7.0446,0.0,7.4046,7.6722,0.0,0.0,0.0,0.0,0.0,0.0,0.0,0.0,0.0,0.0,0.0,0.0,9.5618,9.6007,9.6665,9.7783,9.7848,9.8375,9.9495,9.9495,9.9495,9.9495,9.9887,9.9229,9.7848,9.8506,9.7651,9.5744,9.6007,0.0,0.0,9.5744,9.5876,9.6205,9.6205,9.6205,9.6336,9.7388,9.7125,9.6336,9.7454,9.7125,9.6205,9.6205,9.5744,9.535,9.5613,9.5481,9.535,9.5613,9.5481,9.5457,9.6395,9.7135,9.8073,9.9408,10.1068,10.2342,10.2473,10.293,10.3265,10.3419,10.3419,10.3419,10.3419,10.3673,10.3912,10.3958,10.453,10.4967,10.5144,10.5421,10.5755,10.616,10.619,10.6403,10.6865,10.692,10.7242,10.7847,10.787,10.8129,10.8793,10.8811,10.8895,10.8994,10.7789,10.7259,10.7408,10.7408,10.6754,10.5507,10.6854,10.6774,6.6622,6.8087,6.9426,6.9049,6.9044,6.8811,6.8113,0.0,0.0,0.0,6.5554,6.6019,6.6019,6.916,0.0,7.2592,0.0,0.0,0.0,0.0,0.0,0.0,0.0,0.0,0.0,0.0,0.0,0.0,0.0,9.4856,9.5218,9.5284,9.5613,9.6336,9.6336,9.6731,9.7454,9.752,9.752,9.752,9.8177,9.7783,9.6402,9.7783,9.7257,9.5284,9.5941,0.0,9.5284,9.5284,9.5284,9.5284,9.5284,9.5284,9.535,9.6073,9.5876,9.535,9.6073,9.5876,9.5284,9.5284,9.5284,9.5284,9.5284,9.5284,9.5404,9.5753,9.5871,9.6221,9.7513,9.8382,9.9221,10.0325,10.1417,10.2342,10.256,10.3057,10.3419,10.3419,10.3419,10.343,10.3673,10.3873,10.4114,10.4493,10.4896,10.5214,10.5387,10.5788,10.6066,10.6313,10.6551,10.6948,10.7422,10.7471,10.7756,10.831,10.76,10.73,10.7772,10.7035,10.6659,10.6828,10.5998,10.5646,10.5721,10.5721,10.5316,10.4486,10.5393,10.5399,6.6829,6.8454,6.9999,6.9496,6.9554,6.9617,6.9112,6.9175,0.0,0.0,6.8404,6.9277,6.9044,7.1254,7.3523,7.5035,0.0,0.0,0.0,0.0,8.3908,0.0,0.0,0.0,0.0,0.0,0.0,0.0,0.0,9.5284,9.5284,9.5284,9.5284,9.5284,9.5284,9.5284,9.5284,9.5284,9.5284,9.5284,9.6468,9.6402,9.535,9.7717,9.752,9.535,9.6468,0.0,9.5284,9.5284,9.5284,9.5284,9.5284,9.5284,9.5284,9.5284,9.5284,9.5284,9.5284,9.5284,9.5284,9.5284,9.5284,9.5284,9.5284,9.5284,9.5398,9.6163,9.651,9.6955,9.8632,9.951,10.0157,10.1255,10.1762,10.2095,10.2646,10.3099,10.3419,10.3419,10.3501,10.3593,10.3919,10.4075,10.4418,10.5074,10.5214,10.5352,10.5729,10.6202,10.6521,10.658,10.7002,10.7422,10.8001,10.8012,10.8161,10.8444,10.7182,10.6358,10.6293,10.4936,10.4249,10.4374,10.4072,10.3933,10.3956,10.3956,10.3892,10.3731,10.4034,10.4099,6.8571,6.9716,7.051,7.0784,7.1913,7.2205,6.9554,6.9991,7.0483,6.9067,0.0,7.0324,6.9218,7.1952,7.5151,7.7594,0.0,8.2218,8.384,8.606,8.7224,8.6416,8.9685,9.2347,9.3141,9.4501,9.5284,9.5284,9.5284,9.5284,9.5284,9.5284,9.5284,9.5284,9.5284,9.5284,9.5284,9.5284,9.5284,9.5284,9.5415,9.5415,9.5284,9.5678,9.5613,9.5284,9.5481,0.0,9.5284,9.5284,9.5284,9.5284,9.5284,9.5284,9.5284,9.5284,9.5284,9.5284,9.5284,9.5284,9.5284,9.5284,9.5284,9.5284,9.5284,9.5284,9.5284,9.5404,9.5988,9.6899,9.8299,9.9288,10.0353,10.2077,10.2473,10.2646,10.3182,10.3307,10.3419,10.3419,10.3673,10.3919,10.403,10.4567,10.5038,10.5144,10.5421,10.5696,10.5762,10.6506,10.711,10.7472,10.7663,10.8001,10.8519,10.8687,10.8277,10.7036,10.6824,10.6067,10.4791,10.4489,10.435,10.4374,10.2927,10.2251,10.2382,10.2382,10.1695,10.0371,10.1887,10.1864,6.8487,7.0168,7.1544,7.1258,7.2336,7.3124,7.1796,7.252,7.2883,7.0662,7.2431,0.0,0.0,0.0,0.0,0.0,0.0,0.0,8.3758,8.4902,8.5927,0.0,8.8673,0.0,9.2865,9.3647,9.4429,0.0,9.4495,9.4429,9.5218,9.5284,9.5284,9.5284,9.5284,9.5284,9.5284,9.5284,9.5284,9.5284,9.5284,9.5284,9.5284,9.5284,9.5284,9.5284,0.0,9.5284,9.5284,9.5284,9.5284,9.5284,9.5284,9.5284,9.5284,9.5284,9.5284,9.5284,9.5284,9.5284,9.5284,9.5284,9.5284,9.5284,9.5284,9.5284,9.5457,9.651,9.7079,9.7788,9.9611,10.0546,10.1255,10.2386,10.2817,10.3141,10.3307,10.3419,10.3419,10.3419,10.3754,10.4114,10.4567,10.4932,10.5249,10.5421,10.5853,10.6129,10.6506,10.7089,10.7616,10.7779,10.817,10.82,10.76,10.7622,10.6975,10.5545,10.4502,10.3697,10.3003,10.2097,10.1644,10.1644,10.0912,10.0538,10.0602,10.0743,10.0453,9.9857,10.0616,10.0577,6.897,7.0763,7.2372,7.199,7.3283,7.4407,7.3688,7.4492,7.4883,7.2698,7.4832,7.6573,0.0,0.0,0.0,8.1023,8.2261,0.0,8.4719,8.4903,0.0,8.7394,0.0,8.9174,9.1807,9.2391,0.0,0.0,9.318,9.318,9.4626,9.4692,9.4889,9.5218,9.5284,9.5284,9.5284,9.5284,9.5284,9.5284,9.5284,9.5284,9.5284,9.5284,9.5284,9.5284,9.5284,9.5284,9.5284,9.5284,9.5284,9.5284,9.5284,9.5284,9.5284,9.5284,9.5284,9.5152,9.4429,9.4166,9.4166,9.4166,9.4166,9.4166,9.4166,9.4343,9.4745,9.6105,9.6868,9.7644,9.9503,10.0713,10.1575,10.2121,10.2856,10.3277,10.289,10.3175,10.3318,10.289,10.3467,10.419,10.4896,10.5179,10.5421,10.582,10.6129,10.6285,10.6026,10.6444,10.6816,10.6816,10.7318,10.7261,10.6175,10.6067,10.5456,10.3834,10.255,10.1667,10.1258,10.0124,9.9541,9.9582,9.9617,9.9614,9.9643,9.9653,9.98,9.9915,9.992,9.9925,7.1051,7.207,7.2997,7.3261,7.554,7.6946,7.4132,7.4571,7.5492,7.5314,7.6453,7.7819,0.0,0.0,8.2721,8.6301,8.692,8.759,8.9218,8.9472,8.8815,0.0,0.0,0.0,0.0,0.0,0.0,9.1141,0.0,9.1733,9.3121,9.3187,9.3844,9.5218,9.5284,9.5284,9.5284,9.5284,9.5284,9.5284,9.5284,9.5284,9.5284,9.5284,9.5284,9.5284,9.5284,9.5284,9.5284,9.5284,9.5284,9.5284,9.5284,9.5284,9.5284,9.5284,9.5284,9.4889,9.2128,9.1207,9.1207,9.1207,9.1207,9.1207,9.1207,9.171,9.2311,9.2421,9.3894,9.551,9.6166,9.8318,10.0532,10.1056,10.2278,10.3032,10.1534,10.239,10.2961,10.1463,10.268,10.4114,10.453,10.5214,10.582,10.6252,10.6343,10.5561,10.336,10.3507,10.3834,10.3834,10.4173,10.4367,10.4306,10.4439,10.3758,10.2097,10.187,10.1193,9.9685,9.9533,9.9591,9.9695,9.9701,9.9745,9.9885,9.976,9.9774,9.9914,9.9888,9.9948,7.0909,7.1016,7.0986,7.3057,7.509,7.6497,7.6396,7.6743,7.6822,7.5737,7.7319,7.8939,7.9428,8.1405,8.3772,8.6178,8.6723,8.7167,8.7693,8.7808,8.7516,8.6746,8.7185,8.7787,0.0,0.0,0.0,8.9563,8.9563,9.0221,9.1667,9.1733,9.1996,9.2456,9.2522,9.2917,9.3903,9.3903,9.4363,9.5218,9.4363,9.3377,9.2522,9.2522,9.2522,9.2522,9.2522,9.2522,9.2522,9.2522,9.2522,9.2522,9.2522,9.2522,9.2522,9.2522,9.2522,9.2325,9.1338,9.0944,9.0944,9.0944,9.0944,9.1115,9.1879,9.2304,9.2772,9.4144,9.5022,9.5887,9.694,9.7988,9.89,9.9417,10.0036,10.025,9.9679,10.0161,10.0498,9.9925,10.081,10.164,10.1781,10.2486,10.3138,10.3525,10.3905,10.3998,10.3378,10.3733,10.3978,10.3978,10.4182,10.3848,10.2779,10.2752,10.2078,10.0443,10.0377,10.0139,9.9657,9.9625,9.9659,9.9688,9.9747,9.9768,9.9773,9.9842,9.9899,9.9885,9.9948,9.9924,6.9441,6.9967,7.0843,7.1348,7.3255,7.5425,7.692,7.7249,7.7071,7.6511,7.8204,7.9694,7.9699,8.2042,8.4334,8.5366,8.6203,8.6724,8.6724,8.6724,8.6724,8.6724,8.6724,0.0,0.0,0.0,0.0,8.805,8.8116,8.8708,9.0155,9.0221,9.0484,9.0944,9.0944,9.1404,9.2391,9.2391,9.2917,9.3771,9.2851,9.1864,9.0944,9.0944,9.0944,9.0944,9.0944,9.0944,9.0944,9.0944,9.0944,9.0944,9.0944,9.0944,9.0944,9.0944,9.0352,8.9497,8.9497,8.9722,8.9879,8.9879,9.0209,9.0686,9.1448,9.1944,9.2592,9.4039,9.4715,9.5195,9.6204,9.6914,9.754,9.7888,9.8394,9.8648,9.8192,9.8636,9.9004,9.8649,9.9473,10.0313,10.0478,10.1078,10.1635,10.1969,10.2543,10.2698,10.2088,10.2323,10.2497,10.2497,10.2628,10.2271,10.1204,10.1053,10.067,9.9674,9.956,9.9619,9.9701,9.9739,9.9758,9.9766,9.9771,9.9758,9.9758,9.9872,9.992,9.9916,9.9901,9.987,0.0,0.0,7.2466,6.8191,7.0361,7.3978,7.5359,7.5754,7.6148,7.7578,7.8976,8.0028,8.0094,8.2395,8.4249,8.4315,8.5617,8.6658,8.6724,8.6724,8.6724,8.6724,8.6724,8.6724,0.0,8.6724,8.6724,8.6724,8.6724,8.7261,8.8708,8.8774,8.9431,9.0812,9.0812,9.0812,9.0878,9.0878,9.0944,9.0944,9.0944,9.0878,9.0878,9.0812,9.0812,9.0812,9.0812,9.0812,9.0812,9.0812,9.0812,9.0812,9.0812,9.0812,9.0812,9.0869,8.9149,8.6833,8.6833,8.7304,8.792,8.792,8.8651,8.9608,8.9655,9.0609,9.1568,9.1611,9.2415,9.3328,9.3328,9.4845,9.6363,9.6363,9.7506,9.8297,9.7028,9.7928,9.8684,9.7565,9.8883,10.0332,10.0705,10.1068,10.1515,10.1848,10.2373,10.1795,9.9251,9.9085,9.9105,9.9181,9.9383,9.9531,9.9542,9.9559,9.9606,9.9713,9.9692,9.9742,9.9695,9.9697,9.9757,9.9941,9.9937,9.9937,9.9937,9.9886,9.9934,9.9934,9.9794,9.9758,6.7951,0.0,0.0,6.8652,7.0361,7.2248,7.2643,7.4307,7.5885,7.628,7.7578,7.8844,7.9896,8.0751,8.2001,8.3986,8.4763,8.542,8.6527,8.6724,8.6724,8.6724,8.6724,8.6724,8.6724,8.6724,8.6724,8.6724,8.6724,8.6921,8.7261,8.7316,8.7514,8.7908,8.7908,8.8314,8.9431,8.9431,8.9957,9.0944,8.9892,8.9431,8.9366,8.8314,8.7908,8.7908,8.7908,8.7908,8.7908,8.7908,8.7908,8.7908,8.7908,8.7908,8.7964,8.8551,8.8796,8.88,8.88,8.9126,8.9539,8.9539,8.9776,9.0242,9.1141,9.1687,9.2179,9.3021,9.3521,9.3711,9.3711,9.4181,9.4613,9.4613,9.5122,9.5594,9.5199,9.5909,9.6532,9.6196,9.6985,9.7783,9.7898,9.8519,9.8958,9.9228,9.9679,9.9771,9.9146,9.914,9.9195,9.9421,9.947,9.9542,9.9663,9.9643,9.9697,9.975,9.9694,9.9772,9.9823,9.9865,9.9911,9.9886,9.9847,9.9746,9.9746,9.9801,9.9787,9.9787,9.9765,9.9758,6.6637,0.0,0.0,0.0,6.5824,6.7774,7.0866,7.1853,7.2663,7.4504,7.6017,7.7315,7.8121,7.9305,8.062,0.0,8.3119,8.3973,8.5486,8.5683,8.5946,8.6658,8.6724,8.6724,8.6724,8.6724,8.6724,8.6724,8.6724,8.6724,8.6724,8.6724,8.6724,8.6724,8.6724,8.7119,8.7919,8.7919,8.8314,8.9224,8.8314,8.7919,8.7919,8.7119,8.6724,8.6724,8.6724,8.6724,8.6724,8.6724,8.6724,8.6724,8.6724,8.6875,8.7357,8.84,8.9271,8.9892,8.9892,9.0242,9.0766,9.0766,9.1053,9.1644,9.2427,9.2751,9.299,9.3711,9.3899,9.3899,9.3899,9.3899,9.3937,9.4122,9.4374,9.4551,9.5001,9.5527,9.5933,9.6055,9.6605,9.7062,9.724,9.7742,9.8138,9.8551,9.8816,9.9099,9.9246,9.9256,9.9379,9.9533,9.9591,9.9607,9.9709,9.9745,9.9769,9.977,9.9828,9.98,9.9916,9.9859,9.9822,9.9822,9.978,9.9734,9.9676,9.9676,9.9564,9.9506,9.9506,9.9506,6.2918,0.0,0.0,5.8656,5.9248,6.2076,0.0,0.0,6.7665,7.1677,7.3847,7.5096,7.5293,7.7661,7.9699,8.0028,8.1146,8.2461,8.3921,8.4249,8.4894,8.6263,8.6461,8.6527,8.6724,8.6724,8.6724,8.6724,8.6724,8.6724,8.6724,8.6724,8.6724,8.6724,8.6724,8.6724,8.6724,8.6724,8.6724,8.6724,8.6724,8.6724,8.6724,8.6833,8.6767,8.6724,8.6941,8.6821,8.6724,8.6821,8.6929,8.6983,8.7091,8.7555,8.8416,8.9823,9.0471,9.0562,9.0562,9.1123,9.1827,9.1827,9.2497,9.3366,9.3366,9.3597,9.3899,9.3899,9.3899,9.3899,9.3899,9.3937,9.4084,9.4551,9.462,9.4865,9.5686,9.6041,9.6362,9.6816,9.7165,9.758,9.7919,9.8172,9.848,9.9024,9.9181,9.9246,9.9465,9.9536,9.9559,9.9583,9.9607,9.9709,9.9694,9.9772,9.983,9.9937,9.9886,9.9929,9.9929,9.9794,9.975,9.9734,9.9734,9.9591,9.952,9.952,9.9355,9.9167,9.9167,9.914,0.0,0.0,0.0,0.0,0.0,0.0,0.0,0.0,6.3892,6.4747,6.7863,7.0888,7.2182,7.4702,7.7398,7.9699,8.0357,8.1014,8.2461,8.3645,8.4446,8.4775,8.4828,8.5289,8.6592,8.6724,8.6724,8.6724,8.6724,8.6724,8.6724,8.6724,8.6724,8.6724,8.6724,8.6724,8.6724,8.6724,8.6724,8.6724,8.6724,8.6724,8.6724,8.7357,8.7304,8.6779,8.8023,8.7868,8.6779,8.775,8.8349,8.8732,8.93,9.0079,9.0835,9.1148,9.1885,9.2741,9.2741,9.3021,9.3411,9.3411,9.3597,9.3787,9.3787,9.3825,9.3899,9.3899,9.3899,9.3899,9.3899,9.4121,9.4339,9.4445,9.5001,9.5527,9.6012,9.6435,9.677,9.7165,9.7719,9.8036,9.8097,9.848,9.8832,9.9065,9.9346,9.9476,9.9564,9.9533,9.9538,9.9669,9.9737,9.9692,9.9697,9.9809,9.9897,9.9881,9.9822,9.978,9.978,9.9765,9.9634,9.9592,9.9592,9.9434,9.9233,9.9233,9.922,9.9167,9.9167,9.8983,0.0,0.0,0.0,0.0,0.0,0.0,0.0,0.0,0.0,0.0,0.0,6.5627,0.0,0.0,7.4373,7.6543,7.8055,7.9502,8.0949,8.1803,8.2456,8.3197,8.3913,8.4827,8.5992,8.649,8.6809,8.7238,8.7674,8.766,8.7304,8.7304,8.7091,8.6724,8.7238,8.7502,8.7304,8.7853,8.8059,8.7868,8.8059,8.8162,8.8213,8.88,8.8782,8.8483,8.9271,8.9174,8.8483,8.9058,8.9492,8.9733,8.973,9.0025,9.0375,9.0375,9.0725,9.1393,9.2175,9.2572,9.2863,9.3685,9.3899,9.3899,9.3899,9.3899,9.3937,9.4195,9.4267,9.4339,9.462,9.4759,9.4963,9.5414,9.5738,9.6071,9.675,9.719,9.7462,9.769,9.8118,9.8519,9.8516,9.8938,9.9233,9.9325,9.9476,9.9564,9.9621,9.9637,9.9322,9.8606,9.8559,9.8544,9.8519,9.8617,9.9019,9.9739,9.9718,9.9658,9.9658,9.9506,9.9423,9.9332,9.9332,9.9233,9.8938,9.8938,9.8878,9.8828,9.7744,9.6688,0.0,0.0,0.0,0.0,0.0,0.0,0.0,0.0,0.0,0.0,0.0,0.0,0.0,0.0,0.0,7.2939,7.5661,7.8022,7.9437,7.9716,8.0409,8.1886,8.3241,8.4448,8.5396,8.6019,8.6608,8.7223,8.8259,8.8493,8.7811,8.813,0.0,8.7397,8.8298,8.8583,8.8315,8.9223,8.956,8.9261,0.0,0.0,8.975,9.0196,9.038,9.0173,9.0562,9.0516,9.0173,9.0516,9.04,9.0026,8.9451,8.919,8.919,8.919,8.919,8.9404,9.0652,9.108,9.1294,9.2615,9.2972,9.2972,9.2972,9.3045,0.0,9.3685,9.414,9.4557,9.4969,9.5322,9.5769,9.6458,9.6559,9.6669,9.7486,9.7832,9.8069,9.8217,9.8609,9.8844,9.8968,9.9321,9.9421,9.9129,9.9364,9.9484,9.9224,9.9522,9.9241,9.8027,9.7847,9.7863,9.7806,9.6954,9.7301,9.9575,9.8609,9.7847,9.7545,9.7322,9.7208,9.7168,9.7168,9.7644,9.862,9.862,9.8348,9.7769,9.2529,9.0431,0.0,0.0,0.0,0.0,0.0,0.0,0.0,0.0,0.0,0.0,0.0,0.0,0.0,0.0,0.0,0.0,7.4093,7.6491,7.786,7.8622,7.9581,8.1008,8.2281,8.3649,8.5397,8.5263,8.517,8.526,8.6994,8.7838,8.7394,0.0,0.0,0.0,0.0,9.0011,8.9964,9.0103,9.0081,9.0103,9.015,9.015,9.0196,9.1059,9.0945,9.0265,9.1827,9.1585,9.0334,9.1542,9.1199,8.9812,8.9397,8.919,8.919,8.919,8.919,8.9261,8.9404,0.0,0.0,8.969,8.9761,8.9761,8.9761,9.0077,9.0447,9.063,9.2116,9.366,9.3804,9.5256,9.6677,9.6757,9.7014,9.7364,9.7809,9.8069,9.8217,9.8609,9.8922,9.9127,9.914,9.9347,9.9061,9.7692,9.8738,9.9152,9.7647,9.8786,9.9696,9.9612,0.0,0.0,9.9477,9.5303,9.4695,9.9269,9.5203,9.1942,9.0445,9.0347,9.0326,9.0203,9.0189,9.2829,9.8192,9.8192,9.7324,9.523,7.9095,7.621,0.0,0.0,0.0,0.0,0.0,0.0,0.0,0.0,0.0,0.0,0.0,0.0,0.0,0.0,0.0,0.0,7.1049,7.3731,7.4197,7.6494,7.8516,7.9623,8.0938,8.2269,8.348,8.4655,8.5557,8.5963,8.7209,8.7668,8.6998,8.7724,8.7983,8.747,8.8244,8.8459,8.8157,8.895,8.9227,8.8936,8.9227,8.928,8.928,8.9912,8.9991,0.0,9.0371,9.0295,8.9684,9.0295,9.0132,0.0,0.0,0.0,0.0,0.0,8.7296,8.744,8.8377,8.8634,8.8778,8.9714,9.0003,9.0003,9.0003,9.0292,9.0664,9.1034,9.1838,9.2799,9.3153,9.3768,9.4603,9.5801,9.6279,9.6739,9.8126,9.8555,9.8654,9.8953,9.9085,0.0,9.9394,9.9591,9.9404,9.8755,9.9289,9.946,9.8843,9.936,9.9489,9.8586,9.8394,9.825,9.8136,9.6189,0.0,0.0,0.0,9.5675,9.4799,9.4785,0.0,0.0,0.0,0.0,0.0,0.0,0.0,0.0,7.3208,7.1008,0.0,0.0,0.0,0.0,0.0,0.0,0.0,0.0,0.0,0.0,0.0,0.0,0.0,0.0,0.0,0.0,0.0,6.9991,7.009,7.3618,7.6499,7.7048,7.9164,8.0505,8.0317,8.2894,8.483,8.5311,8.68,8.7408,8.664,8.707,8.7119,8.6556,8.7439,8.7784,8.743,8.8315,8.8681,8.838,8.8681,8.8757,8.8794,8.9048,8.919,8.919,8.919,8.919,8.9225,8.9366,8.9186,8.8679,8.7075,8.5708,8.4717,8.4717,8.4717,8.4935,8.6072,8.6407,8.6625,8.7789,8.8153,8.8226,8.8662,8.8992,8.9494,9.0349,9.1184,9.1856,9.233,9.2616,9.3232,9.476,9.5137,9.5599,9.7154,9.793,9.8379,9.8479,9.8188,9.8145,9.8976,9.9085,9.9047,9.909,9.9468,0.0,9.9237,9.9578,9.9392,9.8134,9.7925,9.7757,9.7599,9.626,9.6468,9.8873,9.7748,9.7269,9.7979,9.6253,9.4361,9.2295,8.5213,8.0487,0.0,0.0,0.0,0.0,0.0,0.0,0.0,0.0,0.0,0.0,0.0,0.0,0.0,0.0,0.0,0.0,0.0,0.0,0.0,0.0,0.0,0.0,0.0,0.0,6.5806,7.004,7.3035,7.3064,7.6789,7.8358,7.5685,7.9275,8.1805,8.177,8.5026,8.6769,8.6341,8.8086,8.9119,8.9083,8.9119,8.9155,8.9119,8.9155,8.919,8.9155,8.919,8.919,8.919,8.919,8.919,8.919,8.919,8.919,8.9225,8.9781,8.908,8.7336,8.3395,8.178,8.178,8.178,8.178,8.178,8.1853,8.1853,8.1853,8.1926,8.1926,8.2219,8.388,8.4613,8.5329,8.722,8.9242,9.0879,9.1158,9.2455,9.3696,9.3713,9.3916,9.4172,9.4187,9.5594,9.682,9.6854,9.5773,9.5341,9.7181,9.7491,9.7495,9.7479,9.8858,0.0,9.7514,9.8843,9.9801,9.9506,9.9476,9.9325,9.9132,9.4423,9.3616,9.8468,9.4171,9.2817,9.5958,8.99,8.5612,8.3835,8.3187,8.1248,7.7733,0.0,0.0,0.0,0.0,0.0,0.0,0.0,0.0,0.0,0.0,0.0,0.0,0.0,0.0,0.0,0.0,0.0,0.0,0.0,0.0,0.0,0.0,0.0,0.0,0.0,7.1008,7.0028,7.2951,7.3933,7.1003,7.4777,7.7373,7.7373,8.0389,8.2203,8.2071,8.2702,8.3054,8.3054,8.3275,8.3465,8.3465,8.4784,8.5514,8.5514,8.6555,8.6988,8.6988,8.6988,8.6502,8.5567,8.5567,8.5105,8.4232,8.4371,8.435,8.41,8.2952,8.2557,8.2557,8.2557,8.2557,8.2557,8.2557,8.2557,8.2557,8.2557,8.2557,8.2652,8.3244,8.358,8.4263,8.5976,8.7077,8.7962,8.9269,9.0024,9.0777,9.1994,9.2459,9.2957,9.4002,9.4789,9.5395,9.5357,9.415,9.225,8.9599,9.2781,9.4198,8.9804,9.3364,9.6761,9.7121,9.7666,9.8354,9.94,9.9367,9.8742,9.7479,9.5735,9.486,9.5277,9.3675,9.3248,9.4295,9.2149,9.0041,8.8307,8.7897,8.0778,6.6576,0.0,0.0,0.0,0.0,0.0,0.0,0.0,0.0,0.0,0.0,0.0,0.0,0.0,0.0,0.0,0.0,0.0,0.0,0.0,0.0,0.0,0.0,0.0,0.0,0.0,0.0,6.7594,6.9232,0.0,6.6191,6.9124,7.1433,7.2005,7.4468,7.6717,7.8496,7.8598,7.913,8.0236,8.0563,8.0708,8.0708,8.2004,8.2651,8.2651,8.3807,8.4343,8.4371,8.438,8.3932,8.3041,8.3041,8.246,8.1536,8.0896,8.0106,7.9359,7.9636,7.902,7.8127,7.9335,7.9707,7.9931,8.1047,8.1512,8.1512,8.1512,7.9874,7.8253,7.9462,7.8685,7.8157,8.161,8.3082,8.4192,8.653,8.7202,8.7674,8.946,9.0058,9.0678,9.231,9.2741,9.2695,9.2219,9.1724,8.9891,8.4945,8.7578,8.9138,8.5442,8.854,9.2451,9.5773,9.6132,9.6476,9.7409,9.7346,9.6712,9.5487,9.5395,9.4862,9.3547,9.3472,9.3248,9.2724,9.2466,9.0429,8.6293,8.4847,7.659,0.0,0.0,0.0,0.0,0.0,0.0,0.0,0.0,0.0,0.0,0.0,0.0,0.0,0.0,0.0,0.0,0.0,0.0,0.0,0.0,0.0,0.0,0.0,0.0,0.0,0.0,0.0,6.5559,6.5686,0.0,0.0,0.0,0.0,6.5502,6.7232,7.0362,7.5117,7.5339,7.6913,8.0402,8.0501,8.0647,8.0891,8.0991,8.1064,8.1064,8.1401,8.153,8.153,8.1682,8.1657,8.1584,8.1584,8.1608,8.1336,7.9129,7.6363,7.3521,7.3296,7.1352,6.8945,7.2174,7.3371,7.3745,7.7275,7.8487,7.8337,7.8262,7.4039,6.9448,7.2295,6.9909,0.0,0.0,7.7147,7.9312,8.2875,8.3986,8.4603,8.6381,8.6862,8.748,8.9168,8.9518,8.8968,0.0,8.7951,8.7178,8.1827,0.0,8.1945,8.3163,8.3907,8.6673,9.3136,9.4175,9.4188,9.3932,9.3872,9.3762,9.3415,9.3397,9.3323,9.3248,9.3248,9.2557,9.1062,9.0414,8.6218,7.7855,7.4337,0.0,0.0,0.0,0.0,0.0,0.0,0.0,0.0,0.0,0.0,0.0,0.0,0.0,0.0,0.0,0.0,0.0,0.0,0.0,0.0,0.0,0.0,0.0,0.0,0.0,0.0,5.8062,6.2089,6.3361,6.242,5.9957,0.0,0.0,0.0,0.0,0.0,0.0,6.3766,6.3933,6.6565,7.2355,7.284,7.4699,7.8438,8.0003,8.0795,8.0795,8.204,8.2652,8.2652,8.2621,8.2078,8.1029,8.1029,8.0455,7.9072,7.3717,7.0297,6.827,6.5858,6.3597,6.2172,6.5569,6.6008,6.5858,7.2943,7.4544,7.333,7.2053,0.0,6.6643,6.2429,0.0,0.0,0.0,0.0,7.1369,7.7287,7.9763,8.149,8.4615,8.5381,8.5592,8.5927,8.709,8.6026,0.0,7.7335,7.3101,6.1899,0.0,0.0,0.0,0.0,8.0886,8.6263,9.0025,9.2576,9.3737,9.3696,9.3094,9.1902,9.1735,9.1229,8.9958,8.9883,8.9606,8.9015,8.3968,7.9024,7.4317,0.0,0.0,0.0,0.0,0.0,0.0,0.0,0.0,0.0,0.0,0.0,0.0,0.0,0.0,0.0,0.0,0.0,0.0,0.0,0.0,0.0,0.0,0.0,0.0,0.0,0.0,0.0,5.3028,5.7507,5.9206,5.6735,5.4096,0.0,0.0,0.0,0.0,0.0,0.0,0.0,0.0,0.0,6.3459,6.4536,6.6723,7.0306,7.3612,7.5333,7.5333,7.7724,7.8801,7.8818,7.8963,7.8544,7.7822,7.7822,7.6572,7.4209,6.9852,6.5407,6.1036,0.0,0.0,0.0,0.0,5.7615,5.8234,6.3679,6.542,0.0,6.3312,0.0,0.0,0.0,0.0,0.0,0.0,0.0,0.0,0.0,0.0,8.0301,8.3084,8.373,8.3978,8.4663,8.0396,7.4814,0.0,6.7376,6.3382,5.2955,0.0,0.0,0.0,0.0,7.4048,8.1188,8.6834,9.0598,9.148,9.1482,9.1004,9.0107,9.0032,8.9658,8.8703,8.8629,8.718,8.3948,7.8747,7.2154,0.0,0.0,0.0,0.0,0.0,0.0,0.0,0.0,0.0,0.0,0.0,0.0,0.0,0.0,0.0,0.0,0.0,0.0,0.0,0.0,0.0,0.0,0.0,0.0,0.0,0.0,0.0,0.0,0.0,5.1871,5.4007,0.0,0.0,0.0,0.0,0.0,0.0,0.0,0.0,0.0,0.0,0.0,0.0,0.0,5.7952,6.0132,6.4379,6.6712,6.6935,7.0124,7.163,7.163,7.2324,7.2766,7.2902,7.1793,0.0,6.8148,6.5828,0.0,0.0,0.0,0.0,0.0,0.0,0.0,0.0,0.0,0.0,0.0,0.0,0.0,0.0,0.0,0.0,0.0,0.0,0.0,0.0,0.0,0.0,7.7818,7.9422,8.0335,8.0932,0.0,7.0527,6.0512,5.811,5.7707,0.0,0.0,0.0,0.0,0.0,0.0,0.0,7.6849,8.417,8.8496,8.8645,8.8629,8.8629,8.8629,8.8629,8.8554,8.8329,8.7266,8.3768,7.744,7.3569,0.0,0.0,0.0,0.0,0.0,0.0,0.0,0.0,0.0,0.0,0.0,0.0,0.0,0.0,0.0,0.0,0.0,0.0,0.0,0.0,0.0,0.0,0.0,0.0,0.0,0.0,0.0,0.0,0.0,0.0,0.0,0.0,0.0,0.0,0.0,0.0,0.0,0.0,0.0,0.0,0.0,0.0,0.0,0.0,0.0,0.0,0.0,0.0,0.0,0.0,6.0809,6.177,6.1835,6.4685,6.6803,6.7683,6.077,5.9931,6.2934,0.0,0.0,0.0,0.0,0.0,0.0,0.0,0.0,0.0,0.0,0.0,0.0,0.0,0.0,0.0,0.0,0.0,0.0,0.0,0.0,0.0,0.0,0.0,0.0,0.0,7.0052,7.1557,0.0,0.0,0.0,0.0,0.0,0.0,0.0,0.0,0.0,0.0,0.0,0.0,7.163,8.0836,8.7107,8.8479,8.8629,8.8629,8.8629,8.8629,8.803,8.6667,7.9977,7.4877,0.0,0.0,0.0,0.0,0.0,0.0,0.0,0.0,0.0,0.0,0.0,0.0,0.0,0.0,0.0,0.0,0.0,0.0,0.0,0.0,0.0,0.0,0.0,0.0,0.0,0.0,0.0,0.0,0.0,0.0,0.0,0.0,0.0,0.0,0.0,0.0,0.0,0.0,0.0,0.0,0.0,0.0,0.0,0.0,0.0,0.0,0.0,0.0,0.0,0.0,0.0,0.0,0.0,0.0,0.0,0.0,0.0,0.0,0.0,5.0913,0.0,0.0,0.0,0.0,0.0,0.0,0.0,0.0,0.0,0.0,0.0,0.0,0.0,0.0,0.0,0.0,0.0,0.0,0.0,0.0,0.0,0.0,0.0,0.0,0.0,0.0,0.0,0.0,0.0,0.0,0.0,0.0,0.0,0.0,0.0,0.0,0.0,0.0,0.0,0.0,6.7679,7.7965,8.495,8.5784,8.5863,8.5845,8.5859,8.5863,8.3928,7.9628,7.4738,0.0,0.0,0.0,0.0,0.0,0.0,0.0,0.0,0.0,0.0,0.0,0.0,0.0,0.0,0.0,0.0,0.0,0.0,0.0,0.0,0.0,0.0,0.0,0.0,0.0,0.0,0.0,0.0,0.0,0.0,0.0,0.0,0.0,0.0,0.0,0.0,0.0,0.0,0.0,0.0,0.0,0.0,0.0,0.0,0.0,0.0,0.0,0.0,0.0,0.0,0.0,0.0,0.0,0.0,0.0,0.0,0.0,0.0,0.0,4.8636,0.0,0.0,0.0,0.0,0.0,0.0,0.0,0.0,0.0,0.0,0.0,0.0,0.0,0.0,0.0,0.0,0.0,0.0,0.0,0.0,0.0,0.0,0.0,0.0,0.0,0.0,0.0,0.0,0.0,0.0,0.0,0.0,0.0,0.0,0.0,0.0,0.0,0.0,0.0,0.0,0.0,6.5226,7.5775,8.2834,8.3278,8.3187,8.3036,8.3187,8.3017,7.9894,7.2856,6.9228,0.0,0.0,0.0,0.0,0.0,0.0,0.0,0.0,0.0,0.0,0.0,0.0,0.0,0.0,0.0,0.0,0.0,0.0,0.0,0.0,0.0,0.0,0.0,0.0,0.0,0.0,0.0,0.0,0.0,0.0,0.0,0.0,0.0,0.0,0.0,0.0,0.0,0.0,0.0,0.0,0.0,0.0,0.0,0.0,0.0,0.0,0.0,0.0,0.0,0.0,0.0,0.0,0.0,0.0,0.0,0.0,0.0,0.0,0.0,0.0,0.0,0.0,0.0,0.0,0.0,0.0,0.0,0.0,0.0,0.0,0.0,0.0,0.0,0.0,0.0,0.0,0.0,0.0,0.0,0.0,0.0,0.0,0.0,0.0,0.0,0.0,0.0,0.0,0.0,0.0,0.0,0.0,0.0,0.0,0.0,0.0,0.0,0.0,0.0,0.0,0.0,6.5077,7.4735,8.1495,8.3019,8.2765,8.2526,8.2695,8.2244,7.8629,7.0783,0.0,0.0,0.0,0.0,0.0,0.0,0.0,0.0,0.0,0.0,0.0,0.0,0.0,0.0,0.0,0.0,0.0,0.0,0.0,0.0,0.0,0.0,0.0,0.0,0.0,0.0,0.0,0.0,0.0,0.0,0.0,0.0,0.0,0.0,0.0,0.0,0.0,0.0,0.0,0.0,0.0,0.0,0.0,0.0,0.0,0.0,0.0,0.0,0.0,0.0,0.0,0.0,0.0,0.0,0.0,0.0,0.0,0.0,0.0,0.0,0.0,0.0,0.0,0.0,0.0,0.0,0.0,0.0,0.0,0.0,0.0,0.0,0.0,0.0,0.0,0.0,0.0,0.0,0.0,0.0,0.0,0.0,0.0,0.0,0.0,0.0,0.0,0.0,0.0,0.0,0.0,0.0,0.0,0.0,0.0,0.0,0.0,0.0,0.0,0.0,0.0,0.0,6.3283,7.2746,7.901,7.9613,7.9379,7.9106,7.9134,7.8756,7.3892,6.2838,0.0,0.0,0.0,0.0,0.0,0.0,0.0,0.0,0.0,0.0,0.0,0.0,0.0,0.0,0.0,0.0,0.0,0.0,0.0,0.0,0.0,0.0,0.0,0.0,0.0,0.0,0.0,0.0,0.0,0.0,0.0,0.0,0.0,0.0,0.0,0.0,0.0,0.0,0.0,0.0,0.0,0.0,0.0,0.0,0.0,0.0,0.0,0.0,0.0,0.0,0.0,0.0,0.0,0.0,0.0,0.0,0.0,0.0,0.0,0.0,0.0,0.0,0.0,0.0,0.0,0.0,0.0,0.0,0.0,0.0,0.0,0.0,0.0,0.0,0.0,0.0,0.0,0.0,0.0,0.0,0.0,0.0,0.0,0.0,0.0,0.0,0.0,0.0,0.0,0.0,0.0,0.0,0.0,0.0,0.0,0.0,0.0,0.0,0.0,0.0,0.0,0.0,6.1222,7.0525,7.6644,7.7016,7.6809,7.659,7.6516,7.6209,7.0529,5.7585,0.0,0.0,0.0,0.0,0.0,0.0,0.0,0.0,0.0,0.0,0.0,0.0,0.0,0.0,0.0,0.0,0.0,0.0,0.0,0.0,0.0,0.0,0.0,0.0,0.0,0.0,0.0,0.0,0.0,0.0,0.0,0.0,0.0,0.0,0.0,0.0,0.0,0.0,0.0,0.0,0.0,0.0,0.0,0.0,0.0,0.0,0.0,0.0,0.0,0.0,0.0,0.0,0.0,0.0,0.0,0.0,0.0,0.0,0.0,0.0,0.0,0.0,0.0,0.0,0.0,0.0,0.0,0.0,0.0,0.0,0.0,0.0,0.0,0.0,0.0,0.0,0.0,0.0,0.0,0.0,0.0,0.0,0.0,0.0,0.0,0.0,0.0,0.0,0.0,0.0,0.0,0.0,0.0,0.0,0.0,0.0,0.0,0.0,0.0,0.0,0.0,0.0,5.8875,6.8157,7.4671,7.6269,7.605,7.5807,7.5807,7.5428,6.9854,0.0,0.0,0.0,0.0,0.0,0.0,0.0,0.0,0.0,0.0,0.0,0.0,0.0,0.0,0.0,0.0,0.0,0.0,0.0,0.0,0.0,0.0,0.0,0.0,0.0,0.0,0.0,0.0,0.0,0.0,0.0,0.0,0.0,0.0,0.0,0.0,0.0,0.0,0.0,0.0,0.0,0.0,0.0,0.0,0.0,0.0,0.0,0.0,0.0,0.0,0.0,0.0,0.0,0.0,0.0,0.0,0.0,0.0,0.0,0.0,0.0,0.0,0.0,0.0,0.0,0.0,0.0,0.0,0.0,0.0,0.0,0.0,0.0,0.0,0.0,0.0,0.0,0.0,0.0,0.0,0.0,0.0,0.0,0.0,0.0,0.0,0.0,0.0,0.0,0.0,0.0,0.0,0.0,0.0,0.0,0.0,0.0,0.0,0.0,0.0,0.0,0.0,0.0,5.6986,6.3714,6.9006,0.0,7.2689,7.2504,7.2248,7.208,6.757,5.7059,0.0,0.0,0.0,0.0,0.0,0.0,0.0,0.0,0.0,0.0,0.0,0.0,0.0,0.0,0.0,0.0,0.0,0.0,0.0,0.0,0.0,0.0,0.0,0.0,0.0,0.0,0.0,0.0,0.0,0.0,0.0,0.0,0.0,0.0,0.0,0.0,0.0,0.0,0.0,0.0,0.0,0.0,0.0,0.0,0.0,0.0,0.0,0.0,0.0,0.0,0.0,0.0,0.0,0.0,0.0,0.0,0.0,0.0,0.0,0.0,0.0,0.0,0.0,0.0,0.0,0.0,0.0,0.0,0.0,0.0,0.0,0.0,0.0,0.0,0.0,0.0,0.0,0.0,0.0,0.0,0.0,0.0,0.0,0.0,0.0,0.0,0.0,0.0,0.0,0.0,0.0,0.0,0.0,0.0,0.0,0.0,0.0,0.0,0.0,0.0,0.0,0.0,0.0,6.186,6.7232,0.0,7.0933,7.0799,7.0595,7.0567,6.65,5.6988,0.0,0.0,0.0,0.0,0.0,0.0,0.0,0.0,0.0,0.0,0.0,0.0,0.0,0.0,0.0,0.0,0.0,0.0,0.0,0.0,0.0,0.0,0.0,0.0,0.0,0.0,0.0,0.0,0.0,0.0,0.0,0.0,0.0,0.0,0.0,0.0,0.0,0.0,0.0,0.0,0.0,0.0,0.0,0.0,0.0,0.0,0.0,0.0,0.0,0.0,0.0,0.0,0.0,0.0,0.0,0.0,0.0,0.0,0.0,0.0,0.0,0.0,0.0,0.0,0.0,0.0,0.0,0.0,0.0,0.0,0.0,0.0,0.0,0.0,0.0,0.0,0.0,0.0,0.0,0.0,0.0,0.0,0.0,0.0,0.0,0.0,0.0,0.0,0.0,0.0,0.0,0.0,0.0,0.0,0.0,0.0,0.0,0.0,0.0,0.0,0.0,0.0,0.0,6.198,6.8114,6.9996,7.021,7.021,7.021,7.021,6.6286,5.713,5.1944,0.0,0.0,0.0,0.0,0.0,0.0,0.0,0.0,0.0,0.0,0.0,0.0,0.0,0.0,0.0,0.0,0.0,0.0,0.0,0.0,0.0,0.0,0.0,0.0,0.0,0.0,0.0,0.0,0.0,0.0,0.0,0.0,0.0,0.0,0.0,0.0,0.0,0.0,0.0,0.0,0.0,0.0,0.0,0.0,0.0,0.0,0.0,0.0,0.0,0.0,0.0,0.0,0.0,0.0,0.0,0.0,0.0,0.0,0.0,0.0,0.0,0.0,0.0,0.0,0.0,0.0,0.0,0.0,0.0,0.0,0.0,0.0,0.0,0.0,0.0,0.0,0.0,0.0,0.0,0.0,0.0,0.0,0.0,0.0,0.0,0.0,0.0,0.0,0.0,0.0,0.0,0.0,0.0,0.0,0.0,0.0,0.0,0.0,0.0,0.0,0.0,0.0,5.9579,6.2433,6.6429,6.6857,6.6857,6.6857,6.6857,6.436,5.8509,5.1516,0.0,0.0,0.0,0.0,0.0,0.0,0.0,0.0,0.0,0.0,0.0,0.0,0.0,0.0,0.0,0.0,0.0,0.0,0.0,0.0,0.0,0.0,0.0,0.0,0.0,0.0,0.0,0.0,0.0,0.0,0.0,0.0,0.0,0.0,0.0,0.0,0.0,0.0,0.0,0.0,0.0,0.0,0.0,0.0,0.0,0.0,0.0,0.0,0.0,0.0,0.0,0.0,0.0,0.0,0.0,0.0,0.0,0.0,0.0,0.0,0.0,0.0,0.0,0.0,0.0,0.0,0.0,0.0,0.0,0.0,0.0,0.0,0.0,0.0,0.0,0.0,0.0,0.0,0.0,0.0,0.0,0.0,0.0,0.0,0.0,0.0,0.0,0.0,0.0,0.0,0.0,0.0,0.0,0.0,0.0,0.0,0.0,0.0,0.0,0.0,0.0,0.0,5.3086,5.7296,6.4859,6.5715,6.5715,6.5715,6.5715,6.3361,5.7986,5.0945,0.0,0.0,0.0,0.0,0.0,0.0,0.0,0.0,0.0,0.0,0.0,0.0,0.0,0.0,0.0,0.0,0.0,0.0,0.0,0.0,0.0,0.0,0.0,0.0,0.0,0.0,0.0,0.0,0.0,0.0,0.0,0.0,0.0,0.0,0.0,0.0,0.0,0.0,0.0,0.0,0.0,0.0,0.0,0.0,0.0,0.0,0.0,0.0,0.0,0.0,0.0,0.0,0.0,0.0,0.0,0.0,0.0,0.0,0.0,0.0,0.0,0.0,0.0,0.0,0.0,0.0,0.0,0.0,0.0,0.0,0.0,0.0,0.0,0.0,0.0,0.0,0.0,0.0,0.0,0.0,0.0,0.0,0.0,0.0,0.0,0.0,0.0,0.0,0.0,0.0,0.0,0.0,0.0,0.0,0.0,0.0,0.0,0.0,0.0,0.0,0.0,0.0,0.0,5.3749,6.3289,6.4716,6.5073,6.5358,6.5358,6.279,5.6774,0.0,0.0,0.0,0.0,0.0,0.0,0.0,0.0,0.0,0.0,0.0,0.0,0.0,0.0,0.0,0.0,0.0,0.0,0.0,0.0,0.0,0.0,0.0,0.0,0.0,0.0,0.0,0.0,0.0,0.0,0.0,0.0,0.0,0.0,0.0,0.0,0.0,0.0,0.0,0.0,0.0,0.0,0.0,0.0,0.0,0.0,0.0,0.0,0.0,0.0,0.0,0.0,0.0,0.0,0.0,0.0,0.0,0.0,0.0,0.0,0.0,0.0,0.0,0.0,0.0,0.0,0.0,0.0,0.0,0.0,0.0,0.0,0.0,0.0,0.0,0.0,0.0,0.0,0.0,0.0,0.0,0.0,0.0,0.0,0.0,0.0,0.0,0.0,0.0,0.0,0.0,0.0,0.0,0.0,0.0,0.0,0.0,0.0,0.0,0.0,0.0,0.0,0.0,0.0,0.0,5.7487,6.015,6.229,6.3621,6.3763,6.1624,5.6702,0.0,0.0,0.0,0.0,0.0,0.0,0.0,0.0,0.0,0.0,0.0,0.0,0.0,0.0]}]]]